ECMWFNIL_925_thetae_000.txt.gz
Theta_e
315 314 314 314 313 313 312 311 311 311 310 311 312 313 314 313 314 314 313 312 311 311 310 309 308 308 308 308 308 308 308 309 311 311 312 313 313 314 314 314 315 316
317 315 315 314 313 313 312 311 311 311 310 311 312 312 313 313 313 313 312 312 312 312 311 310 308 309 310 310 309 308 308 308 309 309 310 310 311 312 312 312 313 314
317 316 315 314 314 312 312 313 313 312 311 312 312 312 312 312 312 312 312 312 312 312 311 309 309 309 309 309 308 308 308 308 308 308 308 309 309 309 310 310 310 311
317 316 315 314 314 313 312 313 313 312 312 312 312 311 312 312 312 312 312 312 313 312 310 309 310 309 308 307 306 306 307 307 308 308 307 308 308 308 308 308 308 309
316 316 315 314 315 314 313 313 313 312 312 312 312 312 312 312 312 312 312 312 312 310 309 309 310 309 307 306 305 304 305 305 306 306 306 306 306 306 307 307 307 307
316 315 315 315 315 314 313 313 312 312 312 312 312 312 312 311 312 312 312 311 310 309 309 309 308 308 306 306 305 305 305 305 305 305 305 305 305 305 305 305 305 305
317 316 316 316 316 315 313 312 312 312 312 311 310 310 310 311 312 311 309 308 309 309 309 308 308 307 306 305 305 305 305 305 305 305 305 305 305 304 304 304 304 304
318 317 316 316 316 314 313 312 312 312 312 310 308 308 309 310 310 308 307 307 308 308 308 307 307 306 305 305 305 305 305 305 305 305 305 305 305 304 304 303 304 304
318 318 316 316 315 314 313 312 312 312 311 310 308 308 309 309 308 307 307 308 308 308 307 306 306 305 305 305 304 304 304 304 304 304 304 304 304 304 304 304 304 304
318 318 316 315 314 313 312 312 312 312 311 309 308 308 308 308 307 307 308 308 308 307 306 306 305 304 304 303 303 303 303 303 303 303 303 303 303 303 303 304 304 304
319 318 316 315 314 313 312 311 312 311 310 308 308 308 308 308 308 308 308 308 307 306 305 305 304 304 303 303 303 303 302 302 302 302 302 302 302 303 303 303 303 303
318 317 316 315 314 313 312 311 311 310 309 308 308 309 309 309 309 308 308 307 306 305 305 304 303 303 303 303 302 302 302 302 302 302 302 302 302 302 302 302 303 303
318 318 317 316 314 313 312 311 311 310 309 309 309 310 309 309 308 308 307 306 305 304 303 303 303 302 302 302 301 301 301 301 301 301 301 302 302 302 302 302 303 302
318 317 317 316 315 313 312 312 311 310 310 310 310 310 309 309 308 307 306 305 304 303 303 302 302 302 301 301 301 300 300 300 300 300 300 300 301 301 301 302 302 302
317 317 316 315 314 313 312 312 311 311 310 310 310 310 309 308 307 306 305 304 303 302 302 302 301 301 301 301 300 299 299 298 298 298 298 298 299 299 299 300 300 300
316 316 316 315 314 313 312 312 311 311 310 310 310 309 308 307 306 305 303 302 302 302 302 301 301 300 300 299 299 298 298 298 298 298 298 298 298 298 298 298 298 299
316 316 316 315 314 313 312 312 311 310 310 309 309 308 307 306 305 304 303 302 302 301 301 300 300 299 299 298 298 298 298 298 298 298 298 298 298 298 297 298 298 298
316 316 315 314 314 313 312 311 311 310 310 309 308 307 307 306 304 303 302 302 301 300 299 299 299 298 298 298 298 298 298 298 298 298 298 297 298 297 297 297 297 297
316 315 314 314 314 313 312 311 310 310 309 308 308 307 306 305 303 302 301 300 299 298 298 298 297 297 297 297 297 297 297 297 297 297 297 297 297 297 297 297 297 296
315 315 314 314 313 312 311 310 309 309 308 308 307 306 305 304 302 301 299 298 298 297 297 296 296 296 296 296 296 296 296 297 297 297 297 297 297 296 296 296 296 296
314 314 314 313 312 311 310 309 308 308 308 308 306 305 304 302 301 299 298 297 297 296 295 294 294 294 294 294 294 295 295 295 296 296 296 296 296 296 296 296 295 295
313 314 314 312 311 310 309 308 308 308 308 307 305 304 302 301 300 299 297 296 295 294 293 293 293 293 293 293 293 293 294 294 294 294 295 295 295 295 295 295 295 295
313 313 312 311 310 309 308 308 308 308 307 306 304 303 301 300 299 298 297 296 294 293 292 292 292 292 292 293 293 293 293 293 293 293 294 294 294 294 294 294 295 294
313 312 311 310 308 308 307 308 308 307 306 305 303 302 301 299 298 297 296 295 293 292 292 292 292 292 292 292 292 292 292 292 292 293 293 293 293 294 294 294 294 294
311 311 310 308 307 307 307 307 307 306 305 304 302 302 300 299 298 297 295 293 293 292 291 291 292 292 292 292 292 292 292 292 292 292 292 292 293 293 293 293 293 293
310 310 309 307 307 307 307 306 305 303 303 302 301 300 299 299 298 297 295 293 293 291 290 290 291 291 291 292 291 291 291 291 291 291 291 292 292 292 292 292 292 292

ECMWFNIL_925_thetae_003.txt.gz
Theta_e
313 315 316 315 314 312 311 311 310 309 308 307 308 308 309 310 311 312 312 313 312 311 311 310 308 306 306 305 305 306 307 307 307 307 307 308 308 308 308 309 310 310
314 314 314 314 314 313 311 311 312 311 309 308 308 308 310 312 312 313 313 313 312 311 311 311 308 306 305 306 306 306 305 305 306 306 307 307 307 307 307 307 308 308
315 315 314 314 313 312 312 312 312 312 310 309 308 309 311 312 312 313 313 312 312 312 312 311 308 306 306 307 306 305 304 304 304 305 305 305 305 305 305 305 306 306
315 315 315 314 313 312 312 312 312 312 311 310 309 309 311 312 312 312 312 312 312 312 312 310 308 307 307 307 306 305 304 304 304 304 304 304 305 304 304 304 304 304
317 316 316 315 314 313 313 313 313 312 311 311 310 310 311 312 311 312 312 312 312 312 311 309 307 307 307 307 306 305 304 304 304 305 304 305 305 304 304 304 304 304
317 317 316 315 314 314 314 314 313 312 311 311 311 311 311 311 311 311 311 311 312 311 310 308 307 308 307 307 306 305 304 304 304 304 304 304 304 304 304 304 304 304
318 317 316 315 315 315 315 314 312 312 312 312 312 311 312 311 311 311 311 311 311 309 308 308 308 308 307 306 305 304 304 304 304 304 304 303 303 303 303 303 303 303
319 318 317 316 316 315 314 313 312 312 313 313 312 312 312 312 311 311 311 310 309 308 308 308 308 307 306 306 305 304 303 303 303 303 302 302 302 302 302 302 302 302
318 318 317 316 316 314 314 313 313 313 313 312 312 312 312 311 311 311 310 308 307 307 308 307 307 307 306 305 303 303 303 302 302 302 302 302 302 302 302 302 302 302
316 317 316 316 315 315 314 314 313 313 312 312 312 311 311 311 311 310 308 307 307 307 307 307 307 305 304 303 303 302 302 302 302 301 301 301 301 301 302 302 302 301
315 315 315 315 315 315 315 314 313 312 312 311 311 310 310 310 310 308 307 307 308 308 307 306 305 304 303 303 302 302 301 301 300 300 300 300 300 301 301 302 302 301
316 315 315 315 315 315 315 314 313 312 312 311 310 310 310 310 309 308 308 308 308 307 306 305 304 303 303 302 302 301 301 300 300 299 299 298 299 299 300 301 301 301
318 317 316 315 315 315 315 314 312 312 312 311 310 310 310 309 309 308 308 308 307 306 304 303 303 302 302 301 301 301 300 299 299 298 298 297 298 298 298 298 299 299
317 318 317 316 316 315 314 313 312 312 311 310 310 310 309 309 309 309 308 306 305 304 303 302 302 301 301 301 300 300 299 299 298 298 297 297 297 298 297 297 297 298
317 317 317 316 315 314 313 312 312 311 311 310 310 310 309 309 309 308 306 305 303 302 302 301 301 301 300 299 299 298 298 298 298 298 298 297 298 298 297 297 297 297
317 316 315 315 314 314 313 312 311 311 310 310 310 310 309 309 307 306 305 303 302 302 301 300 300 299 298 298 297 297 297 297 297 297 297 297 297 297 297 297 297 297
316 314 314 315 314 314 313 313 311 311 310 310 310 309 309 308 306 305 304 302 302 301 300 299 298 296 296 295 295 295 295 296 296 296 296 296 297 297 297 297 297 297
314 313 314 315 314 314 314 313 312 311 310 310 310 309 308 307 305 304 303 302 301 300 299 297 295 294 293 293 293 293 293 294 294 294 294 295 295 296 296 296 296 296
314 314 313 314 314 314 314 312 311 311 310 310 309 308 307 306 305 303 302 302 300 298 297 295 293 292 291 291 292 292 292 293 293 293 293 293 293 294 294 295 295 295
315 315 314 313 314 314 313 312 311 311 310 309 309 307 306 305 304 303 302 300 299 297 295 293 292 291 291 290 291 291 292 292 292 292 292 292 292 292 293 293 294 294
314 314 312 312 313 313 312 312 311 310 310 310 308 307 306 304 303 302 301 299 297 296 294 292 292 291 291 290 291 291 291 291 292 292 292 292 292 292 292 292 293 293
313 312 310 310 311 311 311 311 311 310 310 309 308 306 305 304 303 301 300 298 296 295 293 292 292 292 290 290 290 291 291 291 291 291 292 292 291 291 291 292 292 293
312 311 310 309 310 311 311 311 310 309 309 308 307 305 304 303 302 301 299 298 296 294 293 292 292 291 290 290 290 290 291 291 291 291 291 291 291 291 291 291 291 292
311 312 311 310 310 311 310 309 309 308 308 307 306 305 303 302 302 300 299 297 295 294 293 292 292 291 290 290 290 290 290 291 291 291 291 291 291 291 291 291 291 291
312 312 311 310 310 308 305 306 308 308 307 306 305 304 303 302 301 300 298 297 295 294 293 293 292 291 291 290 290 290 290 290 291 291 291 291 290 290 290 290 290 290
311 310 310 309 308 306 304 306 307 307 306 305 304 303 303 301 300 299 298 296 295 294 294 293 292 291 291 291 290 290 290 290 290 291 291 290 290 290 290 290 290 289

ECMWFNIL_925_thetae_006.txt.gz
Theta_e
312 311 311 311 312 311 310 309 308 307 306 306 307 307 308 310 310 311 311 311 311 311 311 311 308 306 305 305 305 304 303 303 304 304 304 304 304 304 304 304 305 305
312 311 311 311 312 312 311 310 310 309 308 307 307 307 308 309 309 310 310 311 312 311 311 311 309 306 305 306 306 305 303 303 303 303 304 304 304 304 304 304 304 304
312 311 311 312 312 313 312 311 310 310 310 309 308 307 308 308 309 310 311 312 312 312 312 311 309 306 306 306 306 305 304 304 304 303 304 304 304 304 304 304 304 304
312 312 312 312 313 313 313 312 311 310 310 310 308 308 308 309 309 310 312 312 312 311 312 311 308 306 306 307 306 305 304 304 304 303 303 303 303 303 303 303 303 303
313 313 313 313 313 314 314 313 312 311 311 310 310 308 308 309 310 311 312 312 312 312 312 310 308 307 307 307 306 305 304 303 303 303 302 302 302 302 302 302 302 302
314 314 314 314 314 314 314 313 313 312 311 311 310 309 309 309 311 311 311 312 311 311 311 309 307 307 307 306 306 305 304 303 302 302 302 302 302 301 301 301 301 301
315 314 314 314 314 314 314 313 313 312 311 312 311 310 310 310 311 311 311 311 312 311 309 308 307 307 306 306 306 305 303 302 302 301 301 300 300 300 300 301 301 301
316 315 315 315 315 315 315 314 313 312 311 312 312 310 310 310 311 311 311 311 311 310 308 306 306 306 306 306 306 304 303 302 301 300 300 299 299 299 299 300 300 301
317 316 315 315 315 315 315 315 313 313 312 312 312 311 311 311 311 311 311 311 311 309 307 306 306 306 306 306 305 304 302 301 300 300 299 299 298 297 298 298 299 300
318 317 316 315 316 316 316 315 314 313 313 313 312 311 311 311 311 311 311 311 310 308 306 305 306 306 306 306 304 303 302 301 300 300 299 299 298 297 297 297 297 298
318 316 316 316 316 316 315 315 314 314 313 313 311 311 311 311 311 311 311 311 309 307 306 306 306 307 306 305 303 302 301 300 300 299 299 298 297 297 297 297 297 297
318 317 316 315 316 316 316 315 314 314 313 312 312 312 312 311 311 311 310 309 307 306 306 307 307 306 304 303 302 301 300 300 299 298 298 298 297 297 297 297 297 297
318 317 316 316 316 316 315 314 314 314 313 312 312 312 312 311 311 310 309 308 307 307 307 307 305 303 302 301 301 300 299 299 298 298 298 297 297 297 297 297 297 297
318 318 317 315 315 314 313 313 313 313 313 312 312 312 311 311 310 309 309 308 307 307 306 304 302 301 301 300 300 299 298 298 297 297 297 297 297 297 297 297 297 297
317 317 316 315 314 313 314 314 313 313 313 312 312 311 310 310 309 309 308 307 307 305 303 302 301 301 300 299 298 297 296 296 295 295 295 295 295 295 295 296 296 296
317 317 317 315 314 314 314 314 313 313 312 311 311 311 310 309 309 308 308 307 305 303 302 301 300 299 298 297 296 294 293 293 293 293 293 293 293 294 294 294 294 295
317 317 316 315 314 313 313 313 313 312 311 310 311 310 309 309 308 308 306 305 303 302 301 300 299 298 297 294 293 292 291 292 292 292 292 292 292 293 293 293 293 293
317 317 315 314 313 313 312 312 311 311 310 310 310 309 309 308 307 306 304 303 302 301 300 299 299 297 294 292 291 291 291 291 291 291 292 292 292 292 292 292 292 292
317 316 315 314 314 313 312 311 310 310 310 310 310 309 309 308 306 305 303 302 301 301 300 299 298 295 293 292 292 291 291 291 291 291 291 291 291 291 291 291 291 291
316 316 314 313 313 312 310 309 308 308 309 309 309 308 307 306 305 304 303 302 301 301 300 299 296 293 292 293 293 291 291 291 291 291 291 291 291 291 291 291 291 291
315 315 313 312 311 310 309 307 307 307 308 308 308 308 307 306 304 303 302 301 301 301 299 297 294 293 293 293 293 292 291 291 291 291 290 290 290 290 290 291 291 291
315 314 313 311 310 310 308 307 308 309 309 309 308 307 306 305 304 303 303 301 300 300 297 295 294 294 294 294 293 292 291 291 291 290 290 290 290 290 290 290 291 291
314 313 312 311 310 309 307 307 309 309 309 308 308 306 305 305 304 303 302 301 300 298 296 295 295 294 294 294 293 292 291 291 291 290 290 290 290 290 290 290 290 290
313 313 312 311 309 308 307 307 308 309 309 308 307 306 305 304 303 302 301 300 299 297 296 296 296 295 294 294 293 292 291 291 290 290 289 289 289 290 290 290 290 290
313 313 312 311 309 308 307 307 308 309 308 307 307 306 305 304 303 302 301 299 298 297 296 296 296 295 295 294 293 292 291 291 291 290 289 289 289 289 290 290 290 290
312 312 312 310 309 307 307 308 308 308 307 307 307 306 305 304 303 302 300 299 298 297 297 296 296 295 295 294 293 292 291 291 291 290 290 289 289 289 289 289 290 290

ECMWFNIL_925_thetae_009.txt.gz
Theta_e
315 315 315 314 311 310 309 307 306 306 307 308 308 308 309 310 310 311 312 312 311 310 310 307 305 305 305 304 303 304 305 304 304 305 305 306 306 306 306 306 305 305
316 317 317 316 313 311 310 309 307 306 306 307 307 307 308 310 311 312 312 312 311 311 310 308 306 305 305 304 303 304 305 304 304 305 305 306 306 306 306 306 305 305
317 318 318 316 313 311 310 310 309 307 306 306 307 308 308 309 310 311 312 313 312 311 311 309 307 306 305 305 304 304 304 305 305 305 305 305 305 306 305 305 305 305
317 317 317 315 313 311 311 311 311 309 307 307 307 308 308 308 309 311 312 313 312 312 311 309 307 306 306 305 305 304 304 304 304 304 305 304 304 304 304 304 304 304
317 317 316 314 312 312 311 311 311 311 309 307 307 308 308 309 309 310 312 313 313 312 311 310 307 306 306 305 305 304 304 304 303 304 304 304 304 303 303 303 304 304
316 316 316 314 312 311 311 311 312 312 311 309 308 308 308 308 309 309 311 312 312 312 311 310 308 306 306 306 305 305 305 304 303 303 303 303 303 303 302 303 303 303
316 315 315 314 313 312 312 311 312 312 313 311 309 308 308 308 309 309 310 312 312 312 311 310 307 306 306 306 305 305 304 303 302 302 303 302 302 302 302 302 302 303
314 314 314 314 313 312 312 312 312 313 313 312 310 309 309 308 309 309 311 312 312 312 311 309 307 306 306 306 305 304 303 302 302 302 302 302 302 301 301 301 301 302
314 313 314 314 313 313 313 313 312 313 314 314 312 311 310 309 309 310 311 312 312 311 310 308 307 306 306 305 305 304 303 302 302 302 302 301 301 301 300 300 301 301
316 314 314 314 314 314 314 313 313 313 313 314 313 312 311 310 310 310 311 311 311 311 309 307 306 306 306 305 305 304 303 302 302 301 301 301 301 300 300 300 300 301
317 316 316 315 315 315 315 314 314 313 314 314 314 312 311 311 310 310 311 311 311 311 309 307 306 306 306 305 304 303 302 301 301 301 301 300 300 300 300 300 300 300
318 317 317 316 316 315 315 315 314 314 314 314 314 312 311 311 311 311 311 311 311 310 308 306 306 306 305 304 303 302 301 301 300 300 299 299 299 299 299 299 299 299
318 318 318 318 317 316 315 315 314 314 314 313 312 311 311 311 311 311 311 311 311 309 307 306 306 305 304 303 302 301 301 300 299 298 297 296 296 296 297 298 298 298
318 318 318 318 318 317 315 315 315 314 314 313 312 310 311 311 311 311 311 311 310 308 306 306 305 305 303 303 302 301 300 299 297 295 294 294 294 295 295 296 296 297
317 317 317 318 318 317 316 315 315 314 314 313 312 311 311 311 311 311 311 310 308 307 307 306 305 304 303 302 301 300 299 297 295 293 293 293 294 294 294 294 295 295
314 316 316 317 317 316 316 316 315 314 314 313 312 311 311 311 310 311 311 309 308 307 306 305 304 304 303 302 300 299 297 294 293 292 293 293 294 294 294 294 294 295
312 315 316 316 316 316 315 315 314 314 312 312 311 310 310 310 310 310 310 308 307 306 305 304 303 302 301 300 298 296 294 292 292 293 293 293 294 294 294 294 294 294
310 314 315 316 316 315 315 314 313 312 311 310 310 309 309 310 310 309 308 307 306 304 303 303 302 301 300 297 295 294 292 292 292 293 293 294 294 294 294 294 294 294
308 312 315 315 315 315 314 313 312 311 310 309 309 309 309 310 309 308 307 306 305 303 303 302 301 300 298 295 294 293 293 293 292 292 293 293 293 293 293 293 293 293
306 310 314 315 314 314 314 312 311 310 309 309 308 308 308 309 308 307 306 305 304 303 303 301 300 298 296 294 294 294 293 292 292 292 292 292 292 292 292 292 292 293
307 310 313 314 314 314 313 312 311 309 309 308 308 308 308 307 307 306 305 304 303 303 302 300 298 296 294 294 295 294 293 292 292 291 292 292 292 292 292 292 292 292
307 310 312 313 313 313 312 311 310 309 308 308 307 307 306 307 306 305 304 303 303 302 301 299 297 295 294 295 295 294 293 293 292 292 292 292 292 292 291 291 292 292
307 309 311 312 312 312 312 311 309 309 308 307 307 306 305 306 305 304 304 304 303 301 300 298 295 294 295 295 294 294 293 293 292 293 293 293 292 292 292 292 292 291
306 308 310 311 312 312 312 311 309 308 307 306 306 305 305 305 305 304 304 303 302 300 298 296 295 295 295 294 294 294 294 293 293 293 293 293 293 293 292 292 292 291
306 307 309 311 311 311 312 311 309 307 306 305 305 304 304 304 304 304 302 301 301 299 297 296 296 296 295 295 294 294 294 293 293 293 293 293 293 293 293 293 292 292
306 307 308 310 311 311 311 310 308 307 305 304 304 305 305 304 303 303 301 300 299 298 297 297 297 297 296 295 294 295 295 294 292 293 294 294 293 293 293 293 293 292

ECMWFNIL_925_thetae_012.txt.gz
Theta_e
324 323 322 320 318 318 319 318 318 318 317 318 319 318 318 316 315 316 317 316 315 314 313 312 312 311 311 311 311 311 312 312 312 312 312 312 312 312 312 311 311 311
324 323 323 322 319 319 320 319 317 317 317 318 318 318 319 317 316 317 317 316 315 314 314 313 312 312 311 311 311 311 312 312 311 311 312 312 312 312 312 311 311 311
321 321 321 322 322 321 321 319 317 317 317 318 318 319 320 319 317 317 317 316 316 315 314 313 312 312 312 311 311 311 311 311 311 311 311 311 311 311 311 311 310 310
319 320 320 321 322 323 322 320 318 317 317 318 319 319 320 319 318 318 317 317 316 316 315 314 312 312 311 311 311 311 311 310 310 310 310 310 309 310 309 309 309 309
320 320 321 322 322 323 322 321 319 317 317 318 319 319 319 319 318 318 318 317 317 316 315 314 313 312 312 311 311 311 311 310 309 310 310 309 308 308 308 308 309 308
321 320 321 323 323 323 323 321 319 318 317 318 318 318 318 318 318 318 318 317 317 316 315 314 314 313 312 312 311 311 311 310 309 308 309 309 308 307 307 307 307 307
321 320 321 322 323 323 323 322 320 319 318 317 318 317 317 318 318 317 317 317 317 316 315 314 314 313 312 312 311 311 310 310 309 308 308 308 307 307 307 306 306 306
320 320 321 322 322 323 323 322 321 320 319 318 318 317 317 317 317 317 317 317 317 316 315 315 314 313 312 311 311 311 310 309 308 308 308 307 307 307 306 306 306 306
321 320 321 322 323 322 323 322 321 321 320 319 319 318 317 317 317 317 318 317 317 317 315 315 314 313 312 311 311 310 310 309 308 308 308 307 307 306 305 306 306 306
322 321 321 321 323 323 322 322 321 321 320 320 319 318 318 317 317 317 317 317 317 316 316 315 314 313 312 311 311 310 309 309 308 308 307 307 306 305 305 305 305 305
322 322 322 322 323 323 323 322 322 321 320 320 319 318 319 318 317 318 317 317 317 317 316 315 313 312 312 311 310 309 309 308 307 307 307 306 306 305 304 304 304 304
322 322 322 322 323 323 323 322 322 321 321 320 319 319 319 319 318 318 318 317 317 317 316 315 313 312 311 310 310 309 308 307 307 307 306 305 305 304 303 303 303 303
322 322 323 323 323 323 323 323 322 321 321 320 319 319 319 319 319 318 317 317 317 317 315 314 313 312 311 310 309 308 308 307 307 306 305 304 303 302 302 302 301 302
317 319 321 322 322 323 323 323 322 322 321 320 319 319 319 319 318 317 316 316 316 316 315 314 313 312 311 310 309 308 307 307 306 305 303 303 302 301 301 300 300 300
312 314 317 319 321 321 322 322 322 322 321 320 319 319 319 319 317 316 317 317 316 316 314 313 312 311 310 309 308 307 307 305 304 302 301 301 300 300 300 300 299 299
311 313 315 317 319 320 320 321 322 321 321 320 320 319 319 318 317 317 317 316 316 315 313 312 311 310 308 307 307 306 305 303 302 301 300 300 300 300 300 300 299 299
310 312 314 315 317 318 319 320 321 321 320 320 320 319 318 316 317 317 316 315 315 313 312 311 310 308 307 305 304 303 303 302 301 300 299 299 299 299 299 299 299 298
307 309 311 313 316 317 318 319 320 319 319 319 319 319 317 316 316 316 315 315 314 313 312 310 308 306 305 303 302 301 300 300 300 299 299 299 299 299 299 298 298 298
306 307 309 311 314 316 317 318 318 318 318 318 319 318 317 317 316 315 314 313 313 312 310 308 306 305 304 302 301 298 296 297 299 299 298 298 299 298 298 298 298 297
306 307 308 310 312 315 316 317 317 317 317 317 317 317 317 317 316 315 314 313 312 311 308 306 304 303 302 301 299 296 294 295 298 298 297 298 298 298 298 298 297 297
307 307 308 309 310 313 315 316 316 317 316 316 316 316 316 316 315 314 313 311 310 309 307 304 303 302 301 299 296 295 294 295 297 298 298 298 298 298 298 297 297 297
308 307 308 309 309 311 313 315 315 316 315 315 315 315 314 314 314 312 312 310 309 307 305 303 302 301 299 296 295 295 295 295 298 299 298 298 298 298 297 297 297 297
308 308 308 309 310 310 312 314 315 315 314 314 314 314 313 312 312 311 310 309 307 305 303 302 300 298 296 295 295 295 295 296 298 298 298 298 298 298 298 297 297 297
307 307 308 309 310 310 311 313 314 314 314 313 313 313 312 311 310 309 307 307 305 304 302 301 299 296 294 295 295 295 295 296 298 298 297 298 297 297 298 298 297 297
307 307 308 308 309 310 312 313 314 313 313 313 313 312 310 309 308 307 305 304 303 302 301 299 297 294 294 295 295 294 294 296 297 297 297 297 297 297 297 297 297 297
307 308 308 309 310 311 312 313 313 312 312 312 311 309 308 307 306 305 303 303 302 301 299 297 296 295 295 295 295 294 294 294 295 296 296 297 297 297 297 296 296 296

ECMWFNIL_925_thetae_015.txt.gz
Theta_e
321 321 320 319 319 320 319 319 319 320 319 319 320 320 319 318 317 318 319 318 317 316 315 315 315 314 314 315 315 314 314 315 315 315 315 315 315 315 315 315 314 314
323 322 321 320 318 319 320 319 319 320 319 319 320 320 319 318 317 318 319 318 316 316 315 315 315 314 314 314 314 314 314 314 314 314 315 315 315 315 314 314 313 313
324 324 323 322 319 318 320 320 319 320 319 319 320 320 321 319 317 318 319 318 317 317 316 316 315 315 314 314 314 314 315 315 314 314 314 314 314 314 314 314 312 312
325 325 325 324 322 320 322 322 320 319 319 319 320 320 321 320 318 319 319 318 318 317 317 316 316 315 314 314 314 314 314 315 314 314 314 313 313 313 313 312 312 311
325 326 325 324 323 322 323 323 321 319 318 319 320 320 322 321 319 319 319 318 318 318 317 317 316 315 314 314 314 314 313 313 314 314 314 313 312 312 313 312 312 311
324 325 324 323 323 323 323 324 322 320 319 319 320 320 321 322 319 319 319 318 318 318 318 317 316 315 315 314 314 314 313 313 313 313 313 313 312 311 311 312 312 312
323 324 324 323 323 323 324 324 323 321 319 320 321 321 322 322 320 319 319 319 318 318 318 317 317 316 315 315 315 315 314 314 313 311 312 312 312 311 310 310 310 310
322 324 325 324 324 324 325 325 323 321 320 320 320 321 321 322 320 319 319 319 318 318 317 317 316 316 315 315 315 314 314 314 312 311 311 311 311 311 310 310 310 310
322 323 323 323 323 322 323 324 323 321 322 322 321 321 321 321 320 319 319 319 319 318 318 317 316 316 316 315 314 315 314 313 312 311 311 312 311 310 310 310 310 310
324 324 323 323 323 321 322 323 323 321 321 321 321 320 320 320 320 319 319 320 319 319 318 318 317 316 316 315 314 314 314 313 312 312 312 312 311 310 309 309 309 309
324 324 324 324 323 321 320 321 322 321 321 321 321 321 320 320 320 319 320 320 320 319 319 319 318 317 316 315 314 314 314 313 312 311 311 311 310 310 309 308 308 309
324 324 324 325 323 322 321 321 322 323 323 322 322 321 320 319 320 319 319 319 320 320 319 319 318 318 317 316 315 314 314 313 312 311 311 310 310 309 308 308 307 307
319 320 322 323 324 323 322 322 322 323 324 323 322 321 320 319 319 320 320 319 320 320 319 319 319 318 317 316 315 314 314 312 311 311 310 309 309 308 307 307 306 306
310 311 313 316 319 320 321 323 324 324 323 322 321 321 321 320 320 321 321 320 320 320 319 319 319 318 317 316 315 314 313 312 311 311 310 309 308 306 306 305 304 304
309 309 310 312 315 317 318 320 322 323 323 322 321 320 321 321 321 321 321 321 321 320 319 319 319 318 318 316 315 314 313 312 312 310 310 309 307 305 305 304 303 304
310 312 312 313 315 316 317 318 319 320 322 322 322 321 321 322 321 322 322 321 321 320 319 319 319 318 317 316 314 313 313 312 311 309 308 307 306 305 305 304 303 303
309 310 311 312 313 314 316 317 318 319 320 320 322 322 322 322 322 322 322 321 320 319 319 319 318 317 316 315 313 312 312 311 309 308 306 306 305 305 304 304 303 303
307 308 308 309 310 311 314 315 317 318 319 319 319 320 321 322 321 321 321 320 320 319 318 318 317 316 315 313 311 310 310 308 308 306 305 304 304 304 303 303 303 302
307 307 307 308 308 309 311 313 315 317 318 318 318 319 320 321 321 321 320 320 319 318 317 316 315 314 313 311 310 309 307 306 306 305 304 304 304 303 303 302 302 301
307 307 308 308 308 308 309 310 312 314 316 317 317 317 319 320 321 321 320 320 318 317 317 316 313 311 311 309 308 307 305 304 304 304 303 302 303 302 302 301 301 301
308 308 308 308 308 308 309 309 310 312 314 316 316 316 316 318 319 320 320 319 318 317 317 313 310 310 309 308 306 305 302 302 303 303 301 301 301 301 301 301 301 301
308 308 308 308 307 308 308 309 309 311 313 315 316 315 316 316 317 318 319 318 317 317 315 310 308 308 307 305 303 301 298 299 301 302 301 301 301 301 301 301 300 300
308 308 308 308 308 307 308 308 309 310 312 313 315 315 315 315 315 316 317 317 316 316 312 307 306 306 304 301 299 297 296 299 301 301 301 301 301 301 301 301 301 301
308 308 308 308 308 307 307 308 308 309 310 313 314 314 314 314 314 315 316 315 316 314 309 305 304 301 299 298 297 296 297 299 301 301 301 301 301 301 301 301 301 300
308 308 308 308 308 308 308 308 309 309 310 312 313 313 313 313 313 314 314 313 312 309 306 305 302 298 295 296 296 296 297 299 300 300 300 300 301 300 300 300 300 300
307 308 308 309 309 309 310 310 310 310 310 312 312 312 312 312 313 313 311 308 307 305 303 303 300 296 294 296 295 295 296 298 298 298 298 299 300 299 299 299 299 299

ECMWFNIL_925_thetae_018.txt.gz
Theta_e
321 320 320 320 321 321 321 321 321 321 321 321 320 319 318 318 318 318 319 318 317 316 315 316 315 315 315 315 315 315 315 315 315 315 315 313 313 313 313 312 313 316
321 321 320 320 321 321 320 320 321 321 320 321 321 320 319 318 317 318 319 318 317 316 315 316 315 314 314 315 315 314 314 314 315 315 316 315 314 314 313 312 312 314
321 321 321 320 320 320 320 320 321 321 320 320 321 321 320 319 317 318 320 318 317 316 316 316 315 314 315 314 314 315 315 315 315 314 313 314 314 314 313 313 312 312
322 321 321 320 319 320 320 320 320 321 320 319 321 321 321 319 317 319 320 318 317 317 316 316 316 315 315 314 314 315 315 315 315 313 313 313 313 313 312 312 312 311
323 323 323 322 321 320 320 320 320 320 320 319 320 321 322 321 318 318 320 318 318 318 317 316 316 316 315 314 314 315 314 315 314 313 315 314 312 312 312 312 312 311
325 324 325 325 324 322 322 322 321 321 320 319 320 320 321 322 320 319 320 319 318 319 318 317 316 316 315 313 314 314 314 313 313 313 315 314 312 312 312 312 313 311
326 326 326 325 324 323 322 324 323 321 321 319 320 320 321 322 321 320 320 320 319 319 319 318 317 316 315 314 315 315 313 314 313 313 313 313 312 311 311 311 310 310
325 325 324 324 324 323 323 324 323 322 322 321 320 319 319 321 322 321 320 320 320 319 319 319 318 317 316 315 315 315 314 315 314 312 312 313 312 311 311 310 309 309
324 323 323 323 323 322 322 323 324 324 324 322 320 319 319 320 321 322 321 320 320 319 319 319 318 317 317 315 316 316 315 315 314 312 312 313 312 311 311 310 310 310
323 322 323 323 323 321 321 322 323 324 324 323 321 320 320 320 321 321 321 320 320 320 319 319 318 318 317 316 316 315 315 315 314 312 312 313 312 311 311 310 311 311
323 322 322 323 324 323 323 322 322 323 324 323 322 322 321 321 321 321 321 320 320 320 320 319 319 318 317 317 316 316 315 315 314 313 312 313 312 311 311 310 310 310
324 323 323 323 324 323 322 321 321 323 323 322 322 323 323 321 320 319 320 320 320 319 320 320 319 319 318 318 317 316 315 315 314 313 313 313 312 311 311 309 309 309
322 322 322 323 324 324 323 322 322 322 322 321 320 322 322 321 320 320 319 320 320 319 319 320 320 319 319 318 317 316 315 315 314 313 313 312 312 311 310 309 308 308
317 319 319 319 321 321 321 323 324 323 323 322 321 321 321 320 319 320 319 319 320 320 319 319 319 320 319 318 318 317 316 315 315 313 312 312 311 310 309 308 308 307
311 313 313 312 313 313 314 316 320 321 321 322 322 321 321 319 318 320 321 320 319 319 319 319 319 319 319 319 319 318 316 315 314 313 312 311 311 310 308 307 307 305
311 311 311 312 313 313 313 315 317 317 318 319 321 321 321 320 320 320 321 321 320 319 319 319 319 318 318 319 319 318 317 315 314 313 312 312 311 309 307 307 306 305
310 311 312 312 313 313 314 315 316 317 318 319 319 320 321 322 321 321 321 321 320 320 320 319 319 318 319 319 319 318 317 315 314 313 312 311 310 308 307 306 305 305
307 308 309 309 309 310 310 311 313 315 317 318 318 319 321 322 322 322 322 322 321 321 320 319 319 319 319 319 318 317 316 315 314 313 311 310 308 307 306 306 305 305
307 307 308 307 308 309 309 309 311 312 314 315 316 318 318 319 321 322 322 322 322 321 321 320 319 319 319 319 317 316 315 314 313 311 309 308 307 306 306 305 305 304
308 308 308 308 308 308 308 309 309 310 311 312 314 316 317 317 318 320 321 322 321 321 320 320 319 319 318 317 316 314 314 312 310 308 307 306 306 306 305 304 303 303
308 308 309 309 308 308 308 308 309 309 309 310 312 314 316 316 316 318 319 321 320 320 320 319 318 317 316 315 313 313 312 310 307 306 306 305 304 304 304 303 302 302
308 309 309 309 308 308 308 308 308 308 309 309 310 312 314 315 315 316 317 319 319 320 320 318 317 315 314 313 312 311 310 308 305 304 304 303 303 303 303 302 302 302
307 308 309 309 309 308 308 308 308 307 308 308 309 311 313 314 315 315 316 316 317 319 318 317 315 313 311 311 310 310 309 306 304 303 303 302 301 302 302 302 302 302
307 308 308 308 308 308 308 307 307 307 308 308 308 309 312 313 314 314 315 314 316 316 316 315 314 310 308 308 309 308 306 304 303 302 302 301 302 302 302 302 302 302
307 307 308 308 308 308 308 308 308 308 308 308 308 309 311 312 313 313 313 314 315 315 314 313 312 308 305 306 306 304 303 302 301 302 302 301 301 302 301 301 301 301
306 307 307 308 309 309 309 309 309 309 309 309 309 309 311 312 312 312 313 312 313 313 311 310 310 306 302 301 301 300 300 301 300 300 300 300 300 300 300 300 299 299

ECMWFNIL_925_thetae_021.txt.gz
Theta_e
319 319 320 319 319 321 321 320 321 320 320 320 318 317 317 315 315 317 316 315 313 311 311 313 313 315 315 315 314 311 310 312 313 311 308 307 309 312 314 314 313 312
318 319 320 320 320 321 321 321 321 320 320 321 319 318 318 316 316 317 315 312 310 309 309 309 310 313 314 315 313 310 311 313 315 315 312 309 309 310 313 314 313 312
319 319 321 320 320 320 321 321 320 320 320 321 320 319 319 317 315 317 316 314 311 309 308 308 309 313 314 314 313 312 313 315 316 315 313 311 310 308 310 313 313 313
319 319 320 321 320 319 320 321 320 320 320 321 321 320 320 318 316 316 317 315 313 312 310 308 308 312 314 313 314 314 314 314 314 312 312 312 311 307 307 310 312 312
321 320 320 320 321 320 318 321 321 319 320 320 321 320 320 319 318 317 318 317 315 314 313 311 309 312 315 313 314 315 314 314 312 311 312 311 310 307 306 309 310 311
321 321 320 318 320 321 319 320 321 320 319 319 321 321 320 320 319 318 318 317 317 316 316 314 312 313 315 313 313 314 314 314 312 313 314 311 310 310 309 310 311 311
323 323 323 321 320 322 319 319 320 321 320 319 320 321 320 321 321 320 319 318 317 317 317 317 315 314 315 313 313 314 314 314 312 313 315 312 311 312 311 310 311 311
325 324 325 324 323 323 321 320 320 320 320 320 320 321 321 321 321 321 320 319 318 317 318 318 317 316 316 314 313 314 314 314 313 313 314 313 312 312 310 309 310 310
324 323 323 323 323 323 323 323 322 321 321 321 321 321 321 321 321 321 321 320 319 319 319 318 319 318 316 315 314 314 314 314 313 313 312 313 313 311 310 310 309 308
323 322 322 323 322 323 323 323 323 322 323 322 321 321 320 321 322 322 322 321 320 320 320 319 319 319 318 317 316 314 314 315 315 314 312 312 313 312 311 311 310 308
322 322 321 321 321 322 322 322 322 322 323 323 322 322 320 320 321 322 322 322 321 321 320 320 319 319 318 318 317 316 315 315 315 315 313 311 312 312 310 310 311 310
321 321 320 320 321 322 321 321 320 320 321 320 320 320 319 319 320 320 320 320 321 320 321 320 319 319 319 318 317 317 316 315 315 315 314 312 312 312 311 310 310 310
322 322 321 321 322 322 322 321 320 320 320 319 319 320 319 318 317 318 317 318 318 319 320 320 320 319 319 318 318 317 316 316 316 315 315 313 312 312 312 311 310 309
322 322 323 323 324 324 323 322 321 321 321 320 321 321 319 318 317 317 317 316 317 318 319 320 320 320 319 319 318 317 317 316 316 316 315 314 313 312 312 311 310 309
321 321 321 322 322 322 322 323 322 322 322 322 322 322 321 321 319 319 318 318 318 319 319 319 319 319 319 319 318 318 318 317 316 315 315 314 312 312 311 310 309 309
314 314 315 315 315 316 317 318 318 318 318 319 319 320 320 321 320 319 319 319 320 320 320 320 320 319 319 319 318 318 318 318 317 316 315 313 312 312 311 310 309 308
310 310 311 311 312 313 313 314 314 315 316 316 316 317 318 319 320 320 320 320 320 320 320 320 320 320 320 319 318 318 318 318 317 316 314 313 312 311 311 309 308 307
307 308 309 309 310 311 312 312 313 314 315 317 318 319 319 320 320 321 321 321 321 321 321 321 320 320 320 320 319 319 318 318 318 316 314 313 312 311 311 310 308 307
307 307 307 307 308 308 309 309 310 310 310 312 314 316 318 320 320 321 321 321 321 321 321 321 321 321 321 320 319 319 318 319 318 316 314 313 312 312 311 309 308 307
307 307 307 308 308 308 308 308 308 308 308 308 309 310 313 316 317 318 320 321 321 321 321 321 321 320 320 320 319 319 318 318 317 315 314 313 312 311 309 308 307 306
307 307 308 308 308 308 307 307 307 307 308 308 308 309 310 312 314 316 317 318 318 319 320 320 320 320 320 319 319 318 317 316 315 313 312 310 309 308 307 306 305 305
307 307 308 308 308 308 308 307 307 307 307 307 308 308 308 310 312 314 315 316 317 318 319 320 320 319 319 318 316 315 314 314 312 310 309 308 307 306 306 305 304 303
307 307 308 308 308 308 308 307 307 307 307 307 307 307 308 308 310 312 313 314 316 318 319 319 319 319 318 315 313 312 312 311 309 308 307 306 305 304 304 304 303 303
306 307 308 308 308 308 308 307 307 307 306 306 306 307 307 307 308 311 313 313 314 315 316 317 318 318 316 313 310 310 310 308 306 306 305 304 303 303 302 302 302 302
306 306 307 307 308 308 308 307 307 307 307 307 307 307 308 307 308 310 313 313 313 314 314 315 316 315 313 310 308 308 308 306 305 304 303 302 302 302 302 301 301 301
306 306 306 306 306 307 307 307 308 308 308 308 308 308 308 309 309 311 312 312 313 314 314 314 314 313 309 307 307 306 306 305 304 303 302 301 300 300 300 299 299 298

ECMWFNIL_925_thetae_024.txt.gz
Theta_e
321 320 318 319 320 321 320 318 318 317 314 310 310 309 309 311 311 309 309 310 313 313 313 313 315 314 313 310 306 306 305 305 306 308 312 314 313 313 313 312 311 311
321 320 319 318 320 320 319 319 318 317 314 313 312 311 310 312 313 310 308 308 309 310 312 314 314 314 314 310 306 306 307 306 306 306 307 312 314 313 313 312 310 309
321 320 319 319 319 320 320 319 319 318 317 315 314 313 312 313 314 312 309 307 307 308 311 313 314 314 313 310 307 306 307 308 308 306 306 309 313 313 313 312 310 307
321 320 320 319 318 319 320 320 320 319 318 317 317 315 313 313 315 314 312 310 308 307 309 311 313 313 312 311 310 309 309 311 311 309 306 306 309 311 312 311 309 307
321 320 319 319 319 320 321 320 320 320 320 319 318 317 315 314 315 315 314 312 310 309 309 309 311 313 313 312 312 312 311 312 312 310 308 306 306 308 311 311 309 307
321 319 319 320 319 319 320 321 320 320 320 320 319 319 318 316 315 315 315 314 312 312 311 310 310 312 314 313 313 314 313 311 311 310 310 309 308 308 310 310 310 309
320 319 320 321 320 319 320 321 321 320 320 320 319 319 319 318 317 317 316 316 315 314 314 313 311 311 313 312 312 314 314 313 311 310 311 312 310 310 310 311 311 311
320 320 319 320 320 320 319 320 321 320 320 320 320 319 320 319 319 319 319 318 318 317 316 316 315 314 314 313 312 312 313 313 313 310 311 313 312 311 310 309 310 310
322 321 320 320 320 320 320 320 321 320 319 319 320 320 320 320 320 320 320 319 319 319 318 317 317 316 316 315 314 313 312 313 313 311 312 313 312 312 311 309 309 309
322 321 321 321 321 321 320 320 321 320 319 319 320 320 321 320 320 320 320 320 320 320 319 319 318 318 317 317 316 315 313 313 313 312 312 312 312 312 312 311 310 309
321 321 320 321 321 321 321 321 322 321 320 320 320 321 321 321 321 320 320 321 320 320 320 319 319 319 318 318 317 317 316 314 314 313 313 313 312 312 312 312 311 310
320 320 320 320 320 320 320 321 322 322 321 321 321 320 320 320 320 321 321 321 321 320 320 320 319 319 319 319 318 318 317 316 315 314 314 314 313 312 311 312 311 310
319 320 320 320 319 319 320 320 320 322 322 322 322 321 321 320 320 320 321 322 321 320 320 320 320 320 319 319 319 318 318 317 316 315 314 315 314 313 311 311 311 310
320 320 321 320 319 319 320 320 320 321 321 321 321 320 319 319 319 319 319 320 320 320 319 319 319 318 319 319 319 318 318 317 317 316 315 315 315 314 312 312 311 310
321 321 321 321 321 321 322 322 321 321 321 321 320 320 319 319 319 319 319 318 319 318 318 317 317 317 318 319 319 318 318 317 317 316 315 315 315 315 313 312 312 311
322 323 322 322 321 320 319 319 319 320 321 320 320 321 321 321 321 321 321 320 320 319 319 319 318 318 319 319 319 318 318 318 317 316 316 315 315 314 313 312 312 311
319 318 319 318 317 314 313 314 314 316 316 316 317 318 318 318 318 319 319 320 320 320 320 320 320 320 320 319 319 319 318 318 318 317 317 316 316 315 313 312 312 311
311 312 313 312 312 311 312 313 313 314 314 314 315 315 316 317 317 318 319 319 320 320 320 321 320 320 320 320 320 320 319 319 318 318 318 317 316 315 314 313 312 311
307 308 309 309 309 310 311 311 311 311 311 311 311 311 313 315 317 318 319 319 320 320 321 321 321 320 320 321 320 320 319 319 318 318 318 317 316 315 313 312 311 310
306 307 308 307 308 308 308 308 308 308 308 308 308 308 309 311 313 315 317 317 318 320 321 321 320 320 320 320 320 320 319 319 318 318 318 317 317 315 313 312 310 309
307 307 307 307 307 307 307 307 307 307 307 307 307 307 308 308 309 310 313 314 316 318 320 320 319 319 319 319 319 319 318 318 318 318 317 316 315 313 311 310 308 307
307 307 307 308 308 307 307 306 306 307 306 306 306 306 306 307 307 308 309 312 314 316 318 319 318 317 317 317 318 318 318 317 316 315 315 314 312 311 309 308 308 308
307 306 307 308 308 308 307 307 306 306 306 306 305 305 305 306 306 307 307 309 312 314 315 317 317 316 316 316 317 317 316 315 314 313 311 311 310 309 308 308 306 306
306 306 307 308 308 308 307 307 307 307 307 306 305 304 305 306 307 307 307 307 310 313 314 314 315 316 316 316 316 316 315 314 312 310 308 307 307 306 305 304 304 303
306 306 306 307 307 307 308 307 307 307 307 306 306 305 305 306 306 306 307 307 309 312 314 314 314 315 315 315 314 313 313 312 310 309 307 305 304 304 302 302 302 302
306 306 306 306 306 306 307 306 307 307 306 307 307 307 307 307 306 306 307 309 309 311 314 315 314 314 313 313 312 311 310 310 309 308 306 304 303 302 302 301 301 301

ECMWFNIL_925_thetae_027.txt.gz
Theta_e
319 319 318 317 316 316 319 320 317 315 315 314 313 313 312 314 314 314 313 310 309 310 311 310 308 305 305 305 304 304 308 312 314 314 313 313 312 312 311 311 311 311
320 319 319 317 315 316 318 319 316 314 314 314 312 312 312 313 314 313 310 309 309 309 309 310 309 307 305 304 304 304 304 306 309 313 313 313 312 311 310 308 308 309
320 320 319 317 315 315 317 319 317 315 314 313 312 311 312 313 313 312 311 309 309 308 308 309 309 309 307 305 305 305 304 303 306 309 312 312 312 311 309 307 306 307
320 320 320 318 316 314 316 318 318 316 316 313 311 311 312 313 313 312 311 311 310 309 310 310 310 310 308 306 305 305 305 305 305 306 309 311 311 311 310 308 307 308
320 320 320 319 318 315 315 317 317 317 317 315 313 311 311 312 313 312 310 310 311 311 311 312 312 311 310 308 307 306 305 304 305 305 305 307 309 310 309 307 306 308
320 320 320 319 318 317 315 316 317 318 318 317 316 313 312 312 313 313 311 309 309 309 311 312 312 312 311 310 310 309 307 305 305 306 305 305 306 308 309 307 306 307
321 320 320 319 319 318 317 317 318 319 319 319 318 316 315 313 312 313 312 310 309 308 309 309 310 310 311 311 311 311 311 309 307 307 307 307 306 307 308 308 308 308
321 320 320 319 319 318 318 318 319 320 319 319 319 318 317 316 314 314 314 313 311 310 310 309 309 310 311 312 311 312 312 312 311 310 310 310 309 308 308 308 309 308
321 320 320 319 319 319 318 317 319 320 320 320 320 319 318 318 316 316 315 315 315 314 314 313 312 311 312 312 312 311 312 312 312 311 310 311 312 310 309 308 308 308
320 320 320 320 319 319 319 318 319 320 320 319 319 318 318 317 317 317 317 317 317 317 318 317 316 314 313 313 313 312 312 312 312 312 311 311 311 312 311 310 309 308
321 320 320 320 320 320 320 319 319 319 320 320 319 319 318 317 316 317 317 318 318 318 319 318 318 317 316 315 314 314 313 313 312 313 312 312 311 312 312 312 311 310
321 320 320 321 320 320 319 318 319 319 320 320 319 320 319 318 318 317 317 317 319 319 319 319 319 318 317 317 316 316 315 314 314 314 313 313 312 312 312 312 312 311
321 320 320 321 321 321 320 319 319 320 320 320 319 319 319 319 319 318 316 317 318 319 319 319 319 319 318 318 318 317 317 316 316 315 314 314 313 313 313 312 311 311
320 320 320 320 321 321 321 320 319 320 320 320 320 319 320 320 319 319 318 317 318 319 319 319 319 319 319 319 319 318 318 318 317 317 316 315 314 314 313 313 312 311
319 319 320 320 320 320 320 320 320 320 319 320 320 320 320 319 319 319 318 317 318 320 320 320 320 319 319 318 318 318 318 318 318 318 317 316 315 314 314 314 312 312
318 318 319 319 320 319 319 319 318 318 319 319 319 319 319 318 317 317 318 318 319 320 320 320 319 319 319 318 317 317 317 318 318 318 318 317 316 315 315 314 313 312
319 319 319 320 320 320 320 319 319 320 320 320 321 320 320 319 318 319 320 320 320 320 320 320 320 320 320 320 319 319 318 318 318 318 317 317 316 315 315 315 314 313
318 319 320 321 321 320 319 318 318 319 318 318 318 318 318 318 318 319 319 319 319 319 319 320 320 320 320 320 320 319 319 319 318 318 318 317 317 317 316 316 315 314
312 313 315 316 316 315 314 313 313 314 313 312 312 312 312 313 315 316 316 317 318 318 319 320 320 320 320 320 320 320 319 319 319 318 318 318 318 317 317 317 316 313
307 308 309 310 310 309 309 310 310 310 309 308 308 308 308 309 310 312 313 314 315 315 316 319 319 320 319 319 319 319 319 318 318 318 318 318 318 318 317 317 315 313
306 306 307 307 307 308 308 308 307 307 307 307 307 307 307 307 307 308 309 311 312 313 314 315 317 318 318 317 316 316 316 316 317 317 317 317 317 318 317 316 314 312
306 306 307 307 307 307 307 306 306 306 306 306 306 306 305 305 306 307 307 307 309 311 312 313 314 316 316 316 315 314 314 315 315 315 315 315 316 315 315 313 312 310
307 306 307 307 307 307 307 306 306 306 306 306 305 305 304 304 304 305 305 306 307 308 310 311 313 315 316 316 315 315 314 314 314 314 314 313 312 311 310 309 308 308
306 306 306 307 307 307 307 307 307 306 305 305 304 304 304 304 303 303 303 303 304 305 307 309 312 315 316 316 315 314 314 313 313 313 312 312 310 308 307 307 307 306
305 305 306 306 307 307 307 307 307 306 306 306 306 306 306 305 304 303 303 303 303 303 305 307 310 314 316 316 315 314 313 313 313 312 310 309 308 307 306 305 305 305
305 305 305 306 306 307 307 307 307 306 306 306 306 306 306 306 306 305 305 305 304 304 305 308 310 313 315 314 313 312 312 312 312 310 309 307 306 305 304 303 303 302

ECMWFNIL_925_thetae_030.txt.gz
Theta_e
320 320 318 314 312 312 312 313 313 315 315 314 314 313 314 315 315 315 313 311 310 308 307 305 305 305 305 307 310 312 314 314 313 313 312 312 311 310 309 309 308 306
320 319 317 315 314 314 314 315 314 314 314 313 314 313 313 314 314 314 313 312 311 311 310 308 305 304 303 304 305 306 308 310 311 312 311 310 310 307 306 306 306 304
319 318 317 317 315 314 317 317 314 314 314 313 313 312 312 312 313 314 314 313 313 312 313 312 308 305 304 304 304 303 306 308 310 311 310 310 308 305 303 305 306 305
318 318 317 318 317 315 318 316 309 311 315 313 313 312 310 310 312 313 313 314 313 313 313 314 313 309 307 307 305 304 305 307 310 311 311 311 309 305 305 306 307 307
318 318 318 318 317 315 317 314 307 310 315 314 312 311 309 309 310 311 311 312 313 312 312 313 314 312 309 308 308 307 306 307 309 310 310 311 310 307 307 307 308 308
317 318 319 320 318 316 316 313 307 311 315 315 314 311 309 309 309 310 309 309 310 310 311 312 313 313 311 310 310 309 308 308 308 308 308 309 310 308 307 307 307 307
318 319 320 320 319 317 316 313 310 312 314 316 317 315 313 311 310 311 311 311 311 310 310 311 312 313 312 312 311 311 311 310 308 308 307 306 308 309 308 308 307 305
318 320 320 320 320 318 317 316 315 314 314 316 318 317 316 315 313 313 313 313 314 312 311 311 311 312 312 312 312 312 312 311 310 309 308 307 308 307 307 308 308 307
317 318 318 320 320 318 318 318 317 316 315 316 318 318 317 317 316 315 314 313 314 314 313 311 310 311 312 312 312 312 312 312 311 311 310 310 310 309 307 308 308 308
317 316 317 319 320 319 318 318 318 318 318 318 319 319 318 318 318 317 316 316 315 315 315 314 313 312 312 312 312 313 313 312 312 312 312 311 311 310 310 309 309 308
316 317 318 320 320 319 319 318 318 318 318 319 319 319 319 319 319 318 317 317 317 317 317 317 316 315 314 313 313 313 313 312 312 313 312 312 311 311 311 311 310 309
318 319 320 320 320 320 319 319 318 318 319 319 319 319 319 318 319 319 318 317 317 317 318 318 318 317 316 315 314 314 314 315 314 314 314 313 312 312 312 312 312 311
319 319 320 320 320 320 319 319 319 319 318 318 318 318 318 317 317 318 319 318 317 317 317 318 318 318 317 316 315 315 315 316 317 316 316 315 314 313 312 312 312 312
319 319 319 320 320 319 319 319 319 318 316 317 318 318 318 318 318 319 319 318 317 317 318 317 317 317 317 317 316 316 316 318 318 318 317 317 316 315 314 313 313 313
320 320 320 320 320 320 319 319 319 318 318 318 319 319 318 317 318 317 317 316 316 318 318 317 317 318 318 318 318 317 317 318 318 318 317 317 317 317 315 314 314 314
320 320 320 320 320 320 320 320 319 319 319 319 320 319 318 317 317 317 316 316 317 318 318 318 317 318 319 319 318 318 318 318 317 317 317 317 317 317 317 316 315 315
318 318 318 319 320 320 320 319 319 319 318 318 319 319 319 319 319 319 318 318 318 318 318 319 319 319 319 319 319 319 319 319 318 318 318 318 318 317 317 317 316 315
318 318 318 318 319 318 319 319 318 319 318 319 319 319 319 319 318 318 319 318 318 318 319 319 319 319 319 320 320 319 319 319 319 319 319 319 318 318 318 317 317 316
320 320 319 319 320 320 320 319 318 318 318 318 317 316 316 315 316 317 318 318 318 318 318 318 319 319 320 320 319 319 319 319 319 319 319 319 318 318 318 318 317 317
315 315 315 317 319 319 317 315 314 314 314 313 312 311 312 313 313 314 314 315 316 316 317 317 318 319 319 319 319 318 316 315 315 316 316 317 317 317 318 318 317 317
308 308 309 311 312 313 311 310 310 311 310 309 308 308 308 308 308 309 309 310 311 313 314 315 316 317 318 318 317 316 315 313 313 313 314 315 316 316 316 317 317 317
306 306 307 308 308 308 309 309 309 308 307 306 306 306 306 306 306 306 306 306 307 309 310 312 314 315 316 317 317 315 315 313 312 312 312 313 314 314 315 315 316 315
306 306 306 307 307 307 307 307 306 306 306 306 305 304 304 304 303 303 304 304 304 304 305 307 309 312 314 316 316 316 315 314 313 312 311 312 313 313 313 312 312 311
305 306 306 307 307 306 306 306 306 306 306 305 305 304 304 304 303 303 303 304 303 303 303 303 304 307 310 313 315 316 315 314 313 312 311 311 311 311 311 310 309 308
305 305 305 306 306 306 307 306 306 306 306 305 305 305 305 305 304 304 305 305 305 304 303 302 303 305 307 311 314 315 314 313 312 312 311 311 310 310 308 307 306 306
306 305 305 306 306 306 307 307 306 306 306 306 306 306 305 306 306 306 306 306 305 304 303 303 305 307 308 311 313 314 313 312 312 311 310 310 308 307 306 305 304 304

ECMWFNIL_925_thetae_033.txt.gz
Theta_e
321 320 318 315 312 311 312 315 317 316 314 313 313 314 315 315 315 314 311 310 311 311 309 309 309 311 314 315 315 315 314 313 313 312 311 311 310 309 309 308 308 309
321 320 319 316 313 311 311 314 316 315 313 311 311 312 313 314 314 314 312 311 311 311 309 307 305 305 309 313 315 314 313 312 312 311 310 309 308 308 306 306 306 307
321 320 319 317 313 311 311 313 314 313 312 310 309 309 310 312 313 314 313 312 311 311 311 310 307 305 305 308 311 313 313 312 311 310 309 307 307 307 306 306 307 307
321 320 319 317 314 311 311 311 309 310 312 311 308 307 308 309 311 312 313 312 312 311 312 312 311 309 307 306 307 309 311 312 311 310 309 307 306 307 307 307 307 307
321 320 320 317 315 313 310 309 306 308 313 313 309 307 307 308 309 310 312 312 312 313 312 313 313 312 310 309 308 308 309 310 311 311 310 308 307 308 308 308 308 308
320 320 319 318 317 314 310 308 307 310 314 314 310 308 308 308 308 309 310 311 311 312 313 313 314 313 312 310 310 309 308 309 309 309 310 309 307 307 308 309 309 308
319 319 319 318 318 314 311 311 309 309 314 315 312 311 310 309 309 309 310 311 311 312 312 313 313 314 313 312 312 312 311 310 308 308 308 308 308 307 307 307 307 306
319 319 319 319 319 317 314 314 310 308 312 315 314 314 314 312 311 310 311 311 313 313 312 311 312 312 313 313 312 313 313 312 311 309 308 307 308 308 309 308 307 307
319 319 319 319 319 319 317 316 313 309 311 315 317 317 317 316 315 314 313 313 314 314 313 312 311 311 312 312 312 312 313 313 313 312 311 309 309 310 309 308 308 308
319 319 319 319 319 319 319 318 316 314 314 316 317 317 318 318 318 317 316 315 315 314 314 314 314 313 313 313 313 313 313 313 313 313 312 312 312 312 310 309 309 309
319 318 319 318 318 319 319 319 318 317 317 318 317 317 318 318 318 319 319 318 317 316 316 316 316 316 317 317 316 316 315 314 314 313 313 312 313 313 312 311 310 310
319 319 318 317 316 317 318 319 319 318 318 317 317 318 318 318 319 319 319 319 319 318 317 317 317 317 317 318 317 317 316 315 315 315 314 314 313 313 313 312 311 311
321 319 318 316 317 318 318 319 319 319 318 317 318 318 319 319 319 319 318 319 319 319 318 317 316 316 317 318 318 317 317 316 316 316 316 315 315 314 313 312 312 312
321 319 318 318 319 319 319 319 319 319 318 317 318 319 318 319 319 318 317 317 318 319 318 318 316 316 317 317 317 318 318 317 317 317 317 317 317 316 314 313 312 312
320 318 318 319 319 319 319 319 319 319 319 318 318 318 318 318 318 317 317 317 318 318 317 316 316 316 317 317 317 318 319 318 318 317 318 317 317 317 316 315 315 314
320 320 319 319 319 319 319 319 319 319 318 318 318 317 318 319 318 318 318 317 317 317 316 315 315 316 318 317 318 319 319 319 318 318 318 317 317 317 317 317 317 316
320 320 319 319 319 319 319 319 319 319 319 318 318 318 318 319 318 318 318 317 317 317 317 316 317 317 318 318 319 320 319 319 319 318 318 318 318 318 318 318 317 316
319 318 318 318 318 319 319 319 319 319 319 319 319 319 319 319 318 318 318 318 318 318 318 318 318 318 319 319 320 320 319 319 319 319 319 319 319 319 318 318 318 317
319 319 318 317 318 318 319 318 318 318 318 319 319 319 319 319 319 319 319 319 318 318 318 318 318 319 319 319 320 320 320 319 318 318 318 318 318 318 318 318 318 317
314 315 316 316 317 319 319 319 318 318 317 317 317 318 318 317 316 316 317 318 318 318 318 318 318 319 319 319 319 319 317 315 314 313 312 313 314 315 316 317 317 317
307 308 309 310 313 317 318 318 316 314 314 314 313 314 314 313 313 314 315 316 316 316 316 317 318 319 319 319 318 316 314 313 312 311 310 310 311 313 314 315 315 316
305 306 306 307 308 310 312 313 312 311 310 310 309 310 310 310 310 310 310 311 311 312 313 314 316 317 318 318 317 315 314 313 313 312 311 310 310 312 313 314 314 315
306 306 306 306 306 307 308 309 310 309 308 307 307 307 307 307 306 306 306 305 305 306 306 308 311 313 315 317 317 316 315 314 313 313 311 310 310 311 312 312 312 312
305 305 306 306 307 306 307 308 308 307 307 306 306 305 304 304 304 304 304 303 303 303 302 302 304 306 309 312 315 316 316 315 314 313 312 310 310 311 311 310 309 309
305 305 305 306 306 306 306 306 306 306 306 305 304 304 303 303 303 304 305 304 304 303 302 302 302 304 305 308 311 314 316 315 314 313 311 310 310 309 309 308 307 307
305 305 305 306 306 306 305 305 305 305 305 305 304 304 305 304 304 305 306 305 305 304 303 303 303 304 306 308 310 313 314 314 313 312 310 310 309 307 307 306 305 305

ECMWFNIL_925_thetae_036.txt.gz
Theta_e
329 327 326 324 321 321 320 319 318 318 318 318 319 319 319 320 319 317 316 315 315 314 314 314 315 317 318 318 318 317 316 317 317 317 317 316 316 317 317 318 317 316
329 327 325 323 321 320 320 319 318 317 317 317 318 319 319 319 318 317 316 315 314 314 313 313 314 315 316 316 317 316 315 316 315 315 315 315 315 315 315 316 316 315
327 326 325 323 320 321 322 320 319 318 317 317 317 318 318 319 318 317 316 316 316 316 315 314 314 314 314 315 316 315 315 315 314 313 313 314 314 314 315 314 315 315
325 324 325 322 318 319 321 321 321 319 319 319 317 316 317 318 318 317 317 317 317 318 317 315 314 314 314 314 314 315 314 314 314 313 313 313 314 314 315 314 315 315
323 324 326 323 318 318 320 322 322 319 319 321 319 316 316 317 318 317 317 318 318 318 318 317 316 316 315 315 314 314 314 314 314 314 313 313 314 314 314 314 314 315
325 325 326 324 320 319 320 321 319 316 318 321 320 317 317 317 317 317 317 317 317 317 318 317 317 317 317 316 315 314 314 313 314 314 313 313 313 313 314 314 313 314
326 327 326 325 323 321 321 321 318 317 319 321 321 320 318 317 317 317 317 317 317 317 318 318 317 317 318 318 317 316 315 314 314 314 313 312 312 312 313 313 312 312
327 327 327 326 325 323 323 321 318 319 320 320 321 321 319 318 318 317 317 317 316 317 317 317 317 317 318 318 318 318 317 316 316 315 314 314 314 313 312 312 313 312
327 326 326 327 326 324 323 321 319 318 319 321 321 320 319 319 318 318 318 317 317 317 317 317 317 317 317 318 318 318 318 318 318 317 316 316 315 314 313 313 313 314
326 326 326 326 326 325 323 323 321 317 316 320 322 321 321 320 319 318 318 318 319 319 319 319 319 319 319 319 319 319 318 318 318 318 317 317 317 317 315 315 315 315
325 325 325 326 326 326 324 324 323 321 318 319 321 322 322 321 321 320 320 320 320 320 320 321 320 320 320 320 320 320 319 319 319 318 318 318 318 317 317 316 316 316
325 325 324 325 325 325 325 324 324 324 321 320 320 322 322 323 322 322 321 322 321 321 321 321 321 321 321 321 321 321 320 320 320 319 318 318 318 318 316 316 316 316
325 324 324 324 324 324 324 324 324 324 323 322 320 321 322 323 322 322 322 322 322 322 321 322 322 322 321 321 321 321 321 321 320 318 318 318 319 319 318 317 316 316
325 325 324 324 323 323 323 323 322 323 323 322 322 322 321 322 322 323 323 323 323 323 322 323 323 322 321 321 321 321 321 321 321 320 320 320 321 320 320 319 318 317
325 324 324 324 323 323 323 322 322 323 324 323 324 324 323 322 322 322 323 323 323 323 323 323 322 322 322 321 321 322 322 322 322 322 322 322 322 322 321 320 320 319
324 324 324 323 323 323 322 322 322 323 324 325 325 324 323 322 322 322 323 323 322 322 323 323 323 322 319 317 319 321 322 322 322 322 322 322 322 322 321 321 321 320
323 324 323 323 323 322 322 322 322 323 324 324 324 323 323 323 323 323 323 323 323 322 323 323 323 321 317 315 316 318 320 322 323 322 322 322 322 322 322 321 321 320
322 322 322 322 322 322 322 322 321 322 323 323 323 323 323 323 323 322 322 322 322 322 322 322 322 321 317 316 318 318 319 321 323 323 323 323 322 322 322 321 321 321
321 322 322 322 322 322 321 322 322 322 322 323 323 322 321 322 321 320 321 321 320 320 320 321 321 320 318 317 318 319 319 320 322 322 321 321 321 321 320 320 320 320
316 318 319 320 321 322 321 322 322 322 322 322 321 320 319 320 319 318 318 318 318 319 320 320 321 320 319 318 319 320 319 318 319 320 319 318 318 318 318 318 318 318
311 312 313 315 318 320 321 321 321 321 321 320 319 318 317 316 314 314 314 315 317 319 321 321 320 319 319 319 319 319 316 314 316 317 315 315 316 316 316 317 317 317
310 310 310 312 313 315 317 318 319 319 319 318 317 317 317 315 313 313 314 315 316 318 319 319 319 319 319 319 319 317 314 313 315 315 314 314 315 314 315 315 316 317
309 309 309 310 310 311 312 313 315 316 317 316 316 316 317 316 315 316 315 314 315 316 317 317 318 319 319 319 317 315 314 314 315 314 314 315 314 313 314 314 313 314
309 309 309 310 310 309 310 311 314 315 315 315 314 314 315 314 313 313 313 312 313 313 313 314 314 315 318 318 317 316 315 315 314 314 315 314 313 313 312 311 311 311
309 309 309 310 310 310 311 312 313 313 313 312 312 312 312 311 310 309 309 309 308 305 305 309 308 307 310 314 316 316 316 315 313 314 314 314 313 312 311 309 309 308
307 307 308 309 310 310 311 311 311 312 311 311 310 309 309 308 307 308 308 308 306 302 303 307 307 303 302 306 309 313 315 315 313 313 314 314 312 311 310 308 307 306

ECMWFNIL_925_thetae_039.txt.gz
Theta_e
328 327 325 323 323 322 322 321 321 322 322 322 322 321 320 318 317 317 317 316 316 316 317 318 319 319 319 319 318 317 318 318 317 317 317 316 317 318 318 318 317 315
327 327 325 322 322 321 321 321 321 321 321 321 321 320 319 317 316 316 316 315 315 315 316 316 317 317 317 318 317 316 316 316 315 315 316 315 315 316 317 317 317 315
327 327 325 322 321 322 321 321 320 320 321 321 321 320 319 317 316 316 316 316 315 315 315 315 316 316 316 316 316 316 315 315 314 314 315 316 316 316 316 317 317 316
329 328 325 321 321 322 321 320 320 319 320 320 320 320 319 318 317 317 317 317 316 316 316 316 315 315 316 316 315 315 315 315 314 315 315 316 316 316 316 317 317 317
329 327 326 322 321 322 321 321 320 319 319 320 320 319 318 318 317 317 318 318 318 317 317 316 316 316 316 315 315 315 315 316 315 315 315 315 316 316 316 316 316 316
329 328 327 323 320 321 321 321 322 322 321 320 319 318 318 318 317 317 318 318 318 318 317 318 318 317 317 316 316 315 315 315 315 314 314 314 314 315 315 315 315 315
329 328 327 324 320 320 322 322 322 322 322 321 319 318 318 318 317 318 319 318 318 318 318 318 318 319 318 317 317 316 315 316 316 315 314 314 313 314 314 314 314 314
329 329 328 326 321 319 321 321 319 319 321 322 321 318 318 318 317 317 318 318 317 318 318 318 318 319 319 319 318 317 317 316 316 316 315 315 315 314 313 314 314 315
329 328 328 327 324 320 321 320 318 319 321 322 323 320 318 318 317 317 317 317 317 318 318 318 318 318 319 319 319 318 318 319 318 318 317 317 316 315 314 315 316 316
328 328 328 328 326 323 322 320 319 320 321 321 322 320 319 318 317 317 317 316 317 317 317 318 319 319 320 319 320 319 319 319 319 319 319 318 318 318 316 316 316 317
328 327 327 328 328 325 323 321 320 319 320 320 320 320 319 319 318 317 317 317 317 317 317 319 319 320 320 320 321 320 320 320 320 320 320 320 320 320 319 319 318 318
328 328 327 327 327 326 324 323 321 319 318 318 320 319 319 320 319 318 318 318 318 317 318 318 319 320 321 321 322 322 321 321 321 321 321 321 321 321 320 320 320 319
328 328 328 327 327 327 326 325 323 321 318 318 319 319 320 320 319 318 318 318 318 318 318 319 320 320 320 321 322 323 322 322 322 323 322 321 321 321 320 320 320 320
327 327 327 327 327 326 326 325 324 323 322 320 319 320 319 319 319 319 319 319 319 320 320 320 320 321 321 322 323 323 322 322 323 323 322 321 321 322 322 321 320 320
327 326 326 326 326 325 325 325 324 325 324 324 322 321 320 319 319 319 320 321 321 321 322 322 323 323 323 323 322 322 323 323 323 323 322 322 322 322 322 322 322 321
326 326 326 326 325 325 324 324 324 324 324 324 323 322 321 320 320 319 320 321 321 322 323 323 324 324 323 322 322 323 323 323 324 324 323 323 323 322 321 321 322 322
325 325 326 325 325 325 324 324 323 323 323 324 323 322 322 322 321 321 321 321 322 322 323 323 323 322 322 322 322 322 323 323 323 323 323 323 323 321 320 321 321 321
324 324 324 325 325 325 324 324 323 323 323 323 323 322 321 321 321 322 322 321 321 321 322 322 321 321 322 322 321 319 318 319 321 322 321 321 320 319 319 320 321 321
323 323 323 324 324 324 324 324 324 324 323 323 322 322 321 320 321 321 322 321 321 322 323 322 321 321 322 322 320 318 316 317 320 321 318 317 318 318 319 320 321 321
319 320 321 322 323 323 323 324 324 324 324 323 324 323 322 322 322 322 323 322 322 323 322 321 321 321 321 321 320 318 316 318 319 319 317 317 318 318 319 320 320 320
314 314 315 316 318 320 322 323 323 324 325 325 325 324 323 323 323 323 323 322 322 322 321 321 322 320 320 321 320 318 318 319 319 318 317 317 318 318 317 317 317 317
312 312 313 313 314 315 316 318 320 322 323 323 322 322 322 322 322 321 321 321 321 321 321 321 321 320 319 320 319 319 319 319 318 317 316 316 316 315 316 317 317 316
312 312 312 312 313 313 313 313 315 317 318 319 319 319 320 320 319 319 319 319 320 320 320 319 318 316 316 318 319 319 318 317 316 315 314 314 314 314 315 315 313 313
311 312 312 312 312 312 312 312 313 314 315 316 316 317 317 318 318 318 318 318 319 319 318 318 316 315 315 318 319 318 315 314 314 314 314 315 314 314 314 311 308 309
309 310 311 311 312 312 313 313 312 313 314 314 315 315 315 316 316 316 317 316 317 317 317 317 316 316 317 319 319 317 314 312 313 314 315 315 314 314 313 311 309 310
308 308 309 311 311 311 312 312 312 312 313 313 313 313 314 314 313 313 313 313 314 315 314 315 314 315 317 319 318 316 314 312 313 314 315 315 315 314 313 311 309 309

ECMWFNIL_925_thetae_042.txt.gz
Theta_e
327 325 324 324 324 325 324 323 323 323 324 324 322 320 319 319 319 318 317 318 318 319 319 319 319 319 318 317 317 317 317 316 316 316 317 317 317 317 316 316 315 315
327 326 325 324 324 324 323 322 323 323 324 324 322 320 318 318 317 316 316 316 316 317 318 318 318 318 317 317 316 316 315 316 316 316 316 316 316 317 317 316 316 316
327 326 324 323 323 322 322 322 322 323 323 323 321 319 318 317 316 315 315 316 316 316 316 317 317 317 317 316 315 315 314 315 316 316 316 316 317 317 317 317 317 316
328 326 323 323 322 321 322 322 322 322 322 322 321 319 317 316 316 316 316 316 316 316 316 316 316 317 316 315 315 315 315 315 316 316 316 317 316 317 317 317 316 316
327 326 324 323 322 322 322 321 321 321 322 322 321 319 318 317 317 317 317 316 316 316 316 316 316 316 315 315 315 316 315 315 315 315 316 316 316 316 315 315 316 316
327 326 324 322 322 322 321 321 321 321 321 322 320 319 318 317 318 318 318 318 317 317 317 317 317 316 316 316 316 316 315 315 315 315 315 315 315 315 315 314 314 315
328 326 324 321 321 322 321 321 321 320 321 321 319 319 318 318 318 318 318 318 318 318 318 318 318 317 317 317 317 316 316 316 315 315 313 314 315 315 314 315 314 315
328 327 325 322 321 322 322 322 322 321 321 320 319 319 318 318 318 318 318 318 318 318 318 319 319 318 318 318 316 316 316 316 316 316 315 315 315 314 314 315 315 315
327 327 326 323 321 321 322 323 322 322 321 319 318 319 318 318 318 318 319 318 318 318 318 318 319 319 319 318 317 317 318 317 317 317 316 316 315 314 314 316 316 315
328 327 327 325 320 321 322 322 321 321 321 321 321 319 318 318 317 317 318 317 318 318 318 318 318 320 320 319 319 318 318 319 319 318 317 317 316 316 316 316 317 317
329 328 328 326 322 320 322 320 318 320 321 323 323 320 318 318 317 317 317 317 318 318 318 319 319 319 320 320 319 320 319 320 319 319 319 318 319 319 319 317 318 318
329 329 329 328 325 323 322 320 319 320 321 321 322 321 319 319 318 317 317 317 318 317 318 319 318 319 320 320 320 321 321 321 320 320 320 320 320 320 320 319 319 319
329 328 327 327 326 325 324 322 320 320 320 319 320 320 319 320 319 318 317 317 317 317 317 318 318 319 319 319 321 322 322 322 321 322 321 321 321 321 320 321 320 320
326 326 326 325 326 326 324 322 321 320 319 318 319 319 319 320 319 319 318 318 318 317 317 318 318 319 319 320 321 322 321 322 322 322 322 322 322 322 321 321 320 320
325 326 326 325 326 325 324 323 323 322 321 320 320 320 321 321 319 319 318 318 318 317 318 320 319 319 319 319 320 321 321 321 321 322 322 321 321 321 321 321 321 320
325 326 326 326 326 325 324 324 324 324 323 323 323 322 322 322 320 320 319 319 319 320 320 320 320 319 319 319 321 322 321 322 322 322 321 320 320 320 320 321 321 321
324 325 326 326 326 325 324 324 325 325 324 324 324 323 322 321 320 320 320 319 320 321 321 321 320 320 319 319 321 322 322 322 322 322 321 320 320 321 319 319 320 320
324 324 325 325 325 325 324 324 325 325 325 324 324 324 322 321 320 320 320 320 319 320 321 321 321 320 319 318 319 321 322 322 321 320 320 320 320 321 320 319 319 319
323 323 324 324 324 324 324 324 325 324 324 325 325 324 323 322 321 321 320 320 319 321 323 322 322 321 320 318 317 318 320 321 320 319 318 319 320 320 319 319 319 318
320 320 321 322 323 323 323 323 323 323 324 324 323 323 323 322 321 321 320 320 320 322 323 324 322 321 320 319 318 317 319 320 320 318 318 318 318 318 317 318 318 318
315 315 315 317 319 320 321 322 323 323 323 323 323 323 323 323 322 322 321 321 322 323 323 324 323 321 320 320 319 319 320 320 319 318 318 317 317 316 317 318 318 317
313 313 313 313 314 315 316 317 320 322 323 323 323 323 322 322 322 322 320 319 321 322 323 323 323 321 321 320 320 320 320 319 318 318 318 316 316 316 316 317 317 316
312 313 313 313 313 313 314 313 314 317 318 320 321 321 321 321 321 321 319 318 320 322 323 323 322 321 321 321 320 319 319 319 319 318 317 316 316 316 317 318 318 317
309 311 311 312 313 313 313 313 313 314 314 316 317 318 318 319 320 320 320 320 320 321 321 321 321 321 320 320 319 318 319 319 318 317 316 316 316 316 317 317 315 314
307 308 309 310 312 312 312 313 313 313 313 313 314 315 316 316 318 318 318 318 319 320 320 320 321 319 318 317 318 318 319 318 317 316 317 316 315 314 314 312 310 311
306 307 308 308 309 310 310 311 311 312 313 313 313 314 314 315 315 316 316 317 317 318 318 319 319 318 315 314 315 318 319 316 314 315 316 314 314 314 312 309 309 311

ECMWFNIL_925_thetae_045.txt.gz
Theta_e
323 322 322 322 323 323 323 324 325 325 325 323 321 321 322 322 321 320 320 320 320 321 320 318 318 318 318 318 317 316 317 318 318 317 316 315 315 315 315 315 315 315
323 323 322 323 323 323 324 323 324 325 324 322 320 320 320 319 319 319 318 318 319 319 319 317 317 316 316 316 316 316 315 315 316 316 316 316 316 316 315 315 314 314
324 323 323 324 324 324 323 322 323 324 323 321 319 318 318 317 316 316 317 318 318 318 318 317 316 316 315 315 316 316 315 316 316 316 316 316 316 316 315 314 314 313
325 323 322 324 324 323 322 322 323 324 322 320 319 318 317 316 315 315 316 317 317 317 317 316 316 314 314 314 314 315 315 315 315 314 314 315 315 315 315 315 314 313
325 324 323 323 323 323 322 322 323 323 322 321 319 317 316 315 316 315 315 315 316 316 316 316 315 315 314 314 315 315 315 315 315 314 314 315 315 315 316 316 315 314
325 324 323 323 322 322 321 322 322 322 321 321 319 317 316 316 316 315 315 316 316 316 316 316 315 314 315 315 315 315 315 315 315 315 315 315 314 314 314 315 315 315
326 324 323 322 322 321 321 321 321 322 321 320 319 317 317 317 317 316 317 316 316 316 316 315 315 315 316 315 315 314 315 315 315 314 315 315 314 314 314 314 314 314
327 324 322 322 322 321 321 320 321 321 321 320 319 318 317 317 318 318 317 317 316 317 317 316 316 316 317 316 315 315 316 315 314 314 315 314 314 315 315 314 313 313
327 325 323 322 322 321 320 320 321 321 321 320 319 318 317 317 318 318 318 318 318 318 318 318 317 317 317 316 315 316 316 315 314 314 315 314 313 314 314 314 313 312
328 326 323 321 322 321 321 321 320 320 320 319 319 319 318 317 318 318 318 318 318 318 318 318 318 318 318 316 315 316 317 317 316 315 314 315 314 314 315 315 316 314
326 326 323 322 322 321 322 322 321 320 320 318 318 318 318 318 318 317 318 318 317 318 318 318 318 319 319 318 316 317 318 317 317 316 316 318 317 317 316 316 317 317
325 325 323 322 323 322 323 323 322 321 319 319 320 318 317 318 318 317 317 318 317 318 317 318 318 318 319 319 319 319 319 319 319 318 318 319 319 319 318 318 318 318
325 325 323 321 322 322 322 321 320 320 320 321 322 320 317 318 318 316 316 317 317 318 318 318 318 318 318 319 319 319 320 320 320 320 320 321 321 320 320 319 319 319
324 325 325 321 320 321 320 319 319 320 320 321 322 321 318 319 319 317 316 317 317 317 317 318 318 318 319 319 320 321 321 321 321 321 321 321 321 321 321 320 320 320
324 326 326 323 321 321 320 318 318 320 321 320 321 321 319 319 319 318 317 317 317 317 317 318 318 318 319 320 320 321 322 322 321 322 322 322 321 321 321 321 321 320
324 325 325 324 324 323 321 319 318 320 321 321 321 321 321 320 320 319 319 318 318 319 318 318 318 319 319 318 320 321 321 321 321 321 321 321 321 320 320 320 321 320
324 324 324 324 323 323 322 321 321 321 322 322 322 322 322 321 320 320 319 319 319 320 320 319 319 319 319 319 319 319 320 320 321 321 322 321 320 319 319 319 320 320
323 323 323 323 323 322 322 321 322 323 323 322 323 323 322 322 321 320 320 319 319 319 319 320 320 320 320 319 319 319 319 321 322 322 322 322 321 320 319 319 319 319
322 321 322 322 321 321 321 321 323 324 324 323 323 323 323 323 322 321 321 320 320 320 319 319 319 320 319 320 320 319 319 321 321 321 321 321 321 320 319 319 319 319
320 320 321 321 321 321 321 322 323 324 324 324 324 323 323 323 323 322 322 321 320 320 320 319 319 319 319 320 321 320 319 320 320 320 320 320 320 320 318 318 318 318
312 314 316 318 320 320 322 323 323 323 324 323 323 323 323 322 322 322 322 322 321 321 320 320 319 319 320 321 321 320 319 319 319 319 320 320 319 318 317 317 317 318
307 309 311 312 314 315 317 319 321 323 323 323 322 321 321 321 321 321 321 321 321 321 321 322 321 321 322 322 321 320 320 319 319 319 320 319 318 317 317 316 317 317
305 306 308 309 310 311 312 313 315 318 320 322 322 320 320 319 318 318 319 319 320 320 320 321 322 323 323 323 322 321 321 320 320 320 320 318 318 317 317 316 317 317
304 305 306 307 308 308 309 310 311 312 313 316 317 317 318 318 318 317 317 317 319 319 319 320 321 322 323 322 322 321 321 320 320 319 318 318 318 317 316 316 316 316
304 304 304 305 305 305 307 308 309 309 310 311 311 312 314 316 318 319 318 317 317 318 318 319 320 321 321 321 321 321 321 320 320 319 319 319 319 317 316 315 315 315
303 303 303 303 303 304 304 305 305 306 307 308 309 310 311 312 314 316 318 318 317 316 316 317 319 320 320 320 320 319 319 319 319 318 319 319 319 317 316 315 314 315

ECMWFNIL_925_thetae_048.txt.gz
Theta_e
324 324 323 322 322 324 324 324 324 324 324 324 323 322 322 321 321 322 322 320 319 320 320 320 320 321 321 322 323 323 319 316 316 316 315 316 316 316 317 318 320 322
324 323 322 321 323 324 323 323 324 324 324 322 320 321 321 321 320 320 321 320 318 318 319 319 319 319 318 318 320 320 317 315 316 315 315 315 315 315 315 315 316 316
323 322 321 321 322 324 323 324 325 324 323 321 321 322 322 321 320 319 320 320 318 317 318 318 317 316 315 315 316 317 316 316 316 315 314 314 314 314 314 314 314 313
322 321 321 321 322 323 324 325 325 323 322 321 321 320 320 320 320 318 318 319 318 316 316 316 315 315 315 315 315 315 315 316 316 315 315 314 313 313 312 313 314 313
322 321 322 322 323 323 323 324 324 323 321 320 319 318 317 317 317 317 317 318 318 317 316 315 314 315 316 315 314 313 314 315 315 314 314 313 313 312 311 311 312 313
322 322 323 323 323 323 322 323 323 322 319 319 318 316 314 315 315 316 317 317 317 316 315 314 314 314 314 314 313 312 312 313 313 313 313 313 314 314 313 312 312 313
322 323 324 324 323 322 322 323 322 321 319 318 317 315 314 315 315 316 316 316 316 316 315 313 313 314 314 314 313 313 313 313 313 313 313 313 314 315 314 313 312 312
323 323 323 323 322 322 322 322 322 321 319 318 316 314 315 315 314 314 315 316 316 315 315 314 314 315 315 315 314 314 314 314 315 314 313 313 314 314 314 314 313 313
323 323 323 322 322 321 322 322 321 320 319 318 316 315 316 316 315 314 315 316 316 315 315 314 314 315 315 315 314 315 315 315 315 315 314 313 313 313 313 313 313 313
323 322 322 321 321 321 321 321 321 320 319 318 317 316 316 317 316 316 316 316 315 316 315 315 315 315 315 314 315 315 314 314 314 314 314 314 313 313 313 312 312 312
323 322 321 321 321 320 320 321 321 320 319 319 317 317 316 317 318 317 316 316 316 316 316 316 317 316 315 315 316 316 314 313 314 314 313 313 313 313 314 314 313 313
323 322 321 321 321 320 320 321 321 320 319 319 318 317 316 317 318 318 317 317 317 317 316 317 317 317 317 315 315 316 315 314 315 315 315 315 314 314 316 316 317 316
323 322 322 322 321 321 321 320 320 320 319 318 318 318 317 317 318 318 318 318 318 318 317 317 318 318 318 316 315 316 317 316 316 316 318 318 316 315 316 317 317 318
323 323 323 322 322 322 321 321 320 320 319 318 318 319 317 317 318 318 318 318 318 317 317 318 318 318 319 318 317 317 318 318 318 318 319 319 319 318 317 318 318 318
323 323 322 321 322 322 321 321 321 320 319 319 320 321 318 317 318 318 317 317 317 317 317 317 318 317 318 319 319 319 319 319 319 319 319 319 320 320 319 319 319 319
322 323 322 321 322 321 320 320 321 321 321 320 321 322 320 319 319 318 317 316 317 317 317 317 318 318 318 318 319 319 320 320 321 320 320 320 320 320 320 320 320 320
323 323 323 322 322 322 320 319 320 321 322 322 321 321 321 320 320 318 317 317 317 317 317 317 318 318 318 318 319 319 320 321 321 321 321 321 321 321 321 321 320 320
322 323 323 323 323 323 322 320 320 320 321 322 323 323 322 322 321 320 319 319 318 318 319 319 319 318 318 319 320 320 320 321 321 321 321 321 321 321 321 320 320 319
321 322 322 323 322 322 322 322 321 320 322 323 323 323 323 323 322 322 321 320 320 319 319 319 319 319 319 319 319 319 319 320 320 320 320 320 320 321 321 321 320 319
317 319 321 321 321 320 321 321 321 321 322 322 322 323 323 323 323 323 322 322 321 321 320 320 319 319 320 320 319 319 319 319 319 319 319 319 320 321 321 321 321 320
309 311 313 314 315 316 317 319 320 320 320 320 321 321 321 321 321 321 321 321 321 321 321 321 320 320 319 319 320 320 320 320 319 319 319 319 320 320 320 320 320 320
304 305 305 306 307 308 309 312 314 316 317 318 319 320 320 320 321 321 320 320 319 320 320 320 320 320 320 320 320 321 321 320 320 319 319 319 319 319 319 319 319 319
303 303 303 304 304 305 305 305 307 307 308 310 311 313 314 315 316 318 319 319 319 319 318 318 319 319 320 320 321 322 322 321 320 320 319 319 319 318 318 318 318 318
302 302 302 303 303 303 303 304 304 304 304 305 305 306 307 308 310 312 314 317 318 318 318 318 317 317 318 320 321 322 322 322 321 320 320 319 319 319 319 319 318 317
301 301 301 301 301 302 302 302 303 303 303 303 304 304 305 306 306 308 309 312 314 316 317 318 317 317 316 318 320 322 322 322 321 321 320 320 320 319 319 318 317 316
300 300 300 300 300 301 301 301 301 302 302 303 303 303 303 304 304 305 306 307 308 309 312 314 316 317 317 316 317 319 320 321 321 321 320 320 319 319 319 318 317 316

ECMWFNIL_925_thetae_051.txt.gz
Theta_e
323 323 324 324 324 323 324 324 324 323 323 323 324 324 324 323 321 321 323 324 323 322 321 321 322 324 325 325 325 324 324 324 323 323 323 322 322 322 324 324 324 324
323 322 323 323 323 323 323 324 324 323 323 323 323 323 323 322 321 321 321 323 323 322 320 320 321 322 323 324 321 320 320 319 318 318 318 317 317 319 321 323 324 324
323 322 323 322 322 323 325 325 324 323 323 323 322 322 322 321 321 321 320 320 321 321 319 319 319 319 321 322 319 317 316 315 315 315 315 315 315 316 318 320 323 324
323 323 322 322 322 324 325 324 324 323 324 322 320 320 321 320 320 320 319 318 319 319 318 318 318 316 318 319 317 315 315 315 314 314 314 314 314 314 314 316 319 322
323 323 322 322 323 324 323 323 324 324 323 321 320 320 321 320 319 319 319 318 317 318 318 317 315 314 315 317 316 315 315 315 314 314 314 313 313 313 313 313 315 317
322 322 322 322 323 323 323 324 324 324 323 321 320 320 320 320 319 318 318 317 316 316 316 315 314 313 314 315 315 315 315 314 314 314 313 312 312 313 312 312 313 314
322 322 321 322 323 323 324 325 324 324 322 320 320 319 318 318 318 317 317 318 317 316 315 314 314 314 314 314 314 315 315 314 314 313 313 312 312 312 313 312 312 313
322 321 322 322 323 323 323 324 324 324 322 320 319 317 315 314 315 316 317 317 317 315 314 314 314 314 315 314 313 314 314 314 314 313 313 314 314 313 313 313 313 313
321 321 323 323 323 322 322 322 323 323 321 319 318 316 313 313 314 315 317 317 316 315 314 313 313 313 314 314 313 313 314 314 314 313 313 314 314 314 313 313 313 313
321 322 323 323 322 321 321 322 323 322 320 319 317 315 313 314 314 314 315 316 315 315 314 313 313 314 314 314 314 314 314 314 314 313 313 313 314 313 313 313 313 314
321 322 323 323 322 320 319 321 322 321 319 318 316 314 314 315 314 313 315 316 315 315 314 313 314 315 314 314 314 314 314 314 314 314 313 313 313 313 313 313 312 312
322 322 322 322 322 320 319 322 322 320 319 318 316 315 315 315 314 313 314 315 316 315 315 314 314 315 315 314 314 315 315 314 314 314 314 313 313 312 314 315 313 312
321 321 321 321 321 321 321 321 321 320 319 318 317 315 315 316 316 315 315 315 315 315 315 315 315 316 316 315 314 315 315 313 313 314 314 313 313 313 314 316 316 315
321 321 320 318 319 321 321 321 320 320 319 318 317 316 315 316 317 317 316 315 315 315 315 315 316 316 316 316 316 315 315 314 313 314 314 314 315 315 314 315 316 317
321 320 318 316 318 321 321 321 320 319 318 318 317 317 316 316 317 317 317 317 317 317 316 316 316 316 316 317 317 315 314 315 315 315 315 316 317 317 316 316 316 317
320 319 317 317 320 321 320 320 319 318 318 318 318 318 317 317 317 317 317 317 317 317 317 317 317 317 317 317 317 316 314 315 317 318 317 317 318 318 318 318 317 318
320 321 320 320 321 321 320 321 320 319 319 319 319 320 320 319 318 317 317 318 318 317 317 317 317 317 317 317 318 317 317 317 318 319 319 318 318 319 319 319 319 319
321 321 321 321 321 320 320 320 320 320 321 321 321 321 321 320 319 318 318 318 317 317 317 317 317 317 317 317 318 318 318 318 318 319 320 320 319 319 319 320 320 320
320 320 320 320 320 320 320 320 320 321 322 322 322 322 322 321 321 320 320 319 319 319 318 318 318 317 317 317 317 318 318 318 319 319 320 320 320 320 320 320 320 321
313 314 315 317 318 318 318 319 319 320 320 320 321 322 322 322 322 321 321 321 321 320 320 320 319 319 318 318 318 318 318 319 319 320 320 321 321 320 320 321 321 321
305 306 307 309 311 312 312 312 313 315 316 317 318 319 319 319 320 320 321 321 320 320 320 320 320 320 319 319 319 319 319 319 319 320 320 320 320 320 320 320 320 320
302 303 303 303 304 305 305 305 306 307 309 309 310 312 313 314 315 315 317 318 318 319 320 320 320 321 320 320 320 319 319 319 319 319 319 319 319 319 319 320 320 321
301 301 302 302 302 303 302 303 303 303 304 304 305 306 307 307 308 308 310 312 314 315 317 318 319 320 320 320 320 320 320 320 320 320 320 319 319 319 319 319 319 320
300 300 300 300 301 301 301 301 302 302 302 303 303 304 304 304 305 305 306 307 308 309 309 311 313 315 317 318 319 319 320 320 320 321 321 321 320 320 319 319 319 319
299 299 299 299 299 300 300 300 301 301 301 301 302 302 302 302 303 304 304 304 305 305 306 307 308 310 311 314 316 318 319 319 321 321 322 322 321 321 321 320 320 319
299 299 299 299 299 299 299 299 299 300 300 300 301 301 301 302 302 302 303 303 303 304 304 305 306 307 308 309 311 314 316 318 320 321 322 321 321 321 321 320 320 320

ECMWFNIL_925_thetae_054.txt.gz
Theta_e
327 325 325 325 325 324 324 325 324 323 323 323 324 324 323 322 322 322 324 324 323 321 319 318 321 325 326 325 325 325 326 325 325 325 325 325 325 325 325 325 325 326
326 325 325 325 324 324 324 325 324 323 323 324 324 324 323 322 321 322 323 324 322 321 320 318 319 323 324 324 322 321 322 323 323 323 323 322 322 323 323 324 324 324
326 325 324 324 323 324 324 324 324 323 323 323 324 323 323 322 321 321 322 323 322 321 320 319 318 320 322 322 320 317 317 319 319 318 318 318 319 321 323 323 324 324
325 324 323 323 323 323 324 323 323 323 323 323 323 323 323 322 321 320 321 322 322 320 319 319 318 318 319 321 319 316 315 316 316 315 315 316 316 318 321 323 324 324
324 324 322 322 323 323 323 323 323 323 323 322 322 322 322 321 321 320 320 320 321 320 318 318 317 316 318 319 318 315 314 314 314 314 314 314 314 315 317 320 322 324
323 323 322 322 323 322 323 324 324 323 323 322 320 320 321 321 320 319 319 319 319 319 318 317 315 315 317 317 316 315 314 314 313 313 313 313 312 312 313 315 319 321
322 322 322 322 322 322 323 324 323 323 323 322 320 320 320 320 319 319 318 318 318 318 316 315 313 313 315 316 315 315 314 314 314 313 313 313 312 312 312 313 315 318
322 322 322 322 322 323 324 324 323 323 323 321 320 319 319 319 319 318 317 317 317 316 315 315 313 312 313 315 315 315 314 314 313 313 312 312 312 312 312 312 313 315
322 322 322 322 323 323 323 323 323 324 323 321 320 319 318 318 318 317 317 317 316 316 315 314 314 313 314 314 314 314 314 314 313 313 313 313 313 312 312 312 312 313
322 322 322 322 322 322 322 323 323 324 322 320 319 318 316 315 316 316 317 317 316 315 314 313 313 314 314 313 312 312 313 313 313 314 313 313 313 313 313 312 312 313
322 322 322 322 322 322 322 322 323 323 322 320 319 318 315 312 313 315 316 317 316 315 314 313 313 313 313 313 313 312 313 313 314 313 313 313 313 313 312 312 312 312
322 321 322 322 322 322 321 321 322 322 321 320 319 318 314 313 313 314 315 315 315 315 314 313 313 313 314 314 314 313 314 314 314 314 313 313 313 313 313 313 313 312
321 321 322 323 321 320 320 320 321 321 320 319 319 317 314 313 314 314 314 315 315 315 315 314 313 314 314 314 314 314 314 314 314 313 314 313 313 313 312 313 315 315
321 321 322 321 319 319 321 320 319 318 317 318 318 316 315 314 315 314 314 314 315 315 315 314 314 314 314 314 314 314 314 315 314 313 313 313 313 313 313 313 315 316
321 321 322 321 320 320 320 320 319 318 318 318 318 316 315 315 315 315 315 314 315 315 314 314 314 315 315 315 315 314 315 315 314 313 313 313 314 314 314 315 315 316
320 320 321 321 319 318 317 316 317 318 318 319 319 318 316 315 315 316 316 316 315 314 314 314 314 314 315 315 315 315 316 316 315 314 314 314 315 315 314 315 316 317
319 318 319 319 318 318 317 314 314 315 317 319 320 318 317 316 316 316 316 317 316 316 316 316 315 315 315 315 315 316 317 317 316 315 314 315 317 317 316 316 317 317
318 317 317 318 318 319 319 316 315 316 317 319 319 318 318 318 318 317 317 316 317 317 317 317 317 317 316 316 316 316 317 317 317 316 315 316 317 318 318 318 318 318
318 318 318 319 319 320 320 319 319 319 319 320 320 320 320 320 319 319 318 318 317 317 317 317 317 317 317 316 317 317 317 317 318 318 317 317 318 318 319 319 319 319
317 317 318 319 318 319 319 320 320 320 319 320 321 321 321 321 321 320 320 320 319 319 319 319 318 318 318 318 317 317 317 317 317 317 318 318 318 318 318 319 319 319
309 310 312 313 314 316 317 317 317 317 317 318 321 321 320 319 319 319 320 320 320 320 320 320 320 319 319 319 319 318 318 318 318 318 318 318 318 318 319 319 320 320
303 304 304 305 307 309 310 309 310 310 310 312 314 314 314 314 314 314 315 317 317 318 319 319 319 320 320 320 320 319 319 319 319 319 319 319 319 319 319 319 320 320
301 302 302 302 303 304 304 303 304 304 304 305 306 306 306 307 308 307 308 310 311 313 314 314 315 316 317 319 320 320 320 320 319 320 319 319 319 319 319 319 319 319
300 300 300 300 300 301 301 301 302 302 303 303 303 303 303 303 303 304 304 305 306 307 307 308 308 310 311 313 315 316 318 318 319 319 319 319 320 320 320 320 320 320
299 299 299 299 299 299 299 299 299 300 300 301 301 302 302 302 302 302 302 302 303 303 304 304 305 306 307 308 309 310 312 314 315 317 317 318 319 319 321 321 321 321
298 298 298 298 298 298 298 298 298 298 298 299 299 299 300 300 300 301 301 301 301 301 302 302 303 303 304 305 306 307 308 309 311 313 315 316 317 318 319 319 320 320

ECMWFNIL_925_thetae_057.txt.gz
Theta_e
333 332 330 330 329 327 325 324 323 323 323 323 324 324 323 323 322 323 324 324 323 320 318 321 325 326 326 326 325 326 326 326 326 326 326 326 326 327 327 327 328 328
331 331 329 328 327 326 325 324 323 323 323 323 324 324 322 322 322 323 325 324 322 319 317 319 323 325 324 323 322 323 325 325 325 325 324 325 324 325 325 325 326 327
330 329 328 326 326 325 324 324 324 323 323 323 324 323 322 322 321 323 324 323 321 319 317 318 321 323 323 322 319 319 322 322 321 321 320 321 322 322 323 324 324 325
329 328 326 325 324 324 324 324 324 323 323 323 324 323 323 322 321 322 324 323 321 319 318 318 318 320 322 322 317 316 318 318 317 316 316 318 319 321 323 324 324 324
328 327 325 324 324 324 324 325 324 323 323 323 323 323 323 321 321 322 323 323 321 319 318 318 317 317 320 320 316 315 316 315 314 314 314 315 315 318 322 324 325 325
326 325 325 325 324 324 324 324 323 323 323 323 323 323 322 321 320 320 321 322 321 319 318 317 316 317 319 319 315 314 314 314 314 313 313 313 312 313 317 322 325 324
325 325 325 325 324 324 324 323 323 323 323 322 322 322 322 321 320 320 319 320 320 319 317 315 314 316 318 317 314 314 314 313 313 313 313 313 312 312 313 318 322 323
324 324 325 325 324 324 323 323 323 323 323 322 320 320 321 320 319 319 318 319 319 318 316 314 312 315 317 316 314 314 314 313 313 313 313 312 312 312 312 314 318 321
324 324 324 324 323 323 323 323 324 323 323 322 320 320 320 320 319 318 318 318 318 316 315 314 313 313 315 315 314 314 314 313 313 313 313 312 312 312 312 312 314 317
323 322 323 323 322 322 323 324 324 323 323 322 320 319 319 319 318 317 317 317 317 316 315 314 313 313 314 315 314 314 314 313 313 313 313 313 313 312 313 313 313 314
322 322 322 322 322 322 323 324 323 323 323 322 320 319 319 318 318 317 317 317 316 315 314 313 314 314 314 314 313 313 314 313 313 313 313 313 313 313 312 312 312 312
321 321 322 321 322 323 323 323 323 323 323 322 320 319 317 316 316 316 317 317 316 315 314 313 313 313 314 314 313 312 313 314 314 313 313 313 313 313 313 313 312 312
321 321 322 322 322 323 322 322 323 322 322 321 320 318 316 314 314 315 316 316 316 315 314 313 313 313 314 314 314 313 313 314 314 314 313 313 313 313 313 314 314 313
321 321 321 322 322 322 322 322 321 320 320 319 318 317 315 314 314 314 314 315 315 315 315 314 313 313 314 314 314 314 314 314 314 314 313 313 313 313 313 313 314 315
321 321 321 320 320 320 320 320 319 318 317 317 316 315 314 314 314 314 314 314 314 315 315 315 314 314 314 314 314 314 314 314 315 314 313 313 313 313 313 313 314 314
320 320 320 320 320 319 319 318 318 318 317 318 318 317 315 314 314 314 315 315 315 315 315 315 314 314 314 315 315 315 315 315 315 315 314 313 313 314 314 314 314 315
320 320 319 319 318 318 319 318 317 318 318 318 319 318 316 316 316 315 316 316 315 315 315 315 314 314 315 315 315 315 315 316 316 316 316 315 314 314 315 316 316 316
319 319 318 318 317 317 317 316 316 316 317 317 318 317 316 316 317 316 316 316 316 316 316 316 315 315 315 316 316 315 316 316 316 317 317 316 316 315 315 317 318 318
318 318 318 318 318 317 316 316 316 317 317 318 319 318 317 317 318 318 318 317 317 316 316 316 317 316 317 317 316 316 316 316 316 317 317 317 317 317 317 317 318 318
317 317 318 318 318 318 317 317 317 318 318 319 319 319 319 319 319 319 319 319 318 318 318 317 317 317 317 317 317 317 317 317 317 316 317 317 317 317 317 317 317 317
315 316 316 316 316 317 317 316 316 316 317 317 318 318 318 318 319 319 319 319 319 319 319 318 318 318 319 319 318 318 318 318 317 317 317 317 317 317 318 318 318 318
309 310 311 312 312 313 312 310 311 311 311 312 313 314 313 313 314 314 314 314 314 315 315 314 314 315 317 318 319 319 319 319 319 318 318 318 318 318 318 318 319 319
304 305 306 307 308 308 306 305 305 305 305 306 308 308 308 308 307 307 307 307 308 308 308 308 308 309 311 314 316 317 318 319 319 319 319 319 319 319 319 319 319 319
301 302 302 303 303 303 303 303 303 303 303 303 304 305 305 304 304 304 304 304 305 306 305 304 304 304 306 308 309 311 312 314 315 316 317 318 318 318 318 318 319 319
299 299 300 300 300 299 300 300 300 300 301 301 302 302 302 302 303 303 303 303 304 305 305 305 304 302 303 304 305 307 308 309 310 311 312 313 314 315 316 316 317 317
298 298 298 298 298 298 298 298 298 298 299 299 299 299 300 300 300 300 301 301 301 301 302 303 302 301 301 302 302 303 304 305 306 307 308 309 310 311 313 314 314 315

ECMWFNIL_925_thetae_060.txt.gz
Theta_e
332 332 332 331 330 330 330 330 329 328 328 327 326 326 327 328 329 328 328 328 327 327 327 327 327 328 328 328 329 327 327 330 331 331 332 331 331 331 331 331 331 330
331 331 332 331 330 330 330 329 328 328 327 326 327 327 327 328 328 328 328 328 327 325 325 326 327 327 326 327 327 327 326 329 329 329 330 331 330 331 331 331 331 331
330 331 332 332 331 330 330 329 328 327 327 327 327 326 327 328 328 327 327 327 326 324 323 325 326 325 325 325 326 326 326 326 326 326 327 327 328 330 330 330 331 331
330 330 332 333 330 330 329 329 328 327 327 328 327 326 326 327 328 327 327 326 325 323 322 323 325 325 324 324 324 325 324 324 324 324 324 325 326 328 329 330 331 331
330 330 332 332 330 329 329 329 328 327 328 328 327 326 326 326 327 327 326 326 324 323 322 322 324 325 324 323 323 323 322 321 322 322 322 323 325 326 329 330 330 331
330 331 332 331 330 329 328 328 327 327 328 328 327 326 326 326 326 326 326 325 324 322 321 320 322 324 323 322 322 321 320 320 320 321 320 321 322 324 327 329 329 330
330 330 331 331 329 328 328 328 327 327 328 327 327 326 326 326 326 325 325 325 323 322 320 319 321 323 322 321 321 321 320 319 319 319 319 319 320 322 324 326 326 326
330 331 330 330 329 328 328 328 327 327 327 327 326 326 325 325 325 324 324 324 323 321 318 318 320 322 322 320 320 320 319 319 318 318 319 319 319 321 323 325 324 324
330 331 330 329 328 329 328 327 327 326 326 326 325 325 324 324 323 323 323 323 321 320 318 317 319 321 322 320 319 319 318 318 317 317 318 319 319 319 320 323 323 323
330 330 330 328 329 328 327 326 327 326 326 325 324 323 323 323 322 321 322 322 320 319 317 316 317 320 321 320 319 318 317 317 317 317 318 319 318 319 319 320 321 322
329 330 330 329 329 328 327 327 326 326 326 325 323 322 322 322 321 320 321 321 319 318 317 317 316 317 319 320 319 319 318 317 317 317 318 318 318 318 318 319 320 320
327 328 330 330 329 328 327 327 326 326 326 325 323 322 321 320 320 319 319 319 318 317 317 316 316 316 317 318 319 319 318 318 318 318 318 317 317 317 318 319 319 319
324 325 328 330 329 328 327 326 326 325 325 324 323 322 320 319 319 319 318 318 318 317 316 316 317 317 317 318 318 318 318 318 319 318 318 318 317 317 318 318 318 318
322 324 326 327 328 327 326 326 325 325 325 324 323 321 319 318 318 318 319 319 318 317 317 317 317 317 318 318 318 318 318 319 318 318 318 318 318 318 318 319 318 319
323 324 323 323 325 326 325 325 324 324 323 323 322 321 320 319 318 317 317 318 319 319 318 317 318 318 318 318 318 318 318 318 319 318 318 317 318 318 318 318 319 319
324 324 322 322 324 325 324 324 324 323 323 322 321 320 320 320 320 319 318 318 319 319 319 320 320 319 317 317 318 318 319 319 318 318 318 317 317 318 318 318 319 319
323 322 322 322 322 322 322 322 322 322 322 322 320 318 318 318 318 319 319 318 319 319 321 322 320 316 315 315 316 316 318 320 319 318 318 318 318 318 319 319 319 319
322 321 320 320 319 319 319 319 318 319 320 320 319 317 317 316 316 317 317 317 319 321 321 319 316 314 314 315 315 314 316 318 320 320 319 319 319 319 320 320 320 321
320 320 320 319 318 317 317 316 316 317 317 318 317 316 316 317 317 317 317 318 319 319 318 317 316 315 316 315 315 316 315 316 319 321 321 320 320 321 320 320 321 322
317 317 318 318 317 316 316 316 315 316 316 317 317 317 316 316 317 318 318 319 319 317 316 317 317 317 317 316 316 317 316 316 318 321 322 321 321 322 322 322 323 323
315 315 315 315 315 315 316 315 315 316 317 318 318 318 317 317 318 318 318 318 317 317 317 317 316 317 318 318 318 318 317 318 319 321 322 322 323 323 323 323 323 323
311 312 312 312 313 314 314 314 313 314 315 316 317 316 315 315 316 315 316 317 317 316 316 314 313 314 315 317 318 319 319 320 321 322 323 324 325 324 324 324 323 324
307 308 308 308 310 311 311 311 310 310 310 311 311 310 309 310 310 310 310 312 313 311 310 309 309 310 311 313 315 316 318 319 320 322 324 324 324 325 324 324 324 323
305 305 305 305 306 306 306 307 307 307 307 308 308 307 306 305 306 307 307 308 308 307 307 307 306 306 307 309 310 311 313 314 316 319 321 322 322 323 322 322 322 321
301 301 302 302 302 302 302 303 303 304 305 306 306 305 305 305 306 306 305 306 307 306 306 307 307 306 306 306 306 307 307 309 312 315 316 317 317 317 318 319 320 320
301 300 300 299 299 299 299 300 300 300 301 302 302 303 303 303 303 303 302 302 302 302 303 305 306 305 305 304 304 303 303 304 307 309 310 311 312 312 313 315 317 318

ECMWFNIL_925_thetae_063.txt.gz
Theta_e
330 329 328 328 329 329 328 330 329 330 330 329 329 329 328 329 329 329 329 329 329 329 329 329 330 330 329 329 329 328 331 333 333 333 333 333 332 332 332 330 329 330
330 328 328 328 330 329 329 330 329 330 329 328 328 328 328 329 329 329 329 329 328 328 328 329 330 329 328 329 329 327 330 332 331 332 333 333 333 333 333 331 329 330
329 329 329 330 330 329 330 330 329 329 329 328 328 328 328 329 329 329 329 328 327 327 327 328 328 328 327 328 328 327 328 329 328 329 331 332 332 333 333 332 331 330
330 330 330 331 330 329 330 330 329 329 328 329 329 328 329 329 329 329 328 327 326 325 325 327 327 327 326 326 326 327 327 327 327 328 328 329 330 332 333 332 332 331
330 330 330 331 330 329 330 329 329 329 328 329 329 328 328 328 328 328 326 326 325 324 324 326 327 326 325 325 325 326 326 325 326 326 326 327 328 330 332 332 332 331
331 331 330 330 329 328 329 329 329 329 328 329 329 328 327 327 328 327 326 326 325 322 322 324 326 326 324 325 324 324 324 324 324 324 325 326 326 327 330 331 331 331
333 332 331 330 328 328 328 328 328 328 328 328 329 328 327 327 327 327 326 326 324 322 321 323 325 325 324 324 323 323 322 322 322 322 323 324 325 325 327 328 330 331
334 334 332 330 328 328 328 328 327 328 328 328 328 328 327 327 327 326 326 325 323 321 320 322 325 324 323 323 323 322 322 322 321 321 322 323 324 324 325 325 326 328
334 334 333 330 328 328 328 328 328 328 329 328 328 328 327 327 327 326 326 325 323 321 320 322 324 323 323 323 322 322 321 320 321 321 322 323 324 324 324 324 324 326
333 333 332 330 328 328 328 328 328 328 328 327 327 327 326 326 326 325 325 324 322 320 318 321 323 323 322 322 321 321 320 320 320 321 322 322 322 323 324 324 324 324
332 333 331 329 328 328 328 328 328 327 327 326 325 325 326 325 324 323 324 323 322 319 317 320 323 322 321 321 320 319 319 318 318 320 321 321 321 322 322 323 323 323
331 330 329 329 328 328 328 328 328 327 326 326 324 324 325 324 323 322 322 322 320 318 317 318 320 321 321 320 319 319 318 317 318 320 320 321 320 320 321 322 322 322
331 330 330 329 328 328 328 328 328 327 326 325 323 323 323 322 322 322 322 321 319 318 317 317 318 319 320 320 319 319 319 319 319 320 320 320 319 319 320 320 320 321
332 332 333 330 328 327 327 327 327 326 326 325 324 322 321 320 321 320 320 320 318 318 318 317 317 318 319 319 318 319 320 320 320 320 320 319 319 319 320 320 320 320
331 332 332 331 328 327 326 326 326 326 326 325 323 321 319 319 319 319 320 320 319 318 318 318 320 319 319 319 319 319 320 320 320 320 319 319 320 320 320 320 320 320
330 330 330 330 329 327 326 326 326 326 326 325 323 321 320 320 319 319 320 320 320 320 320 321 322 321 319 319 320 320 320 320 320 320 320 319 319 319 320 320 321 321
328 328 328 328 328 327 326 326 325 325 324 323 322 321 321 321 320 320 320 321 321 322 322 322 322 320 319 319 319 320 321 321 320 319 320 320 319 320 320 320 320 321
326 326 326 327 327 326 326 326 325 325 324 324 324 323 323 321 322 323 323 323 323 323 322 321 319 318 317 317 317 318 320 321 321 320 319 319 319 319 320 320 320 320
325 325 324 324 324 323 323 323 324 323 323 322 321 322 321 321 322 322 321 320 320 320 320 318 316 315 315 315 315 315 316 317 319 321 321 319 319 319 319 320 320 319
323 323 322 321 320 319 318 319 319 319 318 318 317 317 318 319 321 320 318 316 317 317 317 317 316 315 316 315 315 315 315 314 317 321 322 320 320 320 320 321 321 322
319 319 319 318 317 317 316 316 316 316 317 317 317 316 316 317 319 319 318 316 316 316 316 316 316 317 317 317 316 317 316 316 318 322 321 320 321 321 322 323 323 324
315 316 316 315 315 315 316 315 315 316 316 317 317 316 316 316 317 318 317 315 314 314 315 315 316 317 317 317 318 318 317 318 321 322 321 321 323 323 324 324 324 324
312 313 313 313 313 314 314 314 314 314 315 316 316 315 314 314 314 314 314 312 311 310 311 312 312 313 314 315 315 316 318 320 322 322 321 322 324 325 325 325 324 325
308 309 309 310 310 310 311 311 312 312 312 313 313 313 312 311 311 311 311 310 308 307 306 307 309 312 313 314 314 315 316 318 319 320 321 322 323 324 324 323 322 323
305 306 306 306 307 307 308 308 309 309 310 310 311 310 309 309 308 308 308 307 306 306 306 306 308 311 311 311 311 310 311 313 316 317 318 319 318 318 319 319 318 319
304 304 304 303 304 304 305 306 307 307 307 307 308 307 307 307 308 308 307 307 306 307 308 308 309 310 309 308 307 306 306 308 310 311 310 312 313 313 313 314 315 317

ECMWFNIL_925_thetae_066.txt.gz
Theta_e
334 333 331 330 330 329 330 330 330 330 329 329 329 328 329 330 330 330 330 330 330 330 330 330 330 330 329 330 330 330 331 331 332 332 332 333 331 330 333 332 330 330
333 331 330 330 330 329 330 330 330 330 329 329 329 328 329 329 329 330 330 330 330 330 330 330 330 330 329 329 329 329 331 331 331 332 332 332 331 330 332 332 330 330
332 330 329 330 330 329 329 330 330 329 329 329 329 328 329 329 329 330 330 329 329 329 329 330 330 329 329 329 328 329 330 330 330 331 331 331 331 331 331 330 330 330
331 329 329 329 330 329 329 330 330 329 329 328 328 328 329 329 329 329 328 328 328 327 328 329 328 328 328 328 328 328 329 329 329 330 331 331 331 331 331 330 329 329
330 328 329 329 330 329 329 330 330 329 328 328 328 328 329 329 329 328 327 327 327 326 327 328 327 327 327 327 327 327 327 327 328 328 329 330 330 331 331 331 330 329
329 328 329 330 330 330 329 330 329 329 329 328 329 329 329 329 328 328 327 327 326 324 325 327 327 326 326 326 326 326 326 326 326 327 327 328 328 329 330 330 329 329
329 330 331 331 330 329 330 330 329 329 329 329 329 329 329 328 328 327 326 326 325 322 322 325 326 325 325 325 325 324 325 324 324 325 326 326 327 328 329 330 329 329
331 333 332 330 330 330 330 329 329 329 329 329 328 328 327 327 327 327 326 326 323 321 321 324 326 325 324 324 323 323 323 322 322 323 325 325 326 327 328 329 329 329
333 334 332 329 330 330 329 329 329 329 328 328 328 327 326 327 327 326 326 325 323 321 321 324 325 324 324 323 323 322 322 321 321 323 324 325 325 325 326 327 328 329
333 333 331 329 329 329 329 328 329 328 328 328 328 327 326 326 326 326 326 325 323 321 320 323 324 324 323 323 323 322 321 321 322 323 323 324 325 325 325 325 327 327
333 333 330 329 329 329 328 328 328 328 328 328 328 327 327 326 326 325 326 324 322 320 319 322 324 323 322 323 322 321 320 320 321 322 322 323 324 324 324 324 325 325
332 332 330 329 329 328 328 328 329 328 328 328 327 327 326 326 325 325 325 324 321 319 319 321 324 322 322 322 321 320 320 319 320 321 321 321 322 323 324 324 324 324
332 331 330 329 328 328 329 328 328 328 328 327 326 326 326 325 324 323 323 323 321 318 318 320 322 322 321 321 320 319 318 317 318 320 321 321 321 322 323 323 323 323
331 330 330 329 328 329 329 328 327 327 326 324 324 325 324 323 322 322 323 321 319 318 317 318 320 320 320 320 319 318 318 318 319 320 321 320 320 320 321 321 321 321
330 329 328 328 328 328 328 327 327 326 325 324 323 323 322 322 321 321 322 320 319 320 319 318 319 319 319 320 320 319 320 320 320 320 320 319 320 320 320 320 321 321
329 328 327 328 328 328 328 327 326 326 325 323 322 321 320 320 320 320 320 320 321 321 321 319 319 319 319 319 320 321 321 321 320 320 320 319 320 320 320 320 321 321
327 326 326 327 327 327 328 327 326 326 325 323 321 320 320 321 321 321 322 323 322 321 320 320 319 318 319 319 319 320 322 321 320 320 319 319 320 320 320 320 321 322
328 326 326 326 326 326 326 326 326 325 324 323 321 321 322 323 324 323 323 323 322 320 320 319 318 317 318 318 319 320 321 321 321 320 319 319 320 320 320 319 320 321
326 326 325 324 325 325 325 325 325 325 324 323 323 323 324 324 323 322 321 320 320 319 319 319 318 317 317 317 317 319 319 319 320 321 321 320 319 319 319 319 320 321
323 323 322 322 323 324 325 324 324 324 324 323 323 323 323 322 320 319 318 318 317 316 315 316 316 315 315 315 316 316 315 315 316 318 319 319 319 319 319 320 320 321
320 319 318 318 320 322 322 321 321 320 320 321 321 321 320 319 317 316 316 315 315 314 313 315 315 315 314 314 314 314 314 313 313 314 316 318 319 320 320 321 322 323
316 316 315 316 317 318 317 317 317 317 317 317 318 318 318 317 316 316 315 315 316 315 315 315 316 316 316 316 315 315 315 314 313 315 318 320 320 320 320 320 320 321
313 313 313 314 314 315 315 316 316 316 316 316 316 316 316 316 316 316 316 315 315 314 313 313 313 315 316 317 317 317 317 316 314 314 317 320 320 320 321 320 320 321
311 311 312 312 312 313 313 313 314 315 315 315 315 314 314 314 313 313 313 313 312 310 309 309 309 310 311 312 313 315 316 314 311 311 316 319 319 318 319 319 319 319
308 309 310 310 311 311 311 312 312 313 313 313 312 312 312 311 311 311 310 309 309 307 306 306 307 307 307 307 308 311 313 313 312 312 316 317 317 315 315 316 316 316
305 306 307 307 308 308 309 309 310 310 310 310 310 309 310 309 309 309 308 308 308 308 307 307 306 306 306 305 306 308 310 311 312 312 313 313 313 312 311 312 312 313

ECMWFNIL_925_thetae_069.txt.gz
Theta_e
333 334 334 332 332 331 330 331 331 331 332 331 331 330 330 330 330 329 329 330 330 330 330 330 329 329 331 332 332 333 333 333 333 333 333 332 331 331 331 331 330 330
334 334 333 332 332 331 331 331 331 330 330 330 331 329 329 330 330 329 329 330 330 330 330 330 329 329 330 330 331 332 332 333 333 333 333 331 330 331 332 331 329 330
335 334 333 332 331 330 331 331 330 329 329 329 329 330 330 330 329 329 329 330 330 330 330 330 329 329 329 329 330 330 331 332 332 332 332 331 330 331 332 330 329 329
335 334 333 332 330 330 331 331 329 329 329 328 328 329 329 329 330 329 329 329 329 329 330 329 329 329 329 329 329 329 330 331 331 331 332 331 330 331 331 330 330 330
334 334 333 331 330 330 331 330 329 329 329 329 328 328 329 329 329 328 328 328 328 329 329 328 329 328 327 328 328 329 329 329 330 331 331 331 330 331 331 330 330 329
334 333 331 330 330 331 331 330 329 329 328 328 329 329 329 328 328 328 328 327 326 328 328 327 328 327 326 327 327 327 328 328 329 330 331 331 331 332 331 329 329 328
333 332 330 330 331 331 331 329 329 328 328 329 329 329 328 328 327 327 327 325 325 326 327 327 326 326 326 325 326 327 326 327 328 328 329 329 330 331 331 330 329 328
333 331 330 330 331 330 330 329 328 328 328 329 329 329 328 327 327 327 326 324 323 324 326 326 325 325 325 324 325 326 325 325 326 327 327 328 328 330 330 330 330 329
333 331 329 330 331 330 329 329 329 329 328 329 329 328 327 327 327 326 325 323 321 322 324 325 324 324 324 324 323 324 324 323 324 325 326 327 327 328 329 329 330 329
333 330 330 331 331 329 329 329 329 329 328 328 327 326 327 327 327 326 325 322 320 321 324 325 324 324 323 323 322 322 322 323 324 325 325 325 326 328 329 329 329 330
332 331 331 331 330 329 329 329 329 329 328 327 326 326 327 327 326 326 325 322 320 321 323 324 324 323 323 322 322 321 321 322 324 324 324 324 325 326 328 328 329 329
331 332 331 330 329 329 329 329 328 328 328 327 326 325 326 326 324 325 324 322 320 320 322 323 323 322 323 322 321 320 320 321 322 322 323 324 324 325 326 327 327 327
331 332 330 328 328 329 329 329 328 328 328 328 326 326 326 325 325 325 324 321 320 319 320 322 322 322 322 321 320 320 319 320 320 321 322 324 324 324 325 325 325 324
330 331 329 327 327 328 328 328 328 328 328 327 327 326 326 325 325 324 323 321 319 319 320 322 322 321 321 320 319 318 317 318 319 320 322 323 323 323 324 324 324 323
329 330 328 326 327 328 328 328 328 328 327 327 327 325 324 324 323 323 321 320 318 318 320 321 321 320 320 319 318 318 317 318 319 320 321 322 322 322 323 323 323 322
328 328 327 326 327 328 328 328 327 327 326 326 325 324 323 322 322 322 320 319 318 318 319 319 320 319 320 319 318 318 319 319 320 319 319 320 321 321 322 322 322 322
326 326 326 326 326 327 328 327 326 325 324 324 323 322 322 321 321 321 320 319 318 318 318 318 319 319 319 320 320 320 319 319 319 319 319 320 320 320 321 321 321 321
325 325 325 325 325 326 326 325 324 323 323 322 322 321 321 321 321 320 320 319 318 318 317 318 317 318 318 319 320 320 320 320 320 320 319 319 320 320 321 321 320 320
324 324 324 325 325 325 325 324 323 322 322 322 321 321 321 321 320 320 318 318 318 317 317 317 316 317 317 318 318 319 320 320 320 319 320 320 320 320 321 321 321 320
323 323 323 324 324 324 324 324 323 322 322 322 321 321 321 320 319 319 318 317 317 317 317 316 316 316 316 316 317 316 317 318 318 318 319 320 320 321 321 321 321 320
322 322 323 323 323 323 323 322 322 322 321 321 320 320 319 318 317 316 316 315 315 316 316 316 315 315 315 315 315 314 314 314 315 317 318 320 320 320 320 321 321 321
317 319 321 320 320 321 321 320 320 319 317 318 318 317 316 316 315 314 314 313 313 314 315 315 315 315 315 315 315 315 314 313 313 314 315 318 319 319 319 319 319 319
313 314 316 316 316 317 317 317 317 316 315 315 315 314 314 313 313 313 313 313 313 313 313 314 314 314 315 316 317 317 315 314 314 313 312 315 318 319 318 318 318 318
312 312 312 313 313 313 314 315 315 315 314 314 315 315 314 313 312 312 311 312 312 311 312 312 311 311 313 315 316 316 316 315 315 313 314 316 317 317 317 317 318 318
311 312 311 311 311 311 312 313 314 314 315 315 315 315 314 313 313 313 311 310 309 308 309 309 309 308 309 311 312 313 313 314 314 314 314 315 315 314 314 315 315 316
308 310 310 309 310 310 310 311 312 313 314 314 314 314 313 313 313 313 311 309 308 308 308 307 307 307 307 307 308 309 310 311 312 312 311 310 310 310 311 311 311 311

ECMWFNIL_925_thetae_072.txt.gz
Theta_e
334 334 333 333 333 332 331 331 330 331 332 332 332 332 332 332 332 332 332 332 332 331 330 330 331 332 333 333 333 333 333 333 333 332 331 330 331 331 331 331 330 329
334 334 333 333 333 332 331 330 331 331 332 332 332 332 332 331 331 332 332 331 331 331 330 329 330 332 333 333 333 333 333 333 333 332 332 331 331 330 331 331 330 330
334 333 333 333 332 332 330 330 331 331 332 332 331 331 331 331 331 330 331 330 330 330 330 329 329 331 332 332 333 333 333 333 333 332 332 332 331 330 331 331 330 330
334 334 334 333 332 331 330 330 331 331 331 331 331 331 330 330 330 329 330 330 329 330 329 329 329 330 331 332 332 332 332 332 333 332 332 332 331 330 331 331 330 330
333 333 333 333 332 331 330 331 331 330 331 330 330 330 330 329 329 329 330 330 329 330 329 329 329 329 330 330 330 331 331 332 332 332 332 331 330 331 332 331 330 329
333 334 333 333 332 331 330 331 330 330 330 330 329 330 330 329 329 329 330 329 329 329 329 329 329 329 329 328 329 330 331 331 331 332 332 331 330 331 332 331 330 329
333 333 333 333 331 330 330 331 330 329 329 329 329 329 330 329 329 329 329 328 328 328 329 328 328 328 328 328 328 329 329 330 331 331 331 330 330 330 331 330 330 330
333 333 333 332 331 330 330 331 330 329 328 329 329 329 329 329 328 328 328 327 327 328 328 328 327 327 327 327 328 328 328 329 330 331 331 330 330 331 331 330 329 329
332 333 333 331 331 330 330 330 329 329 328 328 329 329 329 328 328 328 327 326 326 327 327 327 327 326 325 326 327 327 327 328 329 330 330 330 330 331 331 330 329 328
332 333 332 330 330 331 331 330 329 328 328 328 328 328 328 327 327 326 325 325 326 326 326 326 326 325 324 325 326 326 326 326 328 328 328 328 328 330 331 330 329 328
332 331 330 330 331 331 330 330 328 328 328 328 328 328 327 327 326 323 322 323 325 325 325 325 325 324 324 323 323 323 324 324 325 326 326 326 327 328 329 330 329 328
331 330 329 330 330 330 329 329 328 328 328 329 328 327 327 326 325 322 320 322 324 325 325 324 323 324 323 322 321 322 323 323 324 325 326 325 326 328 329 329 329 328
329 328 329 330 329 329 329 329 328 328 328 328 327 327 327 326 325 322 320 321 322 324 324 324 323 322 322 321 320 321 323 323 323 325 325 324 325 327 328 329 329 328
327 327 328 329 328 328 328 328 328 328 328 326 326 327 327 326 325 323 321 320 322 323 324 323 322 322 322 321 320 320 321 321 321 323 324 324 325 327 327 327 327 327
326 327 327 327 327 326 327 327 326 327 326 325 326 327 326 325 325 323 321 320 321 322 322 322 322 322 321 320 319 319 319 319 320 322 323 324 325 326 325 324 324 324
327 327 327 326 326 326 326 326 325 325 326 325 326 326 325 324 324 321 320 319 320 321 322 322 321 321 320 319 318 317 318 319 320 323 324 324 324 325 323 323 322 322
327 327 326 325 325 325 325 325 325 324 325 325 325 324 324 324 322 320 319 319 320 321 321 320 320 320 319 318 317 317 318 319 320 322 323 323 323 323 323 322 321 321
327 326 326 325 325 325 325 325 325 322 322 323 323 322 322 321 320 319 318 319 319 320 319 319 319 319 318 318 317 318 319 319 320 321 322 322 322 323 322 321 320 320
325 325 325 325 326 325 324 324 324 321 321 322 321 321 321 320 319 318 317 318 318 318 318 319 319 319 319 319 318 318 319 319 319 320 321 321 322 322 321 320 319 318
323 324 325 324 324 324 323 323 321 319 320 321 321 320 320 318 317 317 317 317 317 317 317 317 318 319 320 319 319 319 319 319 319 320 320 321 320 320 319 319 318 318
319 322 323 323 322 322 321 320 319 317 318 319 319 319 318 317 316 316 316 316 316 316 316 316 316 316 317 319 319 319 319 319 319 320 320 321 321 320 320 320 319 319
315 317 320 321 320 320 319 318 317 316 316 317 317 317 316 315 315 315 315 315 315 315 316 316 315 315 316 317 317 318 319 319 319 320 320 321 321 320 320 320 320 320
312 313 315 317 317 317 317 316 315 315 314 314 314 314 313 313 313 312 312 313 313 314 315 315 315 316 316 316 316 316 316 316 317 318 319 320 320 320 320 320 320 319
311 311 311 312 313 313 313 311 311 311 311 311 311 310 310 310 310 309 309 309 310 311 312 313 314 314 316 316 316 315 314 314 315 317 318 318 318 319 319 319 319 319
311 311 311 310 309 310 310 310 309 309 308 308 308 307 306 306 307 307 306 306 306 306 308 309 310 311 313 315 315 315 314 313 314 314 314 313 314 316 317 317 318 318
309 310 311 310 309 309 309 309 310 310 310 309 308 307 306 306 306 306 305 304 304 304 304 306 307 307 309 311 313 313 313 313 313 313 313 313 313 314 315 314 313 314

ECMWFNIL_925_thetae_075.txt.gz
Theta_e
335 333 330 329 331 333 333 333 333 332 332 332 332 332 332 332 332 332 333 333 334 334 334 334 334 334 333 334 333 333 333 333 332 332 331 332 332 332 331 331 331 330
334 334 332 329 331 334 334 333 332 331 331 332 332 332 332 332 332 333 333 333 333 333 333 332 333 333 333 333 333 333 332 332 332 332 332 331 331 332 332 331 331 330
335 334 333 332 332 334 333 332 332 331 331 332 332 331 332 332 332 333 333 332 333 332 332 331 331 332 332 333 333 332 332 332 332 332 332 331 330 330 331 331 330 330
334 334 334 334 333 333 333 332 332 331 331 331 332 331 331 332 332 332 332 332 332 331 331 330 330 331 331 332 332 332 332 332 332 333 332 331 331 330 330 330 330 330
333 333 333 333 333 333 333 332 331 330 331 331 332 331 331 332 331 331 332 332 332 331 330 329 329 330 331 332 332 333 333 332 333 332 332 331 331 331 330 330 330 331
332 332 333 334 333 332 332 332 330 330 330 331 331 330 331 331 331 331 331 331 330 330 330 329 329 329 331 332 332 332 332 332 332 333 332 332 332 331 331 331 330 331
333 333 334 333 333 332 332 332 330 330 331 331 331 330 330 331 330 330 330 330 329 330 330 329 328 329 330 331 332 331 331 332 332 333 332 332 332 331 330 331 331 330
333 334 333 333 331 331 332 331 330 330 331 331 330 330 330 330 330 330 330 329 329 329 329 329 328 328 329 330 330 330 330 331 332 332 332 332 331 330 330 331 331 330
331 332 332 333 331 331 331 331 330 330 330 330 330 329 329 329 329 329 329 329 329 329 329 328 328 328 328 328 328 328 330 330 331 331 331 331 331 330 329 331 331 330
329 330 332 333 331 331 331 330 330 330 329 329 330 329 329 329 329 328 329 329 329 329 329 328 328 328 327 327 327 328 329 329 330 330 330 331 330 329 329 331 331 330
328 328 330 331 329 330 330 329 329 330 329 329 330 329 329 329 329 329 329 328 327 327 328 328 327 327 327 326 327 328 328 328 329 329 329 330 330 329 330 330 330 329
329 327 328 329 328 328 329 328 328 328 328 329 329 329 329 329 329 328 328 327 326 327 327 328 327 326 326 326 326 327 326 327 327 327 328 328 329 329 329 330 330 329
328 327 328 329 329 328 327 328 328 328 327 328 329 329 329 329 328 328 328 327 326 326 327 327 326 325 325 324 324 324 324 325 326 326 326 327 327 327 329 330 330 329
326 327 327 328 328 327 327 328 329 328 327 326 327 328 329 328 328 327 326 326 326 326 325 326 325 325 324 322 322 322 323 323 324 324 325 326 326 327 328 329 329 328
325 326 326 327 327 327 327 328 328 327 326 326 325 325 327 327 327 325 324 323 325 325 325 324 324 324 323 321 320 322 323 323 323 323 324 325 326 327 327 328 328 326
325 326 326 326 326 326 327 327 326 326 326 326 325 323 325 326 325 322 321 322 324 324 324 324 322 322 321 320 320 321 321 322 322 323 324 325 325 327 327 327 326 324
325 326 326 325 325 326 327 326 325 326 325 326 326 323 323 326 324 321 320 321 322 324 324 323 322 322 321 320 320 320 319 320 320 321 323 324 325 326 325 324 323 322
324 325 326 326 325 325 326 325 325 325 324 325 326 323 322 325 324 321 320 320 322 323 323 322 322 322 321 320 319 319 319 319 319 321 323 324 325 324 322 321 321 320
322 324 326 326 325 324 326 325 324 324 323 324 324 321 320 323 323 321 320 320 321 322 322 321 321 321 321 319 317 317 318 318 320 322 323 324 324 323 321 320 320 319
318 321 323 324 324 324 324 324 323 322 321 322 321 318 318 321 321 319 319 319 319 320 321 320 320 321 320 318 317 318 318 318 320 322 323 323 322 321 320 320 319 318
315 317 320 322 323 323 323 322 322 320 319 319 318 315 316 319 318 316 317 317 318 319 319 319 320 319 319 318 318 318 318 319 320 322 321 321 319 319 319 318 318 317
312 313 315 317 318 320 320 319 318 317 315 315 313 312 313 314 315 314 315 315 317 318 318 319 319 319 319 318 318 318 319 319 320 320 320 319 319 318 318 318 319 319
310 311 311 312 312 314 314 314 313 312 311 311 310 309 309 309 311 312 312 314 316 317 318 319 318 319 319 319 319 319 319 319 320 320 319 319 319 318 319 319 319 318
308 309 309 309 308 308 308 309 309 308 308 308 308 307 307 306 308 310 311 312 314 315 317 318 318 318 319 319 319 319 319 319 319 320 319 319 319 318 318 318 317 317
307 308 308 308 307 306 306 306 306 306 306 306 306 305 305 305 306 308 309 309 311 313 314 316 317 317 318 319 319 319 320 320 320 319 319 318 318 317 316 316 316 316
307 307 307 307 307 306 305 304 305 305 305 306 305 303 303 303 303 304 305 305 307 309 311 313 314 315 316 317 318 319 319 319 318 318 316 315 315 315 314 314 315 316

ECMWFNIL_925_thetae_078.txt.gz
Theta_e
332 332 332 332 333 334 333 332 331 331 331 332 333 333 333 332 332 331 332 332 333 333 333 334 334 334 334 334 334 334 334 334 333 332 332 332 331 331 331 331 331 330
333 333 332 332 332 333 333 332 332 331 331 333 333 333 332 332 331 332 332 332 332 332 333 333 334 334 335 334 333 333 334 334 333 333 332 332 332 331 331 331 331 330
332 333 333 332 332 332 332 332 331 331 332 333 333 332 332 332 332 332 332 332 332 332 333 333 334 334 335 334 333 333 333 333 333 332 332 332 331 331 331 331 331 330
331 332 333 332 332 331 331 331 332 332 332 332 333 332 331 332 332 331 332 332 332 332 333 333 333 334 334 334 333 332 332 332 332 332 332 331 331 331 331 331 331 331
330 331 331 331 330 328 328 331 332 333 333 332 332 331 331 332 332 332 332 332 332 333 332 333 333 333 333 333 333 333 333 332 332 332 332 332 331 330 330 330 330 331
328 329 330 330 329 329 330 332 332 333 332 332 331 331 331 332 331 332 332 332 332 332 332 332 331 331 331 331 332 332 332 332 332 332 332 332 331 330 330 330 330 330
328 329 330 330 330 331 332 332 332 332 332 332 331 330 331 331 331 331 331 332 332 332 332 332 331 330 330 331 332 332 332 332 332 332 332 332 331 331 331 330 330 330
328 328 329 329 329 330 331 331 331 331 332 331 330 330 331 331 331 331 332 332 331 332 331 331 330 329 329 330 331 332 332 332 332 332 332 332 331 331 331 331 330 330
328 328 327 327 327 328 330 331 331 331 331 330 330 330 331 331 331 331 332 331 331 331 331 330 330 329 329 330 331 331 332 332 332 332 332 332 332 331 331 330 330 330
327 328 328 327 327 327 329 331 331 331 331 330 329 330 331 330 331 331 331 331 330 330 330 329 329 329 328 329 330 331 331 331 331 331 332 332 331 331 331 330 330 331
326 327 327 327 327 327 327 330 331 330 330 330 329 329 329 329 330 330 330 330 330 330 329 329 329 329 328 328 329 330 329 329 329 330 331 331 331 331 331 329 330 331
324 325 325 326 327 327 327 328 330 330 329 329 329 329 327 327 329 330 329 329 329 329 328 328 329 328 328 328 328 328 327 328 329 330 330 330 330 330 330 329 329 330
323 324 325 325 326 327 327 328 329 329 329 329 329 329 327 326 328 329 329 329 328 329 328 328 329 328 328 327 327 327 327 327 328 329 329 329 330 330 330 329 329 330
323 324 324 325 325 326 326 327 327 328 328 328 328 328 328 327 328 328 329 328 328 329 329 328 328 328 327 327 326 326 327 327 327 328 329 329 329 329 329 329 329 330
322 324 324 325 325 325 326 326 326 327 328 328 328 328 328 328 328 328 328 328 329 328 328 327 327 327 327 326 325 326 326 326 326 326 327 327 327 327 327 328 328 329
320 323 324 324 325 325 325 325 326 327 327 327 327 327 327 328 328 327 327 328 329 328 327 327 327 327 327 325 324 324 324 324 324 324 325 326 325 326 326 327 328 328
318 320 322 324 325 325 325 325 326 326 326 326 326 326 326 327 326 326 326 327 328 327 326 326 326 326 326 324 323 322 322 323 323 323 323 324 324 325 326 327 327 327
315 317 319 322 324 324 325 325 325 325 325 325 325 325 326 326 325 325 325 326 327 326 325 325 325 324 325 323 321 320 321 322 322 322 323 323 324 325 326 327 327 325
312 315 316 319 322 324 324 324 325 325 324 324 324 324 325 325 324 324 324 324 324 324 324 324 323 323 323 321 319 319 319 319 320 321 322 323 324 325 325 325 324 323
309 312 314 316 319 322 324 324 324 323 323 323 323 323 324 324 323 323 321 321 321 322 322 323 322 321 321 319 318 318 318 318 319 320 322 323 324 323 322 321 320 319
307 309 311 314 316 319 320 321 321 320 320 321 321 321 321 320 320 320 319 318 319 320 321 322 321 320 320 319 318 318 317 318 319 320 322 322 322 321 319 318 318 318
306 306 308 310 312 313 314 314 314 314 316 317 317 318 316 313 314 315 316 316 317 318 319 320 320 320 319 319 318 317 317 318 319 321 321 321 319 318 318 317 317 318
305 305 306 307 308 308 308 307 307 307 309 311 312 312 310 308 308 311 313 315 316 316 317 318 318 319 319 318 318 318 318 319 320 320 320 319 318 317 316 316 317 317
305 304 304 305 305 305 304 304 304 304 304 306 308 307 306 305 306 307 309 312 314 315 315 317 317 317 318 318 318 318 318 319 320 319 318 317 317 316 316 316 317 317
304 304 304 303 303 304 303 302 301 301 302 303 305 305 305 305 306 306 305 307 311 313 314 315 316 316 317 318 318 318 319 319 320 319 317 316 316 315 315 315 316 316
305 304 303 303 302 302 302 302 300 300 302 303 304 304 305 305 306 307 305 304 307 311 312 313 314 315 316 317 317 318 318 318 319 318 317 315 315 315 315 314 315 315

ECMWFNIL_925_thetae_081.txt.gz
Theta_e
331 330 330 331 333 333 332 332 332 331 330 329 330 331 331 331 332 332 332 333 333 333 333 333 333 333 333 333 333 333 333 333 333 333 332 332 332 332 332 331 330 330
330 330 331 332 333 333 332 332 332 331 329 329 330 331 331 332 332 332 332 332 332 332 333 333 333 333 333 334 334 334 333 333 333 333 333 332 332 332 332 331 330 329
329 330 330 331 332 332 332 332 330 329 330 330 330 331 331 332 332 332 332 332 332 332 333 333 333 333 334 334 335 334 334 333 333 333 332 332 332 332 332 331 330 329
327 329 329 330 330 331 331 330 328 328 330 330 330 331 331 332 332 332 332 332 332 332 333 333 334 334 334 334 335 334 334 333 333 333 333 332 332 332 331 330 330 329
327 328 328 329 329 330 329 329 328 327 329 330 331 330 330 331 332 332 332 332 332 332 333 333 333 333 334 334 334 334 334 333 333 333 333 332 331 331 331 330 331 330
328 328 328 328 329 329 329 329 329 328 329 330 331 331 330 331 331 331 332 332 331 332 332 332 333 333 333 334 334 334 333 333 332 332 332 332 331 330 331 331 331 331
326 327 328 328 328 329 329 330 329 329 330 331 331 331 330 330 331 331 331 331 331 331 332 332 332 333 333 333 334 334 333 333 332 331 330 331 331 331 331 330 330 331
325 326 327 328 328 328 329 329 329 329 330 331 331 331 331 331 331 331 331 331 331 331 332 332 332 332 332 332 333 333 333 332 332 330 330 331 331 331 331 330 330 331
324 326 326 327 327 328 328 328 328 329 330 330 331 331 331 331 330 331 331 331 331 331 332 332 332 332 331 331 331 331 332 332 332 331 331 331 332 332 331 330 330 331
323 324 325 326 326 327 327 328 328 328 329 330 331 331 331 330 330 330 330 329 330 331 332 332 332 332 331 330 330 330 330 331 332 332 331 332 332 332 332 331 331 331
322 323 324 325 326 326 326 327 327 327 328 329 330 331 331 330 329 330 330 329 328 329 330 332 332 331 331 330 329 329 330 330 332 332 332 332 332 332 331 331 331 331
319 321 322 324 325 325 326 326 327 327 327 328 329 330 330 329 329 329 329 329 329 328 327 329 331 331 330 329 329 329 329 331 332 332 332 332 332 331 331 331 331 331
315 318 319 321 323 325 325 326 326 327 327 327 328 329 329 329 329 329 329 328 329 329 327 328 330 330 329 329 329 328 329 330 331 331 331 331 331 331 331 330 330 330
312 315 317 318 321 323 324 325 326 326 326 327 327 328 329 329 328 328 328 328 328 329 328 328 330 329 329 329 328 328 329 329 329 328 329 330 331 331 330 330 330 329
311 313 314 316 318 321 323 325 325 325 326 326 326 327 328 328 328 328 328 327 328 328 328 328 329 329 328 328 328 328 328 328 327 327 328 329 330 330 330 330 329 329
310 311 312 314 316 318 321 324 325 325 325 326 326 326 327 327 327 328 327 327 327 327 327 328 328 328 328 328 328 328 327 327 327 327 328 328 329 329 329 329 329 329
309 310 311 312 313 316 318 322 324 325 325 325 325 325 326 326 326 326 327 326 326 326 327 328 328 328 328 328 327 327 326 326 327 327 327 328 328 328 328 327 328 328
308 309 309 310 311 312 315 319 322 324 325 325 325 324 325 325 325 325 326 325 325 326 327 328 328 328 328 327 326 326 326 326 326 326 326 326 327 326 326 326 326 327
307 307 308 309 309 310 313 317 320 322 323 324 324 324 324 324 324 325 325 324 324 325 325 326 327 327 327 327 326 326 325 324 324 324 324 325 325 325 325 325 326 327
306 306 307 307 307 308 311 314 316 317 319 321 322 323 323 322 322 322 321 322 323 323 323 324 326 326 326 326 326 325 323 322 322 323 323 323 323 324 324 325 326 325
305 305 305 305 305 307 309 310 311 313 314 315 317 319 319 319 318 318 318 318 319 319 319 322 324 325 325 325 325 323 320 319 321 322 322 322 323 324 325 325 325 323
304 304 305 304 304 304 305 306 308 309 309 309 311 312 313 314 314 313 314 315 315 314 315 318 320 321 323 323 321 319 317 318 320 322 322 323 324 324 323 323 322 321
304 304 304 304 303 303 303 303 304 305 306 307 308 308 307 308 309 310 310 311 313 313 313 315 317 318 319 319 318 317 317 318 319 320 321 322 322 321 320 320 319 319
304 304 303 303 303 303 303 302 302 302 303 305 306 306 306 306 306 308 309 310 311 312 313 314 316 316 317 317 317 317 317 318 318 319 320 320 319 318 317 317 317 318
303 303 303 303 303 303 302 302 302 301 301 302 303 304 305 306 306 307 309 309 309 311 312 313 314 315 316 317 317 317 317 317 318 319 318 317 316 316 316 316 317 317
302 303 303 303 303 303 302 302 302 301 301 301 301 301 302 303 303 306 308 307 307 309 310 310 311 312 314 315 316 316 317 317 318 318 317 316 314 314 314 314 315 316

ECMWFNIL_925_thetae_084.txt.gz
Theta_e
332 333 333 334 334 334 334 334 334 333 331 331 332 332 332 333 332 333 334 333 334 334 335 335 334 334 335 335 335 335 334 334 334 334 334 335 334 334 334 334 333 332
330 332 332 332 333 334 334 334 334 334 334 333 333 332 332 332 332 333 333 333 334 334 334 335 334 334 335 335 335 335 334 334 334 334 335 335 334 334 333 333 334 333
329 331 331 332 333 334 335 334 334 334 334 333 332 332 333 333 332 332 332 333 334 334 334 335 335 335 335 335 335 335 334 334 334 334 334 335 333 333 333 332 332 333
328 330 330 331 332 333 333 333 333 333 332 331 331 332 333 333 332 331 332 333 333 333 334 334 334 335 335 335 335 334 333 334 335 335 334 334 333 333 333 332 332 333
326 328 329 330 331 331 332 332 332 331 330 331 331 332 333 333 332 332 332 333 333 333 334 334 334 335 336 334 333 333 333 334 335 335 334 333 333 334 334 334 334 333
325 327 328 330 331 331 331 331 331 331 330 331 332 332 333 333 332 332 332 333 333 333 334 334 335 335 335 333 332 332 333 333 333 335 334 333 333 334 333 333 332 332
324 326 328 329 329 330 331 331 330 330 330 331 332 332 333 333 332 333 333 333 333 333 334 334 335 335 334 334 333 333 333 333 334 335 334 333 333 334 333 332 332 332
323 325 326 328 329 329 330 330 330 330 330 330 331 332 333 333 333 332 332 333 333 332 333 334 334 334 334 335 334 332 333 334 334 334 334 333 333 333 333 332 332 331
321 322 323 325 328 328 328 329 329 330 330 330 331 332 332 333 333 332 332 333 333 332 333 334 333 333 332 333 332 332 333 335 334 335 335 334 333 333 332 331 331 331
320 320 321 322 324 326 328 328 328 329 329 330 331 331 332 332 333 333 333 333 333 332 333 333 332 332 331 330 331 333 334 334 334 335 335 334 334 333 331 330 331 332
318 318 318 318 320 323 325 327 328 328 329 329 330 330 332 332 332 333 333 333 333 332 332 332 331 331 331 330 329 331 333 333 334 335 335 334 333 331 330 330 331 332
317 317 317 317 318 320 322 325 326 327 328 329 329 329 331 331 331 331 332 332 332 332 332 331 330 330 331 330 329 330 333 333 333 333 332 332 332 331 330 331 331 332
316 316 316 316 317 318 320 323 325 326 327 328 328 329 330 331 331 331 331 331 331 331 331 331 330 330 330 330 329 330 332 333 333 333 331 330 330 330 331 332 332 332
314 315 315 315 315 317 318 321 323 325 326 327 328 328 329 330 330 330 331 331 331 331 331 331 330 330 329 330 329 329 331 332 333 333 332 330 330 331 332 332 332 332
313 313 314 314 314 315 316 318 321 323 326 326 327 328 328 329 330 330 330 329 330 331 332 331 330 330 329 330 329 329 330 333 332 333 332 331 332 332 332 332 332 332
312 312 312 313 313 314 314 316 319 322 324 326 327 327 328 328 329 329 330 329 329 330 331 331 331 331 330 330 330 329 331 332 332 332 333 333 333 333 332 332 331 330
311 311 311 311 312 312 313 314 315 318 321 324 326 326 327 327 328 328 329 328 328 329 330 331 331 331 330 330 330 329 330 331 332 332 332 332 332 332 332 332 331 331
311 311 311 310 310 311 311 312 313 314 315 318 321 324 325 326 326 327 327 327 327 328 329 329 329 330 330 329 328 328 328 329 330 331 331 330 331 331 330 331 331 331
310 310 310 309 309 310 310 310 310 311 311 312 315 319 322 323 324 325 325 325 327 327 327 326 327 327 328 327 327 328 328 328 328 329 329 328 329 330 329 328 329 330
310 310 309 309 309 309 309 308 308 309 309 309 311 314 317 319 320 320 320 321 323 325 325 325 325 325 326 326 326 328 328 327 326 327 328 328 328 328 327 327 328 328
310 309 309 308 308 308 308 307 307 307 307 307 308 309 311 313 314 314 314 315 317 319 321 322 322 323 324 325 326 327 327 326 326 328 328 328 328 329 328 328 328 327
309 309 308 308 308 307 307 306 306 306 306 306 306 306 307 308 309 310 311 311 312 313 315 316 317 319 322 324 324 325 326 326 327 328 329 328 329 329 328 328 328 327
307 308 308 307 307 307 306 305 305 305 305 305 305 305 304 304 305 306 308 309 310 310 311 312 313 316 319 319 318 319 322 324 326 327 328 328 328 327 327 327 327 326
306 306 307 307 307 306 306 305 305 305 305 304 304 303 303 302 302 303 304 306 307 308 309 310 311 314 316 316 315 317 321 324 325 326 326 326 325 324 323 323 324 324
305 304 305 306 307 306 305 305 305 304 304 304 303 303 302 302 301 301 301 302 304 306 308 309 310 312 314 315 315 317 320 321 322 323 323 322 320 319 318 318 319 321
305 304 303 304 306 306 305 305 304 304 303 303 303 303 302 302 301 301 301 300 302 303 304 306 309 311 313 314 314 315 317 318 319 320 320 318 317 315 314 313 314 317

ECMWFNIL_925_thetae_087.txt.gz
Theta_e
332 333 333 334 335 334 334 335 335 335 334 334 336 335 333 332 332 333 334 334 335 334 333 334 335 335 334 334 333 333 333 332 333 334 334 334 334 334 334 334 333 334
330 331 332 333 334 333 334 333 332 333 332 332 335 336 334 333 334 335 335 335 335 334 334 334 334 335 334 333 333 333 333 331 332 334 335 335 334 333 333 333 333 334
328 329 330 332 332 332 333 332 329 329 331 332 333 335 335 334 334 334 334 334 335 335 335 335 335 334 334 334 333 333 333 332 333 335 335 335 335 334 334 333 333 334
326 327 329 330 332 331 331 332 330 329 331 331 332 334 334 334 334 334 334 334 334 336 336 335 335 334 334 334 333 332 333 333 334 334 335 335 335 334 333 334 335 333
324 326 328 329 331 331 330 330 330 330 331 331 330 332 332 333 334 334 334 334 334 335 336 335 334 334 334 334 333 332 333 333 334 334 333 334 333 332 332 334 334 333
324 325 326 328 329 330 330 330 330 330 330 330 329 330 331 332 334 335 334 334 333 334 334 334 334 334 334 333 332 333 334 334 334 333 333 332 331 330 332 334 334 334
323 324 325 326 328 329 329 330 330 330 330 330 330 330 330 331 333 335 334 333 333 334 333 333 334 334 334 333 332 333 334 334 334 333 333 332 331 330 332 334 334 334
322 322 323 324 326 327 328 329 330 330 330 330 331 330 330 331 332 333 334 333 333 334 334 333 334 334 333 333 333 332 333 333 333 333 332 331 331 331 332 334 334 334
321 321 321 322 323 324 326 327 328 329 330 330 330 330 331 332 332 332 333 334 333 333 333 334 335 334 333 334 333 332 332 333 333 332 331 331 331 331 331 332 333 333
320 320 320 320 321 321 323 324 325 327 329 330 330 331 331 333 332 332 334 334 333 332 333 334 335 334 334 334 333 333 332 331 332 332 332 330 329 330 330 330 332 333
319 319 319 319 319 320 320 321 322 324 326 328 329 330 331 332 332 333 334 333 332 332 332 333 333 333 334 334 334 334 332 331 331 331 331 331 330 329 329 329 332 334
318 318 318 318 318 318 318 319 320 322 324 326 328 329 330 331 331 333 334 333 332 331 331 332 331 332 333 333 333 333 333 331 331 331 331 331 330 330 329 330 332 333
317 317 317 317 317 317 318 318 318 320 322 324 326 328 329 330 330 331 332 333 332 331 331 331 331 332 333 333 334 334 333 332 331 331 330 331 331 330 329 329 331 332
316 316 316 316 316 316 316 316 317 318 320 321 323 326 328 329 330 330 330 331 332 332 331 331 330 331 332 332 333 334 333 333 332 331 330 331 332 332 329 330 332 332
316 315 315 315 315 315 315 315 315 316 317 317 319 321 325 327 328 329 330 330 331 332 331 331 330 330 330 331 332 333 333 333 331 331 330 330 331 332 331 331 332 332
315 315 315 314 314 314 314 314 314 314 314 315 315 317 320 323 324 327 328 329 331 331 331 330 330 330 331 331 331 331 331 332 332 331 330 330 330 330 331 332 331 331
314 314 314 313 313 313 313 313 313 313 313 313 313 313 315 317 318 321 324 326 328 328 329 330 330 329 330 331 331 330 330 331 332 331 330 329 329 329 331 332 331 331
313 313 313 313 312 312 312 311 311 311 311 311 311 311 311 312 313 315 318 322 324 325 327 328 328 328 329 330 330 330 330 330 331 330 328 328 329 328 329 330 329 329
313 312 312 312 311 311 310 310 310 310 309 309 310 310 309 309 309 310 312 316 318 320 322 323 324 326 328 328 329 330 330 330 329 328 327 328 328 328 328 330 330 328
312 312 311 311 311 310 310 310 309 309 309 308 308 308 308 307 306 306 307 310 312 314 315 317 320 323 326 326 327 328 328 329 328 328 327 326 327 328 329 331 332 331
311 311 311 310 310 310 310 309 309 308 308 307 307 307 306 305 305 304 304 305 307 309 310 312 314 318 321 322 324 324 325 327 327 327 326 325 326 329 329 329 330 330
310 310 310 310 310 310 309 309 308 307 307 306 306 306 305 304 304 303 303 303 304 305 307 308 309 312 315 317 320 322 323 325 326 326 326 325 325 328 329 328 328 328
309 309 309 309 309 309 309 308 307 307 306 306 305 305 304 304 303 303 302 302 302 303 304 305 306 309 311 314 317 319 319 322 324 325 324 324 325 327 328 327 326 327
308 308 308 308 308 308 308 308 307 306 306 305 305 304 304 303 303 302 302 301 301 301 301 302 304 307 309 312 315 316 317 320 322 323 324 325 325 325 325 324 324 326
306 306 307 307 308 307 307 307 307 306 306 305 304 304 303 303 302 302 301 301 300 300 300 301 302 305 308 311 314 315 317 320 322 322 323 322 321 321 320 320 322 324
305 305 306 306 306 307 306 306 306 306 306 305 305 304 303 302 302 302 301 300 300 300 300 299 300 302 306 310 313 314 316 319 321 320 318 318 318 317 316 317 318 320

ECMWFNIL_925_thetae_090.txt.gz
Theta_e
328 328 329 330 332 333 333 334 335 335 334 334 333 333 333 333 333 334 334 335 334 334 334 334 334 335 335 334 335 335 335 334 334 334 334 334 334 334 334 335 334 333
325 326 327 328 330 332 332 332 332 332 332 332 332 332 333 333 332 333 333 334 334 334 334 334 335 335 334 334 335 334 335 334 333 333 333 333 333 333 334 335 334 333
324 325 326 327 329 331 331 331 331 331 331 331 331 331 331 332 332 333 333 333 333 333 333 333 334 334 334 334 334 334 334 334 333 332 333 333 333 334 334 335 334 334
324 324 325 326 328 329 330 331 331 331 331 331 331 332 332 331 331 332 332 332 332 332 333 332 333 334 334 334 334 334 334 333 333 332 332 333 333 333 334 334 334 334
323 324 324 324 326 327 328 330 331 331 331 331 331 331 331 330 330 331 331 331 332 332 332 332 332 333 333 333 334 334 333 334 334 332 332 333 333 333 334 334 334 333
322 323 323 323 324 324 326 328 329 329 330 330 331 331 331 330 330 330 331 331 331 331 332 332 332 332 331 332 334 334 334 334 334 333 333 333 333 333 333 333 333 333
322 322 322 322 322 322 323 324 325 326 327 328 329 330 330 331 330 330 330 331 330 331 331 332 331 332 332 332 333 334 334 334 333 333 333 333 333 333 333 333 333 332
321 321 321 321 321 321 321 321 322 323 325 326 327 328 329 330 330 329 330 330 330 330 330 331 330 331 332 332 332 333 334 334 333 332 331 332 333 333 332 332 332 332
320 320 320 320 319 320 320 320 320 321 322 324 325 326 327 328 329 329 329 330 329 329 329 329 329 330 331 332 333 333 333 333 331 330 330 331 333 333 331 330 330 331
319 319 319 319 318 318 319 318 319 319 320 322 323 324 325 327 328 329 330 329 329 329 329 328 329 330 331 332 333 333 333 331 329 330 331 332 333 333 331 330 330 330
318 317 318 318 317 317 317 317 317 318 318 319 320 321 322 324 326 328 330 330 329 329 328 327 329 330 331 332 332 332 332 331 330 331 333 333 332 332 331 331 330 331
317 317 317 316 316 316 316 316 316 316 316 317 317 318 319 320 322 324 327 329 329 329 328 328 329 330 329 329 330 331 332 332 332 332 332 332 331 331 331 331 330 331
316 316 316 315 315 315 314 314 314 315 315 315 315 315 315 316 318 319 321 324 326 328 329 328 328 329 328 328 329 331 331 332 332 332 332 332 331 331 332 331 330 330
315 315 315 314 314 313 313 313 313 313 313 313 313 313 312 313 313 314 316 319 322 324 326 327 327 327 327 326 328 330 330 331 332 331 332 333 332 331 331 330 330 330
314 314 314 313 313 312 312 312 312 312 311 311 311 311 311 310 310 310 312 314 317 320 322 323 324 324 323 324 326 328 329 330 330 331 332 333 332 331 330 331 331 330
314 313 313 313 312 312 311 311 311 311 310 310 310 310 309 309 308 308 308 309 311 314 318 319 318 319 320 322 324 325 325 327 328 330 331 332 332 331 330 331 331 329
313 312 312 312 312 311 311 311 310 310 309 309 309 308 308 307 306 306 306 306 307 309 312 314 313 314 317 319 322 323 323 324 326 328 329 331 332 331 330 331 331 329
312 312 311 311 311 311 311 310 310 309 308 308 308 307 307 306 306 305 304 304 304 305 307 309 309 310 313 316 318 320 321 322 324 326 328 329 331 331 330 330 329 329
311 311 311 311 310 310 310 309 309 308 308 307 307 306 306 305 305 304 304 303 303 303 304 305 305 307 310 313 316 318 320 321 321 324 326 328 330 330 329 329 329 328
310 310 310 310 309 309 309 308 308 308 307 307 306 306 305 304 304 303 303 303 302 302 302 302 302 304 307 310 313 315 317 319 320 321 323 326 328 328 327 328 328 327
309 309 309 309 308 308 308 308 307 307 307 306 306 305 304 304 303 303 302 302 301 301 301 301 301 303 306 309 311 313 315 317 319 320 322 324 327 327 326 327 327 328
308 308 308 308 307 307 307 307 307 307 306 306 305 304 304 304 303 302 301 301 301 301 301 300 300 301 305 307 310 312 314 316 317 319 320 324 326 326 326 326 327 328
306 306 306 306 307 307 307 306 306 306 306 306 305 304 304 304 303 302 302 301 301 300 300 300 299 300 303 306 309 311 314 316 317 318 320 323 325 323 323 324 325 327
305 305 305 305 305 305 305 305 305 305 305 305 305 304 304 304 303 302 302 301 301 300 299 299 299 299 301 304 307 310 313 316 319 320 321 322 322 321 321 321 323 325
304 304 304 303 303 303 303 304 304 304 304 304 304 304 304 303 303 302 302 301 301 300 299 299 299 299 299 301 304 308 312 314 316 318 318 317 317 318 319 319 321 323
303 303 303 303 303 302 302 302 303 303 303 303 303 303 303 303 302 302 302 301 300 300 299 299 298 298 299 300 301 304 308 311 313 312 312 313 315 316 316 316 318 321

ECMWFNIL_925_thetae_093.txt.gz
Theta_e
323 323 324 324 326 327 328 329 330 331 331 331 332 331 331 332 332 331 330 331 332 332 332 332 332 333 333 334 334 333 334 334 334 334 333 331 332 334 335 334 333 333
323 323 323 323 324 324 325 327 329 330 330 330 331 331 331 331 331 330 330 330 331 331 332 332 332 332 333 333 333 333 333 333 334 334 333 333 332 332 334 335 334 334
322 322 322 322 322 322 323 325 325 326 327 328 329 330 330 331 331 330 330 330 330 330 331 332 332 332 333 333 333 333 334 333 334 334 334 334 333 332 333 334 334 334
321 321 321 321 321 321 321 321 322 323 324 325 326 328 329 329 330 330 329 330 330 330 330 330 331 332 332 332 331 331 332 332 332 333 332 333 333 332 333 333 333 334
319 319 320 319 319 320 320 319 319 320 321 322 324 325 326 327 329 330 329 329 329 330 330 330 330 331 331 332 330 330 329 329 330 330 330 331 332 333 333 333 333 333
319 319 319 318 318 318 318 318 318 318 319 320 322 323 324 325 328 329 329 329 329 330 330 330 330 330 331 331 331 329 329 329 330 330 329 331 332 332 332 333 333 333
317 318 317 316 317 316 317 317 317 317 318 319 319 320 321 323 325 326 328 329 330 329 329 329 329 330 330 329 330 329 329 329 328 329 330 332 333 331 331 332 332 333
316 316 315 315 315 315 315 315 316 316 316 317 317 318 319 320 322 324 325 327 328 329 329 329 329 329 328 328 329 329 330 328 328 330 331 331 332 331 330 330 331 332
315 314 314 314 314 313 314 314 314 314 314 315 315 315 317 318 319 321 322 323 326 327 328 329 328 328 328 328 329 330 330 329 329 331 332 331 331 331 330 330 331 331
313 313 313 313 312 312 312 313 312 312 312 313 313 313 313 315 317 319 319 320 322 324 326 327 326 325 326 327 328 330 331 330 329 329 330 329 329 330 330 331 331 331
313 312 312 312 311 311 311 311 311 311 311 311 311 311 311 311 313 315 315 316 317 320 322 321 320 321 321 322 323 325 327 329 328 328 328 328 327 327 329 331 332 332
312 312 312 312 311 311 310 310 310 310 310 309 309 309 309 308 309 311 311 312 314 316 317 317 316 316 317 318 319 322 324 326 327 328 328 328 327 326 328 331 332 332
312 311 311 311 311 310 310 310 309 309 309 308 308 308 307 307 307 308 308 309 311 313 314 313 312 313 314 315 317 319 321 324 326 327 327 327 327 327 329 331 332 332
311 311 310 310 310 310 309 308 308 308 307 307 307 306 306 306 305 305 305 306 307 309 310 309 309 309 310 311 313 316 319 321 323 326 327 327 327 327 329 330 332 332
310 310 309 309 309 308 308 308 307 307 306 306 305 305 305 304 304 304 304 304 304 304 305 306 306 305 306 307 309 313 316 319 320 323 326 327 327 327 327 329 331 331
309 309 308 308 308 307 307 307 307 306 305 305 305 304 304 303 302 302 302 302 302 302 302 303 302 302 304 306 308 310 313 316 319 321 323 325 326 326 328 330 332 330
308 308 308 307 307 307 307 306 306 306 305 304 304 303 303 302 301 301 301 301 301 301 301 301 300 301 303 306 308 309 311 313 317 320 322 323 325 326 327 329 331 330
307 307 307 307 306 306 306 306 306 306 305 304 304 303 303 302 301 301 300 300 300 300 300 300 299 300 303 306 308 310 311 313 315 318 320 322 324 325 326 327 329 330
306 306 306 306 306 306 305 305 305 305 305 304 303 303 303 302 301 301 300 300 300 300 300 300 299 300 302 305 308 310 313 314 315 316 319 321 323 323 325 327 328 329
304 304 304 304 304 305 304 304 304 305 305 304 303 303 302 302 301 301 300 300 299 299 299 299 298 299 301 305 307 310 313 315 316 317 318 320 321 322 324 326 327 327
302 302 302 302 302 303 303 304 304 304 304 303 303 302 302 302 301 301 300 299 299 299 298 298 298 298 301 303 306 309 313 315 317 318 319 319 320 323 324 325 326 326
302 302 301 301 301 302 302 302 303 303 303 303 302 302 301 301 301 300 299 299 299 298 298 298 298 299 300 302 304 307 311 313 314 316 318 318 319 321 323 324 326 327
303 301 300 299 300 300 301 301 301 302 302 302 301 301 301 301 300 300 299 299 298 298 298 297 297 298 299 301 302 304 308 310 311 311 313 314 314 315 317 319 322 325
302 300 298 298 298 299 299 300 300 300 300 299 300 300 301 300 300 300 299 299 298 298 297 297 297 298 299 299 301 302 304 306 307 308 309 310 311 311 313 314 316 320
301 300 298 298 298 298 298 298 299 299 298 298 298 299 299 300 299 299 299 299 298 298 297 297 297 298 299 299 299 301 302 302 304 304 304 305 306 307 309 311 312 315
301 300 299 298 298 298 298 297 298 298 297 297 297 297 298 299 299 298 298 298 298 298 297 297 297 297 298 299 299 300 300 301 302 301 301 301 302 303 305 307 310 312

ECMWFNIL_925_thetae_096.txt.gz
Theta_e
321 321 321 321 321 321 322 322 323 323 324 325 325 326 328 328 329 330 330 330 330 330 330 330 330 331 332 332 332 332 333 333 333 333 333 333 333 332 331 331 332 331
319 319 320 320 320 320 319 320 320 322 322 323 323 324 326 327 328 329 330 329 329 329 330 330 330 330 331 331 331 332 333 333 333 333 332 331 331 331 330 330 331 332
318 318 318 318 318 318 317 318 319 320 321 321 322 322 323 325 326 327 328 329 329 329 329 329 329 330 330 330 330 331 331 331 331 331 330 329 330 329 329 330 330 331
317 317 316 317 317 316 316 316 317 317 318 319 319 320 321 323 324 325 326 327 328 329 329 329 329 329 329 329 330 330 330 330 330 330 329 329 328 329 329 329 328 328
315 315 314 315 315 315 315 315 315 315 316 316 317 318 320 321 322 323 324 324 326 327 328 328 328 328 328 329 329 329 329 329 329 329 329 329 328 328 329 329 329 328
313 313 313 313 313 313 313 313 313 313 313 314 314 316 317 318 319 321 320 321 323 324 324 325 325 325 326 327 328 328 328 328 328 328 328 328 328 328 328 329 329 330
311 311 311 312 311 311 311 311 311 312 312 312 312 312 313 314 316 317 316 317 319 318 319 320 321 322 323 324 325 326 327 328 329 329 329 328 328 328 328 328 329 331
310 310 310 310 310 310 310 310 310 310 310 310 310 310 310 311 313 313 313 315 315 314 315 316 318 319 321 322 322 323 325 327 328 329 330 329 328 328 328 329 330 330
310 310 309 309 309 309 309 309 308 309 308 308 308 308 308 308 309 310 311 312 312 311 311 313 314 315 317 318 319 320 322 324 326 328 328 329 329 328 328 329 330 330
310 309 309 309 308 308 308 307 307 307 307 307 307 307 306 307 307 307 308 309 309 309 309 309 311 312 313 314 315 317 318 320 322 324 326 327 328 328 328 328 329 329
309 309 308 308 307 307 307 306 306 306 305 305 305 304 305 305 305 305 305 305 306 306 307 306 306 307 309 311 312 313 315 317 319 322 323 325 327 327 328 328 328 328
308 308 307 307 307 306 306 305 305 304 304 304 303 302 302 303 303 303 303 303 303 303 304 304 303 304 306 308 309 311 312 315 317 320 322 324 325 326 327 327 327 327
307 307 306 306 306 306 305 304 304 303 303 303 302 301 301 301 301 302 302 302 302 302 302 302 302 303 304 305 307 309 311 312 315 318 321 323 324 325 326 327 327 326
307 306 306 306 306 305 304 304 303 303 303 302 301 301 300 300 300 300 300 301 301 301 301 301 301 301 302 304 306 307 309 311 313 315 318 321 323 324 325 326 326 326
306 305 305 305 305 305 304 304 303 303 303 302 301 301 300 300 300 299 299 300 300 300 300 300 300 299 300 302 305 307 310 312 313 314 316 318 322 324 325 326 326 326
306 305 304 304 305 305 304 303 302 302 302 302 301 300 300 299 299 299 299 299 299 299 299 299 299 298 299 302 305 307 309 312 314 315 315 316 319 322 324 325 326 326
305 304 304 304 304 304 304 303 302 301 301 302 301 300 299 299 299 299 298 298 298 298 299 299 298 298 300 304 306 308 310 311 313 314 315 316 316 318 321 323 324 325
302 302 302 302 303 304 303 303 302 301 301 301 300 300 299 299 298 298 298 298 298 298 298 298 298 298 300 303 306 309 310 312 312 312 314 315 316 316 318 321 322 324
301 301 301 301 302 302 302 302 302 301 301 301 300 300 299 299 298 298 298 298 298 297 298 297 297 298 300 302 305 308 310 311 311 310 312 314 315 315 316 319 321 323
301 300 300 300 300 299 299 299 300 300 301 300 300 299 299 299 298 298 297 297 297 297 298 298 297 298 299 301 304 307 309 310 309 308 309 310 311 311 313 315 318 320
299 299 299 298 297 297 297 297 298 298 299 300 299 299 299 298 298 298 297 297 297 297 297 298 297 298 299 300 302 305 307 308 308 306 306 307 308 309 309 310 313 316
298 298 298 297 297 296 296 296 296 297 298 299 299 298 298 297 297 297 297 297 297 297 297 297 297 298 299 300 301 303 304 305 305 304 304 305 306 306 307 308 309 311
297 297 297 297 296 296 296 296 295 295 296 297 298 297 297 296 297 297 297 296 296 296 296 297 297 297 298 299 300 301 302 302 302 302 302 303 304 304 305 306 306 307
297 297 297 296 296 296 295 295 295 295 295 296 297 296 296 295 296 296 297 296 296 296 296 296 297 297 298 299 299 300 301 300 300 300 301 301 302 303 303 304 305 306
297 297 297 296 296 295 295 295 295 294 295 295 295 295 295 295 295 296 297 297 296 296 296 296 296 297 297 298 299 299 300 299 299 299 299 299 300 300 301 302 303 304
297 297 296 296 295 295 295 295 294 294 295 295 295 295 295 295 295 296 296 297 297 296 296 296 296 297 297 298 298 299 299 299 298 298 298 298 298 298 298 299 300 301

ECMWFNIL_925_thetae_099.txt.gz
Theta_e
319 319 319 319 319 320 320 320 320 320 320 320 320 321 322 323 324 326 326 327 328 328 329 329 329 329 328 328 329 329 329 330 330 330 331 331 332 331 332 332 331 331
318 318 317 317 317 317 317 317 318 319 318 318 319 320 321 322 323 324 325 326 327 327 327 328 328 328 327 327 328 328 329 329 330 330 330 330 330 330 331 331 331 331
316 316 316 315 314 314 315 315 316 316 316 317 318 318 319 320 321 322 323 323 323 324 325 325 326 326 326 327 327 327 328 329 329 329 329 329 329 329 329 329 330 330
314 314 314 313 313 312 313 313 313 313 314 314 315 316 317 318 320 320 321 321 319 320 321 322 322 323 324 325 326 327 327 327 327 328 328 329 329 329 328 328 329 329
312 312 311 311 311 311 311 311 311 311 311 312 312 314 315 316 317 318 319 318 316 317 319 319 320 320 321 322 323 324 325 325 326 327 327 328 328 329 329 329 328 328
310 310 310 310 309 309 309 309 309 309 309 309 310 311 312 313 314 314 315 315 314 315 316 316 317 318 318 320 320 322 322 323 324 324 326 327 328 328 329 329 328 328
309 309 309 308 308 308 308 308 307 307 307 307 308 309 310 311 311 312 312 313 313 313 313 313 314 315 315 316 317 318 320 320 321 321 322 325 327 327 328 328 328 328
308 308 308 307 307 306 306 306 305 305 306 307 307 307 307 308 308 308 309 311 311 310 310 310 311 312 312 313 313 314 316 317 317 318 319 321 324 325 326 327 328 328
307 307 307 306 305 305 304 304 303 303 304 305 305 305 306 306 305 305 306 308 307 306 306 307 309 309 310 310 310 311 312 313 314 315 315 317 320 322 324 325 327 328
307 306 306 305 304 304 303 303 302 302 302 302 303 303 304 304 304 303 303 304 304 303 303 303 304 305 307 308 308 308 309 311 313 314 314 315 316 320 323 324 325 327
306 305 304 304 303 303 302 302 301 301 301 301 302 302 302 302 303 302 301 301 301 301 301 301 300 301 302 304 306 307 309 310 311 312 313 314 315 317 319 321 324 326
306 305 304 303 303 303 302 302 301 300 300 301 301 301 301 301 301 301 300 300 300 300 300 300 299 298 298 300 303 306 308 309 309 310 312 313 314 315 317 318 321 324
305 305 303 302 302 302 302 302 301 300 300 300 300 301 301 300 300 300 299 299 299 299 299 299 298 298 297 298 301 304 306 308 309 310 311 312 314 314 315 317 318 321
305 305 303 302 301 301 301 301 301 300 299 299 299 300 299 299 299 298 298 298 298 298 298 298 298 298 297 298 299 302 304 307 310 311 311 312 313 314 315 315 316 318
304 304 304 302 301 301 300 300 300 299 299 299 299 299 298 298 298 298 297 297 298 298 298 298 298 298 297 298 298 300 302 306 309 309 309 310 311 312 313 313 314 316
303 304 303 302 302 301 301 300 299 299 299 298 298 298 298 298 298 298 297 297 297 298 298 298 298 298 299 300 300 300 302 305 307 306 307 308 309 310 310 311 312 314
303 303 302 302 302 301 301 300 300 299 299 298 298 298 298 298 298 297 297 297 297 297 297 297 297 298 300 302 302 302 303 304 304 305 306 306 307 307 307 309 311 313
301 300 299 299 300 300 300 300 299 299 298 298 298 298 297 297 297 297 297 297 297 297 297 297 297 298 300 301 302 303 303 302 302 304 304 304 304 304 304 305 306 309
297 297 297 297 298 299 299 299 298 298 297 297 297 297 297 297 297 297 297 297 296 296 297 296 297 298 300 301 302 303 303 301 301 302 302 302 302 302 302 302 302 303
296 296 296 296 296 297 297 297 297 297 296 297 297 297 297 297 297 296 296 296 296 296 296 296 296 298 299 300 301 302 302 300 300 301 301 301 301 300 300 300 301 301
295 295 295 295 295 296 296 296 296 296 296 296 297 297 297 297 296 296 296 296 296 296 296 296 296 297 299 300 300 301 302 300 299 299 300 299 299 299 299 299 300 300
295 295 294 294 294 295 295 295 295 295 295 296 297 297 297 297 297 296 296 296 296 296 296 296 296 297 298 299 299 300 301 300 298 298 299 298 298 298 298 298 299 299
295 294 294 294 294 295 294 295 295 294 295 296 297 297 297 297 296 296 296 296 296 296 296 296 296 296 297 298 299 300 300 299 297 297 298 298 298 298 297 297 298 298
295 294 294 294 294 294 294 294 294 294 294 295 296 296 296 296 297 297 296 296 296 296 296 296 296 296 297 297 298 299 299 298 296 296 297 297 297 297 297 297 297 297
295 294 294 294 294 294 294 294 294 294 294 295 295 296 296 296 297 297 297 297 296 296 296 296 296 296 296 297 297 297 298 297 296 295 296 296 296 296 296 296 296 296
295 295 294 294 294 294 294 294 294 294 294 295 295 295 296 296 296 296 296 296 296 296 296 296 296 296 296 296 296 296 297 297 296 295 295 296 296 296 296 295 295 296

ECMWFNIL_925_thetae_102.txt.gz
Theta_e
316 316 316 315 315 315 315 316 316 316 316 316 317 317 318 319 319 320 320 321 321 321 321 322 322 323 323 324 325 325 326 326 327 327 327 327 327 327 327 328 329 329
314 314 314 313 313 313 313 313 313 314 314 314 315 315 316 317 317 318 318 318 319 320 320 320 320 320 321 322 323 323 324 325 325 326 326 326 326 326 326 327 327 327
312 312 311 311 311 311 311 311 311 312 312 312 313 313 314 315 315 316 317 317 318 318 318 318 318 318 318 319 320 321 321 322 322 323 324 325 325 325 326 327 328 328
310 310 310 309 310 310 310 310 310 311 311 311 312 312 313 313 314 314 315 315 316 317 316 315 316 316 316 317 318 318 318 319 319 319 321 323 323 324 325 327 328 328
309 308 308 308 308 309 309 309 309 310 311 311 311 312 312 312 312 312 313 313 313 314 314 314 314 314 315 315 315 316 316 316 316 317 318 319 321 322 323 325 327 327
307 307 307 307 307 307 307 307 307 308 309 309 310 311 311 311 310 310 310 310 309 309 310 311 311 312 312 312 312 313 313 313 314 314 315 316 317 319 320 321 323 325
306 306 306 306 306 305 305 305 306 306 307 307 309 309 310 310 308 307 307 307 305 304 304 304 305 307 308 307 308 309 309 311 312 312 313 314 315 316 317 318 319 321
305 304 304 304 304 303 303 304 304 304 304 306 306 306 306 306 305 304 303 303 302 301 301 301 301 302 303 303 303 304 306 309 310 310 310 310 311 312 314 315 315 316
303 303 303 303 302 302 302 302 302 302 303 303 303 303 304 304 302 301 301 300 300 300 300 299 299 299 300 300 300 301 303 306 308 308 308 307 307 308 310 311 311 312
303 302 302 302 302 301 301 301 301 301 302 302 302 303 303 302 302 300 299 299 299 299 299 299 298 298 298 298 299 300 301 304 306 307 307 307 306 307 308 308 308 309
302 302 302 302 301 300 300 300 300 301 301 301 302 302 302 302 301 300 299 299 299 298 298 298 298 298 297 297 298 299 301 303 304 306 306 307 307 307 307 308 308 309
301 302 302 301 301 300 299 299 299 300 300 300 300 301 301 300 299 298 298 298 298 298 298 298 298 298 297 297 298 299 300 302 303 304 305 306 307 307 307 308 309 310
301 301 301 300 299 299 299 299 299 299 299 299 299 300 300 299 298 297 298 298 298 298 298 298 298 297 297 298 299 300 301 302 302 303 305 305 306 306 307 307 308 309
301 301 300 300 299 299 298 298 298 298 298 298 299 299 299 299 298 298 298 297 297 297 297 297 298 298 297 297 298 300 301 302 302 303 304 304 305 305 305 305 306 306
302 302 301 300 300 299 298 298 298 298 298 298 298 298 298 298 298 298 298 298 297 297 297 297 298 298 298 298 298 299 300 301 301 302 303 303 303 303 303 303 303 303
302 301 301 300 299 298 298 298 298 298 298 298 298 298 298 298 298 298 298 297 297 297 297 297 297 298 299 299 299 299 299 300 301 301 302 302 301 301 301 301 301 302
300 300 300 299 298 297 297 298 298 298 298 298 298 298 297 297 298 298 297 297 297 297 296 296 296 298 299 300 300 300 300 299 300 301 301 300 300 300 300 300 300 300
298 298 298 298 297 297 297 298 298 298 298 298 297 297 297 297 297 297 297 297 297 296 296 296 296 297 298 299 300 300 300 299 299 300 299 299 299 299 299 299 299 299
296 297 297 297 296 296 296 297 298 298 297 297 297 297 298 298 297 297 297 296 296 296 296 295 296 297 298 298 298 299 300 299 298 298 298 298 298 298 298 298 298 298
296 296 296 296 295 295 296 297 297 297 297 297 297 297 297 297 297 297 297 296 296 296 296 295 295 296 296 297 297 298 299 298 297 297 298 297 297 297 297 297 297 298
295 295 295 295 295 295 296 297 297 297 297 297 297 297 297 296 296 296 296 296 296 296 296 295 295 295 296 296 296 296 297 297 296 296 297 297 296 296 296 296 296 297
294 294 294 294 294 295 295 296 297 297 297 297 296 296 296 296 296 296 296 296 296 296 296 296 295 295 295 295 296 296 296 297 296 295 296 296 296 296 296 295 296 297
294 294 294 294 294 295 295 295 296 296 296 296 296 296 296 296 296 296 296 296 296 296 296 295 295 295 295 295 295 296 296 296 295 294 295 295 295 295 295 295 295 296
294 294 294 294 294 294 295 295 295 296 296 296 296 296 296 296 296 296 296 295 295 295 295 295 295 295 295 295 295 295 295 295 294 294 294 294 294 294 294 294 295 295
294 294 294 294 294 294 294 294 295 295 295 296 296 296 296 296 296 295 295 295 295 295 295 295 295 295 295 295 295 295 295 295 294 293 293 294 294 294 294 294 294 294
294 294 294 294 294 294 294 294 294 294 295 295 295 296 296 296 296 295 295 295 295 295 295 295 295 295 295 295 295 295 295 295 294 293 293 293 293 293 293 293 293 294

ECMWFNIL_925_thetae_105.txt.gz
Theta_e
315 314 314 314 314 314 314 314 314 314 313 313 314 313 313 314 314 314 315 315 316 316 315 315 316 316 316 316 317 317 317 317 318 318 319 320 321 322 324 325 325 326
313 312 312 312 312 312 312 312 312 312 312 312 312 312 312 312 312 313 313 313 314 314 314 314 314 314 314 314 314 314 315 315 315 315 316 317 318 319 321 322 324 325
311 311 311 310 310 310 310 310 310 310 310 310 310 310 311 310 310 310 310 311 311 311 311 312 312 312 312 311 311 311 311 311 311 312 313 314 314 315 316 318 320 321
309 309 309 308 308 309 309 309 309 308 307 308 308 308 309 309 308 308 308 308 308 307 308 308 308 308 308 307 307 307 307 308 308 309 309 311 312 313 313 314 315 317
308 308 307 306 306 307 306 306 306 305 305 305 306 306 307 307 306 306 306 305 305 304 304 304 304 304 304 304 304 304 305 306 306 306 307 308 309 310 311 311 312 313
306 305 305 304 304 304 304 303 303 304 304 304 304 304 305 305 304 304 304 303 303 302 302 302 302 302 302 303 303 304 304 305 306 306 306 307 308 309 309 309 310 311
304 303 303 303 303 303 303 303 303 303 303 303 303 302 303 303 303 303 302 302 302 302 301 302 301 302 302 302 302 303 303 305 305 305 306 306 307 308 308 309 309 310
304 303 303 302 302 302 302 302 303 302 303 303 302 301 302 302 302 302 302 301 301 301 301 301 301 301 301 301 301 301 302 304 304 304 305 305 305 306 307 307 308 309
304 303 302 302 302 302 302 302 302 302 302 302 301 300 301 302 301 301 301 301 301 301 301 301 301 301 300 300 300 300 301 302 303 303 304 305 305 306 306 307 308 308
303 302 302 301 301 301 301 301 301 301 301 301 301 300 301 301 301 301 300 300 301 301 301 301 300 300 300 299 300 300 300 301 302 303 303 304 305 306 306 307 308 308
303 302 301 301 301 300 300 300 301 301 301 301 300 300 300 300 300 300 300 300 300 300 300 300 300 299 299 299 299 299 300 301 302 302 304 305 305 306 306 306 307 307
302 302 301 301 300 300 300 300 300 300 300 300 300 299 299 299 300 300 300 300 300 300 300 299 299 299 298 298 299 299 300 301 302 303 304 305 305 305 305 305 305 305
302 301 301 300 299 299 299 299 299 299 299 299 299 299 299 299 299 299 299 299 299 299 299 299 298 298 298 298 298 299 300 301 302 303 303 303 303 303 303 303 303 303
301 300 300 299 299 299 299 299 299 299 299 299 299 299 299 298 298 299 299 298 298 298 298 298 297 297 297 297 298 299 300 301 302 302 302 302 302 302 302 302 302 302
300 299 299 299 299 299 299 299 299 299 299 299 299 299 298 298 297 298 298 298 298 298 298 297 296 296 296 296 297 298 299 300 301 301 301 301 301 301 301 301 301 301
299 298 298 299 299 298 298 298 298 299 298 298 298 298 297 297 297 297 297 297 297 297 297 297 296 295 296 296 297 297 298 299 300 301 301 301 300 300 300 300 300 300
298 298 297 298 298 298 298 298 298 298 298 298 297 297 297 297 297 296 297 297 297 297 297 297 296 295 295 296 296 297 297 298 299 300 300 300 299 299 299 299 299 299
298 297 297 298 298 297 297 297 297 298 297 297 297 296 296 296 296 296 296 296 297 297 297 296 295 295 295 296 296 296 297 298 299 299 299 299 299 298 298 298 298 298
296 296 296 297 297 297 297 296 297 297 297 296 296 296 296 296 296 296 296 296 297 297 297 296 295 295 295 296 296 296 296 297 298 298 298 299 298 298 298 298 297 297
296 295 296 297 297 297 296 296 296 296 296 296 296 296 295 295 295 295 296 296 296 296 296 296 295 295 295 296 296 296 296 296 297 297 298 298 298 298 297 297 297 297
295 295 296 296 297 297 296 296 296 296 296 296 296 295 295 295 295 295 295 296 296 296 296 296 295 295 295 296 296 296 296 296 297 297 297 297 297 297 297 297 296 296
295 295 295 296 296 296 296 296 296 296 296 296 295 295 295 295 295 295 295 296 296 296 296 296 295 295 295 296 296 296 296 296 296 296 296 296 296 296 296 296 296 296
295 295 295 296 296 296 296 296 296 296 295 295 295 295 295 295 295 295 295 296 296 295 296 296 295 294 294 295 295 295 296 296 296 296 296 296 296 296 296 296 296 295
295 295 295 295 295 295 296 296 295 296 295 295 295 295 295 295 296 296 295 295 295 295 295 295 295 294 294 294 295 295 295 295 296 296 296 296 296 296 296 295 295 295
294 294 294 295 295 295 295 295 295 295 295 295 295 295 295 295 295 295 295 295 295 294 294 294 295 294 294 294 295 295 295 295 295 295 295 295 295 295 295 295 295 295
294 294 294 294 294 294 294 294 295 294 294 294 295 295 295 295 295 295 295 295 295 295 294 294 294 294 294 294 294 295 295 295 295 295 295 295 295 295 295 295 295 295

ECMWFNIL_925_thetae_108.txt.gz
Theta_e
318 318 318 318 317 316 316 317 317 316 316 316 316 316 316 315 315 315 315 315 314 314 313 313 313 313 313 313 313 314 315 316 316 316 316 317 318 319 320 321 321 322
316 316 316 316 315 315 315 315 315 315 314 314 314 314 314 314 313 313 313 313 313 312 311 311 311 310 310 311 311 312 313 313 313 313 313 314 316 317 318 318 318 319
314 314 314 314 314 313 314 313 313 313 313 313 313 313 313 312 312 312 311 311 310 309 309 309 309 309 309 309 309 310 310 310 311 310 311 312 313 314 315 315 316 317
312 312 312 312 312 312 312 312 312 312 312 311 311 311 311 310 310 310 309 309 308 308 308 308 308 308 308 308 309 309 309 309 309 309 310 311 311 312 312 313 314 315
311 311 311 311 311 311 311 311 310 310 310 310 310 310 309 309 309 308 308 308 307 308 308 308 308 307 307 308 308 308 308 309 309 309 309 310 310 311 311 312 313 313
311 310 310 310 310 310 310 309 309 309 309 309 309 309 308 308 307 307 307 307 307 307 307 307 307 307 307 307 307 307 308 308 308 308 309 309 310 311 311 311 312 312
310 310 310 309 309 309 309 308 308 308 308 308 308 308 307 307 306 306 306 306 306 306 306 306 307 306 307 307 307 306 307 307 307 308 308 309 309 310 311 311 311 312
309 309 309 309 309 308 308 308 308 308 308 308 307 307 306 306 306 306 306 306 306 306 306 306 306 306 306 306 306 306 306 306 306 307 308 308 309 310 310 310 311 312
309 308 308 308 308 308 308 307 307 307 307 307 307 306 306 305 305 305 305 305 305 305 305 305 304 305 305 305 305 305 305 306 306 306 307 308 309 309 309 310 310 311
308 308 308 308 308 307 307 307 307 306 306 306 306 306 306 305 305 305 305 305 304 304 304 303 303 303 303 304 304 305 305 305 306 306 307 308 308 308 308 308 309 309
307 307 307 307 307 307 307 306 306 306 305 305 305 305 305 305 305 305 304 304 303 303 303 302 302 301 301 302 303 304 305 305 306 306 306 307 307 307 307 307 307 307
307 307 307 307 306 306 306 306 305 305 305 305 305 305 305 304 304 304 303 303 302 302 302 301 301 300 300 300 301 303 304 304 305 305 306 306 306 306 306 306 306 305
306 306 306 306 305 305 305 305 304 304 304 304 304 304 304 303 303 303 303 302 302 301 301 300 300 299 298 298 299 301 303 304 304 304 305 305 305 305 305 305 304 304
305 305 305 305 305 304 304 304 304 304 303 303 303 303 303 303 303 303 302 302 302 301 300 300 299 298 296 296 297 300 302 303 303 303 303 303 304 303 303 303 303 303
304 304 304 304 304 304 304 304 303 303 303 303 302 302 302 302 302 302 302 302 301 301 300 300 298 297 296 296 296 298 301 302 302 302 303 302 302 302 302 302 302 302
304 304 303 303 303 303 303 303 303 302 302 302 302 302 302 302 302 302 302 302 301 301 301 300 297 296 296 296 297 298 300 301 302 302 302 302 301 301 301 301 301 301
303 303 303 302 302 302 302 302 302 302 302 302 302 302 302 302 302 302 302 302 301 301 300 299 297 296 296 297 297 298 299 301 301 301 301 301 301 301 300 300 300 300
302 302 302 302 302 302 302 302 301 301 301 302 302 301 302 302 302 302 302 302 301 301 300 299 297 295 296 296 297 298 299 300 301 300 300 300 300 300 300 300 299 299
302 302 301 301 301 301 301 301 301 301 301 301 301 301 301 302 302 302 301 301 301 301 300 298 296 295 296 296 297 298 299 300 300 300 300 300 300 300 300 299 299 299
301 301 301 301 301 301 301 301 301 301 301 301 301 301 301 301 302 301 301 301 301 301 300 298 295 295 296 296 297 298 299 300 300 300 300 299 299 299 299 299 298 298
301 301 301 301 300 301 301 301 301 301 301 301 301 301 301 301 301 301 300 301 301 301 301 298 295 295 296 296 297 298 299 300 300 299 299 299 299 299 299 298 298 297
300 300 301 301 300 300 301 301 301 301 301 301 301 301 301 301 300 300 300 300 300 300 300 299 296 295 296 296 296 298 299 300 300 299 299 299 299 298 299 298 298 297
300 300 300 300 300 301 301 300 301 301 301 300 300 301 301 300 300 300 300 299 299 299 300 299 296 295 295 296 296 297 299 300 300 299 299 299 299 299 299 298 298 297
299 299 300 300 300 300 300 300 300 300 300 300 300 300 300 300 300 300 300 299 299 298 299 299 297 295 295 295 295 296 299 300 299 299 299 299 299 299 299 298 298 297
299 299 300 300 300 300 300 300 300 300 300 300 300 300 300 300 300 300 300 299 299 298 297 298 298 295 294 295 295 296 297 299 299 298 299 299 298 299 299 298 298 298
299 299 299 299 299 299 299 299 299 299 300 300 299 299 300 300 300 300 300 299 299 299 297 297 297 296 294 294 294 295 296 297 298 298 298 299 298 298 298 298 298 298

ECMWFNIL_925_thetae_111.txt.gz
Theta_e
322 322 321 320 320 320 320 320 319 319 319 319 318 318 317 316 316 316 316 316 315 315 314 314 314 314 314 315 314 315 316 315 315 315 314 315 316 317 317 318 318 319
319 319 319 319 318 318 318 318 318 318 317 317 317 316 316 315 315 315 314 314 314 314 314 314 314 313 314 314 314 314 314 314 313 313 313 314 315 315 315 316 316 317
318 318 318 317 317 317 317 317 317 316 316 316 315 315 314 314 314 313 313 313 313 313 313 313 313 313 313 313 313 313 313 313 312 312 312 313 313 314 314 314 315 315
316 316 316 316 316 316 316 316 315 315 315 314 314 314 314 314 313 313 312 313 313 312 312 312 312 312 312 312 313 312 312 312 311 311 312 312 313 313 313 313 314 314
316 315 315 315 315 315 315 315 314 314 314 314 314 314 313 313 312 312 312 312 312 312 312 312 312 311 312 312 311 311 311 311 310 310 311 311 312 312 312 312 313 313
315 315 314 314 314 314 314 314 313 313 313 313 313 312 312 312 311 311 311 311 311 310 310 310 310 310 311 311 310 310 310 309 309 310 310 311 311 311 312 312 312 312
314 314 314 313 313 313 313 313 313 313 313 312 312 311 311 311 310 310 310 310 309 309 309 308 309 309 309 310 310 309 309 309 309 309 309 310 310 311 311 311 311 311
313 313 313 312 313 312 313 313 313 313 312 311 311 310 310 310 310 310 309 308 308 307 307 307 307 307 308 309 309 309 309 309 308 308 309 309 310 310 310 310 310 310
312 312 312 312 312 312 312 312 312 312 311 311 310 310 310 309 309 308 308 307 307 306 305 305 305 305 306 307 308 308 309 308 308 308 308 309 309 309 309 309 309 309
312 311 311 312 312 312 311 311 311 311 310 310 310 309 309 308 308 307 306 306 305 305 304 304 304 304 304 305 306 307 308 308 308 308 308 308 308 308 308 308 307 307
311 311 311 311 311 311 310 310 310 310 310 309 309 309 308 308 307 306 305 305 304 304 303 303 303 302 303 304 305 306 307 307 307 307 307 307 307 307 307 306 306 306
310 310 310 310 310 310 310 309 309 309 309 308 308 307 307 307 306 305 305 304 303 303 303 302 301 301 301 302 303 305 307 306 306 306 306 306 305 305 305 305 305 304
310 310 310 309 309 309 308 308 308 308 308 307 307 307 306 306 305 305 304 304 303 302 302 301 300 299 299 300 302 304 306 306 306 305 305 305 305 304 304 304 303 303
309 309 309 308 308 308 307 307 307 306 307 306 306 306 306 305 305 305 304 303 303 302 301 300 299 299 298 299 300 302 304 305 305 305 304 304 304 303 303 303 303 302
308 308 308 307 307 307 307 306 306 306 306 305 305 305 305 305 305 304 304 303 303 302 301 300 298 298 298 298 299 300 303 305 304 304 304 303 303 303 303 302 302 302
308 308 307 307 306 306 306 305 305 305 305 305 305 305 305 305 305 304 304 303 302 302 301 300 297 297 298 299 299 300 302 304 304 303 303 302 302 302 302 302 301 301
307 306 306 306 306 305 305 305 305 305 305 305 305 305 305 305 305 305 304 303 302 301 301 299 297 297 298 299 300 300 301 303 303 303 302 302 302 302 301 301 301 300
306 306 305 305 305 305 304 304 304 305 304 305 305 305 305 305 305 305 304 304 302 301 300 299 297 297 298 299 300 300 301 302 303 302 302 301 301 301 301 300 300 299
305 305 305 305 304 304 304 304 304 304 304 304 304 304 304 304 305 305 304 304 303 301 300 298 296 296 298 299 300 300 301 302 302 302 301 301 301 301 300 300 299 299
304 304 304 304 304 304 304 304 304 304 304 304 304 304 304 304 304 304 304 304 303 301 300 297 295 296 298 299 300 301 301 302 302 302 301 301 301 300 300 300 299 299
304 304 304 304 304 304 304 304 304 304 303 303 303 303 303 303 303 304 304 304 303 302 300 298 295 295 297 299 300 301 301 302 302 301 301 301 301 300 300 300 299 299
304 304 304 303 303 304 304 304 304 303 303 303 303 303 303 303 303 303 303 303 303 302 300 298 295 295 296 298 300 301 302 302 302 301 301 301 301 300 300 300 299 298
303 303 303 303 303 303 303 304 303 303 303 303 303 303 303 303 302 302 301 302 302 302 301 299 296 294 295 297 299 300 301 302 302 302 301 301 301 301 300 300 299 298
303 303 303 303 303 303 303 303 303 303 303 303 303 303 303 303 303 302 301 300 300 300 301 300 296 294 294 296 297 299 301 302 302 302 301 301 301 301 300 300 300 298
302 302 302 302 303 303 303 303 303 303 303 303 303 303 302 302 303 302 302 301 300 299 299 300 298 295 294 295 296 297 300 301 301 301 302 301 300 300 300 300 299 299
302 302 302 302 302 302 302 302 303 303 303 303 302 302 302 302 302 302 302 302 301 299 298 298 298 297 294 294 295 295 297 299 300 300 301 301 301 300 299 299 299 299

ECMWFNIL_925_thetae_117.txt.gz
Theta_e
327 326 324 323 322 322 322 321 320 319 318 317 316 315 315 315 315 314 314 313 313 313 313 313 313 312 312 312 311 310 310 311 311 311 311 311 312 311 311 310 310 310
324 324 323 322 321 320 320 320 319 318 317 316 315 315 314 313 314 314 313 312 312 312 312 312 311 311 310 310 309 309 310 310 310 310 310 310 310 309 309 309 309 308
322 322 322 321 320 319 319 318 318 317 316 315 314 314 313 313 312 312 312 311 311 311 311 311 310 310 310 309 309 309 309 309 310 310 309 309 309 308 308 308 307 306
320 320 319 319 319 318 317 316 316 315 315 315 314 313 313 312 311 310 309 309 308 309 310 310 310 310 310 309 309 309 309 309 309 308 308 308 307 306 306 306 305 305
318 318 318 317 317 317 316 315 315 315 314 314 313 312 311 310 309 308 307 307 307 307 308 309 310 309 309 309 308 308 308 307 307 307 306 306 305 305 305 305 304 303
318 318 318 317 316 316 315 315 314 314 313 312 311 310 309 308 307 306 305 305 305 306 307 308 309 309 308 308 308 307 307 306 306 305 305 304 304 304 303 303 303 303
316 317 316 316 315 315 315 314 313 312 312 311 310 309 308 306 305 304 304 304 303 304 306 308 308 308 308 307 307 306 306 305 305 305 304 304 303 303 303 303 302 302
315 315 315 315 315 314 313 313 312 311 310 309 308 307 306 305 304 304 303 302 301 302 305 307 307 307 307 306 306 305 305 304 304 304 303 303 302 302 302 302 301 301
315 314 314 314 314 313 312 312 311 310 308 307 306 306 305 304 303 303 301 300 298 301 305 307 306 306 306 306 305 305 304 304 303 303 302 302 302 301 301 301 301 301
314 314 314 314 313 312 311 311 310 309 307 306 305 304 303 302 301 299 298 298 298 300 304 306 306 306 306 305 304 304 303 303 303 302 302 301 301 300 300 301 301 301
314 313 313 313 312 312 311 310 309 308 307 306 305 304 303 302 299 297 296 298 299 300 303 305 305 305 305 305 304 303 303 303 302 302 301 300 300 300 300 301 301 300
313 312 312 312 311 311 310 309 309 308 307 305 304 304 303 302 300 297 297 299 300 300 302 303 304 305 305 304 303 303 302 302 302 301 300 300 300 300 300 300 300 299
312 312 311 310 310 309 308 308 307 306 305 305 304 303 303 302 300 298 297 299 300 301 301 302 303 304 304 304 303 302 302 302 301 300 300 300 299 299 299 299 299 299
311 311 310 310 309 308 308 307 307 306 305 304 304 303 302 302 300 298 298 299 300 300 301 302 302 303 304 303 303 302 302 301 301 300 300 299 298 298 299 299 299 299
310 310 310 309 308 308 307 307 306 306 305 304 303 303 302 300 299 297 298 299 300 300 301 301 302 302 303 303 303 302 301 301 301 300 300 299 298 298 299 299 298 298
309 308 308 308 307 307 307 306 306 306 305 304 303 302 301 298 296 297 298 299 300 300 300 301 301 301 302 303 302 302 301 301 301 301 300 299 298 298 298 299 298 297
308 307 307 307 306 306 306 306 306 306 305 304 303 302 301 298 296 296 297 298 299 300 300 300 300 301 301 302 302 302 301 301 301 301 300 300 299 298 298 298 297 297
307 307 306 306 306 306 306 306 306 305 305 305 304 303 302 299 297 296 296 297 299 300 300 300 301 301 301 302 302 302 302 301 301 301 301 300 299 299 298 297 297 296
307 306 306 306 306 306 306 306 306 305 305 305 304 303 302 300 298 296 296 296 298 299 300 300 300 301 301 302 302 302 302 302 301 301 301 300 300 299 298 297 296 296
306 306 306 306 306 306 306 305 305 305 305 305 304 303 302 300 298 296 295 295 296 298 299 300 300 301 301 302 302 302 302 302 301 301 301 300 300 299 298 297 296 295
305 305 305 305 305 305 305 304 304 304 305 305 304 303 302 301 299 298 296 295 295 297 298 299 299 300 301 302 302 302 302 301 301 301 301 300 300 299 299 298 297 296
305 305 305 305 304 304 304 304 304 304 304 304 304 304 303 302 301 300 297 295 295 296 296 297 298 300 301 301 302 302 302 301 301 301 301 301 299 299 299 298 297 296
305 305 305 304 304 304 304 303 303 303 303 303 304 304 303 302 302 301 298 296 295 295 295 296 296 298 300 301 301 302 302 301 300 300 300 300 299 298 297 297 296 296
305 305 304 304 304 304 303 303 303 303 303 302 302 302 302 302 301 300 298 296 295 295 295 295 295 296 297 298 300 301 301 301 300 300 300 300 298 298 297 297 297 297
305 304 304 304 304 303 303 303 303 303 302 301 299 298 298 298 298 297 297 297 296 295 295 295 295 295 295 296 297 299 300 300 300 300 300 299 299 299 298 297 297 297
304 304 304 304 304 304 303 303 303 303 303 302 300 299 299 299 298 298 299 299 299 298 296 295 295 295 295 295 296 296 297 298 299 299 299 299 299 298 298 297 297 297

ECMWFNIL_925_thetae_120.txt.gz
Theta_e
329 328 326 324 323 322 321 320 319 318 317 316 316 315 314 313 313 313 313 312 312 311 310 310 310 309 309 310 310 310 310 309 308 308 307 307 306 305 304 304 303 302
327 326 324 323 322 321 320 319 318 318 316 314 314 314 313 313 312 312 312 312 311 310 309 309 309 309 309 309 309 309 309 308 307 307 306 306 305 304 303 302 302 301
324 323 322 321 321 319 319 318 317 317 315 313 313 313 312 312 311 311 311 311 310 310 310 309 309 308 308 308 308 308 307 306 306 305 305 304 303 302 301 301 301 301
322 322 321 320 319 318 318 318 316 315 313 312 312 311 310 310 309 309 310 310 310 310 309 308 308 307 307 307 307 306 305 305 304 303 303 302 302 301 300 300 300 300
320 320 319 319 318 318 317 316 315 313 313 313 311 309 308 308 308 308 309 310 309 309 309 308 307 307 306 306 305 304 304 303 302 302 302 302 301 300 300 300 300 299
320 319 318 318 317 316 316 315 313 313 311 310 309 307 307 306 306 306 307 309 309 308 308 307 306 306 305 305 304 303 303 302 302 301 301 301 301 300 300 299 299 299
318 317 317 316 316 315 315 314 312 311 309 307 306 306 305 305 305 305 306 308 308 307 307 306 306 305 304 304 303 303 302 301 301 301 300 301 300 300 299 298 298 298
316 316 316 315 315 314 314 312 310 308 307 306 305 304 304 304 303 302 305 307 307 307 306 305 305 304 303 303 303 302 300 300 300 300 300 300 300 299 298 298 298 298
316 316 315 314 314 313 312 310 308 307 306 305 304 304 304 302 300 300 305 307 306 306 305 305 304 304 303 303 302 300 299 299 299 300 300 300 299 298 298 298 298 298
315 315 314 313 312 311 310 308 306 306 305 304 304 303 302 299 297 300 305 307 306 305 305 304 303 303 303 302 301 299 298 299 299 299 300 299 299 298 298 298 298 298
314 314 313 312 311 309 307 306 305 305 304 303 301 299 298 297 298 302 305 306 305 305 304 303 303 303 302 301 299 298 298 299 299 299 299 299 298 298 298 297 297 298
313 313 312 311 310 307 306 305 304 304 303 301 298 296 297 297 299 302 305 305 305 305 304 303 302 302 302 300 298 298 298 298 298 299 299 299 298 298 298 297 297 297
313 312 311 311 309 307 306 304 304 303 302 300 297 296 298 299 300 302 304 304 304 304 303 303 302 302 301 299 298 298 298 298 298 298 298 298 298 298 297 297 297 297
312 312 311 310 308 307 305 304 303 303 302 300 297 297 299 300 301 302 303 303 304 303 303 302 302 302 301 300 299 299 299 298 298 298 298 298 297 297 297 297 297 297
311 310 310 309 307 306 305 304 303 303 302 300 297 297 299 301 301 301 302 302 303 303 303 302 302 301 301 300 300 300 299 299 298 298 298 298 297 297 296 296 296 296
310 309 308 307 306 305 304 303 303 302 301 298 296 297 299 300 301 301 301 302 302 302 302 302 302 301 301 301 301 300 300 300 299 298 298 298 297 297 296 296 296 296
309 308 307 307 306 305 304 303 302 301 299 296 296 297 299 300 300 301 301 301 302 302 302 302 302 301 301 301 301 301 300 300 299 299 298 298 297 296 296 296 296 296
308 307 307 306 305 304 303 302 302 301 298 296 296 297 298 299 300 300 301 301 301 302 302 301 301 301 301 301 301 301 301 300 300 299 298 298 297 296 295 295 296 296
307 307 306 306 305 304 303 302 302 301 299 296 295 296 297 299 300 300 300 301 301 301 301 301 301 301 301 301 301 301 301 300 300 299 298 298 297 296 296 296 296 296
307 307 306 306 305 304 303 303 302 302 301 298 296 296 296 298 299 300 300 300 301 301 301 301 301 301 302 302 302 301 301 300 300 299 298 298 297 296 296 296 296 296
306 306 306 305 305 305 304 304 303 302 301 298 295 295 296 297 298 299 300 300 300 300 300 301 301 302 302 302 302 301 301 300 300 299 298 298 296 296 296 297 297 297
306 306 305 305 305 305 305 304 303 302 300 297 296 295 295 296 297 298 299 299 300 300 300 300 301 302 302 301 301 301 301 301 300 299 298 297 297 297 297 297 297 297
306 306 305 305 305 305 305 304 303 302 301 299 299 297 295 295 296 297 298 298 299 299 300 300 300 301 301 301 301 300 300 300 300 299 298 297 297 297 297 297 297 296
306 306 305 305 305 305 305 304 303 303 302 301 301 299 296 295 295 295 296 297 297 298 299 299 299 299 300 301 301 300 299 299 299 298 298 298 297 297 297 296 296 295
305 305 305 304 304 304 304 304 304 303 303 302 302 300 297 295 295 295 295 295 295 296 297 297 297 298 299 300 300 300 300 299 299 298 298 297 297 296 296 296 296 295
305 305 304 304 304 304 304 304 304 303 303 303 302 300 296 295 295 295 295 295 295 295 295 295 296 296 297 298 299 299 299 299 298 298 297 296 296 296 296 296 295 295